GFSSW_sfc_dewp_000.txt.gz
Dewpoint
52 52 52 52 52 53 54 54 55 56 57 60 61 60 60 61 59 54 50 49 49 55 56 53 56 56 55 50 47 42 37 33 34 34 32 31 35 39 39 37 34 34 33 36 46
51 52 52 51 51 52 53 54 55 55 56 57 59 59 60 59 53 51 54 57 58 57 47 51 51 54 50 49 48 42 38 35 36 36 35 35 38 40 39 36 35 32 34 35 37
51 51 51 51 51 52 53 53 54 56 55 56 57 58 59 56 49 47 55 59 60 57 51 49 57 54 49 47 46 43 38 38 38 38 37 39 39 41 40 39 35 34 33 35 36
52 51 51 51 51 52 52 52 53 55 56 56 57 57 58 52 38 49 55 54 57 55 51 47 54 52 49 46 44 41 41 39 40 41 41 40 41 41 42 42 40 40 40 37 35
53 53 52 52 51 52 52 52 52 54 55 55 56 57 54 48 43 48 50 48 47 52 51 46 50 49 48 47 44 43 40 41 41 42 42 43 42 41 41 41 41 41 38 36 34
54 53 53 53 53 52 52 52 53 53 54 56 56 56 49 41 44 44 45 45 43 48 50 47 49 48 44 46 44 43 42 41 41 42 42 42 41 40 39 39 37 36 36 35 36
54 54 53 54 54 54 52 53 53 53 54 55 55 52 47 41 43 43 44 42 44 43 47 48 47 51 46 47 47 44 42 42 42 42 41 42 39 37 38 31 32 32 33 39 41
54 54 55 55 54 53 53 53 54 55 54 54 53 50 41 45 45 44 43 43 45 43 46 48 48 52 52 47 46 45 44 39 39 42 42 38 35 36 32 31 30 31 35 40 41
53 54 54 55 55 55 55 55 55 55 54 53 49 46 39 46 43 44 43 40 44 44 44 48 50 50 50 45 44 44 39 38 37 41 40 37 34 31 31 32 31 31 36 38 40
54 55 55 56 55 55 54 55 55 53 51 49 48 42 41 40 42 42 43 41 43 46 46 47 47 47 48 44 39 38 37 36 36 36 35 33 35 33 32 31 31 32 36 38 39
55 55 56 56 55 53 53 52 47 46 46 40 39 36 39 40 44 43 43 41 42 43 40 43 41 40 43 45 39 35 36 36 36 35 34 36 36 32 35 33 32 32 35 37 38
54 55 56 56 55 54 53 49 45 45 41 42 41 39 42 42 40 41 43 38 39 37 42 38 38 42 46 44 41 37 35 35 34 35 34 36 36 37 35 32 32 32 35 37 38
54 54 55 55 53 52 51 50 51 49 39 40 41 40 40 41 39 40 41 37 36 35 39 36 39 42 46 42 41 38 35 33 34 36 36 33 33 33 28 28 29 32 36 37 37
54 54 55 53 50 52 50 50 50 48 33 35 39 38 41 41 38 39 41 36 38 34 40 34 38 44 43 42 40 36 38 37 37 39 34 33 29 31 29 28 30 35 36 37 39
55 54 54 53 51 49 50 50 49 45 24 34 37 39 39 35 35 38 42 36 34 37 38 34 40 40 41 41 40 36 40 39 38 38 36 34 29 28 27 26 29 34 36 38 39
55 54 54 52 52 51 51 50 47 32 23 35 38 37 37 36 33 40 40 37 39 36 36 33 46 43 42 41 42 40 37 37 35 34 32 31 29 27 25 24 28 34 36 38 39
56 55 52 50 46 53 51 45 33 28 35 35 36 38 34 31 30 37 36 35 36 35 34 35 36 47 44 43 40 39 38 36 34 32 29 27 27 26 27 26 28 33 36 38 40
56 54 52 50 52 54 48 38 29 32 34 37 36 37 32 31 30 36 32 29 35 38 30 33 35 43 44 41 40 38 37 30 26 27 26 27 26 23 26 28 28 32 36 38 39
54 50 49 50 53 51 42 32 31 36 35 36 34 33 29 30 29 34 29 28 35 36 31 34 35 43 44 42 40 40 38 33 28 28 26 26 28 29 29 29 30 31 36 38 39
49 46 46 49 53 48 37 35 36 39 37 34 25 29 26 27 32 33 27 26 33 37 39 32 34 38 38 43 38 39 39 33 31 26 24 25 26 25 26 27 29 30 35 38 39
48 44 48 53 52 42 34 36 39 40 38 27 26 26 26 27 34 28 26 31 32 35 38 36 33 31 37 38 37 36 38 37 32 28 24 22 24 26 27 27 29 30 34 38 39
46 41 53 52 41 41 37 38 42 42 40 28 29 28 25 28 31 30 26 33 30 39 36 38 31 34 33 32 35 36 34 34 31 27 26 25 24 26 27 28 29 31 34 37 38
42 45 53 49 38 38 41 40 41 41 37 31 33 34 31 30 31 34 33 31 36 39 37 34 31 30 32 32 31 34 34 36 31 27 26 25 24 26 29 31 32 32 34 37 38
43 42 47 48 45 42 40 39 41 43 37 39 36 38 35 31 32 32 33 39 43 38 43 38 32 27 27 29 32 32 31 34 34 30 27 25 25 26 27 31 32 33 33 35 38
43 41 43 39 41 42 43 41 39 40 43 44 38 37 32 31 35 35 36 40 40 43 42 38 30 31 30 30 30 31 32 29 29 31 27 28 27 27 27 30 32 33 33 34 35
39 40 41 41 42 42 42 41 39 43 41 40 42 37 36 33 34 36 39 39 39 41 40 38 31 27 27 31 30 28 30 32 32 31 28 28 28 28 28 30 30 31 31 34 36
44 43 39 38 35 41 40 42 40 41 43 44 42 38 36 37 37 40 41 40 39 39 39 36 31 29 26 26 26 27 29 29 29 28 27 26 29 29 30 30 32 34 35 35 36

GFSSW_sfc_dewp_003.txt.gz
Dewpoint
53 52 53 52 52 53 53 54 55 55 57 59 60 61 61 61 59 54 49 49 50 55 55 51 49 52 52 50 48 45 37 34 33 33 32 32 33 35 38 36 35 33 33 34 37
53 52 52 52 52 52 52 53 54 55 56 57 59 60 60 59 52 51 54 57 57 58 49 46 46 46 50 48 46 43 37 35 34 33 33 33 35 37 38 36 35 35 33 35 35
53 52 52 52 52 52 53 52 53 55 56 56 57 59 59 57 50 47 56 58 59 58 52 47 47 50 47 47 45 43 38 36 35 35 36 35 36 37 38 38 37 35 34 35 37
53 53 52 52 52 53 52 52 52 53 55 55 56 58 59 52 38 48 55 53 56 54 52 47 44 49 47 45 43 40 40 38 38 38 38 38 38 37 39 39 39 40 40 39 38
53 54 53 53 53 53 52 52 52 52 54 55 56 57 54 47 44 49 51 47 47 52 50 47 41 43 47 44 44 41 39 38 39 38 39 40 39 39 39 40 40 39 39 39 37
53 54 54 53 54 54 53 52 53 53 52 55 56 57 49 41 43 44 45 44 44 47 49 48 42 40 42 45 43 43 41 39 39 39 39 39 39 39 39 40 38 35 31 34 35
53 53 54 54 54 55 54 53 53 52 53 53 54 51 45 41 41 42 42 41 41 41 43 47 46 43 44 45 44 44 41 40 39 38 38 40 38 38 39 38 29 27 28 32 38
53 54 55 55 55 55 55 54 54 54 53 53 53 49 44 42 43 42 41 40 41 41 42 44 47 44 45 50 48 42 44 40 39 39 38 40 37 35 34 29 29 30 32 37 39
55 53 54 55 55 56 55 55 55 54 54 53 49 47 40 46 42 41 41 38 38 42 42 42 46 45 45 47 45 45 40 40 38 38 38 39 36 34 33 29 30 29 30 35 39
56 55 55 56 56 56 56 55 55 54 51 49 48 44 41 39 40 41 41 40 38 38 41 41 44 43 43 44 37 40 40 38 39 36 38 37 36 35 32 32 31 29 32 36 37
56 56 56 56 56 55 53 52 47 46 47 42 41 37 38 40 42 42 40 40 38 37 37 40 40 38 37 41 43 40 41 37 38 37 36 36 34 32 34 33 33 31 33 36 37
56 55 55 55 55 55 52 47 45 46 42 43 40 40 39 41 38 40 40 37 36 34 34 37 37 36 35 38 44 41 38 36 37 35 35 33 33 34 35 36 35 31 33 36 37
55 54 54 54 54 54 50 46 50 49 40 39 42 40 38 41 37 38 39 37 32 32 31 33 35 35 34 36 43 39 40 37 35 35 35 34 35 36 36 33 32 31 34 36 36
55 53 53 54 50 48 47 50 51 50 33 36 40 41 40 43 39 38 39 36 34 31 31 32 34 37 34 38 40 40 41 35 35 35 32 35 26 29 31 28 29 30 34 36 36
55 53 54 53 50 49 50 51 50 46 25 35 39 41 41 39 33 33 38 38 33 32 35 32 36 38 35 36 41 42 42 36 37 36 38 36 32 29 30 27 29 30 35 36 37
55 54 54 52 50 49 50 49 47 32 25 33 37 37 36 39 34 34 35 38 34 32 36 31 37 38 38 41 44 44 40 40 38 35 31 30 31 26 27 27 27 30 34 37 37
56 55 52 47 45 51 50 45 33 28 34 34 36 37 35 34 33 35 35 35 34 32 35 34 34 39 42 41 45 44 41 35 31 31 26 29 29 28 25 25 26 31 34 36 38
56 55 52 46 51 51 48 37 29 29 31 38 37 37 35 32 29 31 34 34 33 34 33 31 29 36 39 43 41 42 39 28 24 25 25 28 27 26 27 27 28 32 35 37 38
56 53 51 49 52 51 42 31 31 32 37 36 37 34 35 32 23 25 31 35 28 33 35 31 33 40 43 44 41 39 38 34 29 28 26 27 27 27 28 28 27 31 35 36 38
49 47 46 48 52 49 38 34 36 38 38 37 31 30 29 29 24 27 29 31 27 29 37 37 33 39 45 44 44 42 38 32 31 25 23 25 24 25 27 27 28 29 34 36 38
48 43 46 50 52 43 33 35 37 40 40 33 26 25 24 23 25 26 25 24 26 29 37 40 36 35 43 40 39 41 38 35 30 28 24 23 24 27 26 26 29 29 33 36 38
46 40 52 52 41 40 36 38 41 40 42 36 25 24 21 22 25 26 23 24 24 29 37 40 39 35 36 34 39 41 38 34 29 28 27 26 24 26 27 29 29 30 33 36 38
44 42 52 49 37 37 38 39 40 39 39 33 27 27 24 24 24 27 27 26 31 30 38 38 37 35 36 34 37 37 35 35 33 30 27 23 24 26 28 30 31 30 32 36 38
42 41 46 46 44 41 38 38 38 41 39 33 30 31 29 27 27 28 29 28 34 31 43 40 34 30 27 29 35 36 36 33 31 28 26 27 25 24 26 29 31 31 33 36 37
42 41 42 39 40 41 42 39 38 39 41 34 37 33 31 26 27 31 29 32 32 39 36 39 32 30 28 29 32 33 34 35 34 33 28 27 27 27 27 28 30 32 33 35 36
41 36 43 43 40 40 41 39 39 39 39 39 41 35 34 29 26 28 29 31 36 37 37 38 34 31 30 31 30 30 32 33 33 33 32 30 29 29 29 28 29 31 32 33 35
46 44 40 38 39 38 40 39 39 40 43 40 42 40 35 34 32 34 33 36 38 36 39 38 37 30 27 30 30 28 29 30 32 32 31 30 31 31 29 29 30 31 32 33 35

GFSSW_sfc_dewp_006.txt.gz
Dewpoint
53 53 53 53 53 53 53 54 55 56 57 59 59 60 61 61 60 55 51 50 53 57 57 49 48 48 51 51 50 48 42 37 36 35 34 33 33 34 37 36 35 35 34 36 37
53 53 53 53 53 52 53 53 54 56 56 56 58 59 60 60 54 52 55 57 57 56 50 44 43 44 45 50 48 45 42 39 36 35 33 34 34 35 36 37 35 35 36 35 35
54 53 53 53 52 53 52 53 53 55 56 55 56 58 60 58 51 49 57 59 59 57 53 49 45 45 44 46 47 45 42 41 36 35 35 35 36 36 36 37 38 36 37 40 40
54 53 53 53 52 53 53 53 53 54 55 56 56 58 60 54 42 49 54 53 55 53 53 50 45 44 46 43 44 42 43 41 41 39 38 38 38 37 37 38 41 40 40 40 39
54 53 54 53 53 53 53 53 53 53 54 55 56 57 54 46 44 50 51 49 48 51 50 48 45 41 41 44 44 42 42 40 40 39 38 39 39 39 38 39 40 40 41 40 39
55 54 54 54 54 54 54 53 53 54 54 54 55 57 50 40 42 43 48 45 44 44 48 48 45 43 38 41 43 44 43 43 41 38 38 38 38 39 39 39 39 40 38 32 34
55 54 55 55 54 54 55 54 53 53 53 54 55 52 46 41 41 41 43 43 42 41 40 44 45 45 41 39 44 44 44 43 42 40 37 39 37 37 40 39 38 37 28 32 36
55 54 55 56 56 55 55 54 55 55 54 54 54 49 42 45 44 41 40 40 40 39 41 42 43 45 44 44 45 45 44 42 42 40 40 38 35 38 39 37 36 28 29 36 39
56 55 55 56 56 56 56 55 55 55 54 54 50 47 38 45 42 41 41 39 38 38 42 39 41 42 44 40 41 43 39 41 41 42 39 37 36 39 39 34 31 29 29 36 39
58 57 56 55 56 56 55 53 54 54 53 49 46 43 42 38 41 41 41 41 38 37 37 40 40 39 41 40 33 36 40 38 40 41 39 37 36 38 38 33 30 30 29 36 38
58 57 56 56 56 55 53 50 46 45 48 40 40 38 38 40 41 40 40 39 39 37 34 37 38 35 36 38 38 37 37 40 38 41 38 37 36 38 37 36 34 33 32 36 39
57 57 56 56 55 55 52 45 45 47 41 46 42 41 40 41 38 39 40 37 37 34 34 35 35 35 35 35 38 37 38 40 39 40 39 37 36 36 36 35 34 34 32 37 39
57 56 55 55 54 53 49 46 50 48 41 41 44 41 40 41 37 37 39 37 34 33 32 32 32 35 33 32 33 36 37 40 39 38 39 35 34 33 33 33 35 36 33 37 38
56 55 55 54 50 48 48 50 51 50 34 35 39 42 42 43 39 39 39 37 35 31 31 32 33 30 33 31 32 32 37 40 42 39 36 34 28 32 33 35 34 32 33 37 37
56 55 55 53 50 47 49 51 50 47 24 36 39 42 42 40 38 37 41 38 33 31 31 32 30 29 29 33 33 33 37 40 42 41 38 33 31 30 33 34 28 29 34 36 37
56 55 54 53 50 50 51 49 47 33 23 34 39 39 39 39 38 39 37 39 37 34 31 30 33 34 34 34 37 37 37 40 44 41 36 37 32 30 29 28 28 29 35 36 37
56 55 53 48 45 51 49 46 32 28 33 35 35 36 34 37 37 37 34 33 31 30 31 35 34 36 39 37 38 39 37 33 33 32 29 31 33 30 26 27 28 29 35 36 38
56 55 52 45 51 50 47 38 27 27 30 37 37 36 35 37 37 36 33 31 33 32 31 27 25 34 36 37 36 38 38 33 29 31 26 29 28 28 27 27 30 32 35 37 38
56 53 50 49 51 49 42 30 29 32 36 37 36 34 34 37 35 33 31 34 31 31 31 33 29 34 34 35 41 38 34 36 38 25 26 28 27 26 28 27 30 33 35 37 38
51 50 49 50 51 47 38 32 34 37 38 38 33 31 29 31 28 28 27 28 30 32 34 34 30 35 38 40 41 41 40 36 38 24 25 27 26 25 27 27 29 33 35 37 38
48 44 47 52 51 43 33 34 35 37 40 37 32 28 26 28 27 22 23 26 30 31 36 36 34 35 38 40 38 42 41 42 40 32 25 24 25 29 28 29 28 32 35 37 38
47 40 49 52 41 41 36 36 41 39 41 40 37 34 23 27 26 23 25 28 30 29 31 38 36 33 35 40 42 43 40 40 31 29 28 28 25 26 28 29 30 29 35 37 38
44 45 51 49 36 37 38 38 39 40 41 39 34 28 25 22 21 23 29 31 30 36 36 38 35 32 33 39 42 42 41 39 37 32 30 23 24 29 30 30 30 30 35 37 39
45 40 45 46 43 40 37 38 36 40 39 39 35 30 26 23 23 31 26 32 34 31 44 44 39 35 33 34 39 39 40 39 35 30 27 26 25 26 30 30 30 31 34 37 38
45 41 43 38 39 40 41 39 37 37 41 40 34 30 30 26 25 23 29 29 34 36 40 39 38 37 31 36 36 36 36 36 33 31 30 27 25 24 28 31 31 32 35 37 37
42 39 44 42 38 38 39 39 38 38 40 38 34 36 36 28 26 26 27 29 27 35 33 36 35 35 29 31 33 34 36 36 35 34 33 32 30 29 28 30 31 32 34 36 37
48 45 42 39 40 39 39 39 39 40 40 41 39 34 38 34 33 28 31 30 35 35 36 37 37 33 27 30 30 28 31 33 34 35 34 32 32 30 29 30 31 31 33 35 36

GFSSW_sfc_dewp_009.txt.gz
Dewpoint
52 52 52 52 53 53 53 53 54 56 57 58 60 60 61 61 61 57 52 52 54 56 55 48 45 46 48 49 52 50 42 40 39 36 36 37 33 35 36 36 37 36 35 37 44
53 53 53 52 52 52 52 53 54 55 56 56 57 60 60 60 55 54 56 59 59 56 51 48 45 44 44 48 50 46 43 42 40 38 36 36 34 33 35 38 38 37 37 38 41
53 54 53 52 52 52 52 53 53 54 55 57 56 59 60 57 51 49 59 60 60 57 55 53 50 46 44 43 47 47 44 43 41 40 39 36 36 37 37 37 38 38 37 41 38
54 53 53 53 53 52 52 52 53 53 54 55 56 57 59 56 42 51 54 54 58 55 54 52 49 44 43 45 43 45 46 45 45 44 42 39 38 37 37 37 39 41 41 41 40
55 54 53 54 54 53 53 52 52 52 53 55 56 57 55 49 47 51 52 51 50 52 51 51 48 45 41 42 45 44 44 44 44 44 42 41 39 38 39 40 40 40 40 40 41
56 55 54 54 54 53 54 54 53 53 53 53 55 57 51 42 44 48 49 46 45 49 51 50 48 46 43 40 40 43 43 43 43 42 41 39 38 39 39 40 39 39 40 40 37
57 56 56 54 54 54 54 55 55 53 53 53 53 52 49 43 44 43 48 46 44 42 41 47 48 46 45 42 43 45 44 43 45 43 43 43 38 37 39 40 39 39 39 33 38
57 57 56 56 54 56 55 54 55 55 54 54 53 51 44 47 47 45 43 41 41 41 41 42 43 41 44 44 42 42 43 40 42 44 43 41 38 38 39 39 39 39 35 35 39
57 57 56 56 56 56 56 55 54 55 54 53 51 48 41 48 45 44 43 40 39 39 40 39 41 40 42 41 38 40 36 39 41 43 42 40 38 39 39 38 38 36 30 37 39
58 57 57 56 56 56 56 53 53 53 53 51 48 44 43 39 43 43 42 42 39 40 39 41 40 38 38 39 31 33 35 35 39 41 42 41 40 38 38 38 38 32 29 38 40
58 58 57 56 56 56 53 50 44 45 49 42 42 38 37 42 43 43 42 41 40 38 35 36 37 33 35 37 37 33 33 35 37 40 40 39 40 38 38 38 34 31 33 38 40
58 57 57 56 56 56 51 46 44 45 41 46 45 43 41 42 39 41 42 38 37 34 36 35 32 35 36 36 36 36 36 35 36 40 42 40 38 39 38 38 37 35 34 39 40
57 57 56 56 56 53 49 46 49 47 39 41 45 44 42 43 39 39 41 38 36 35 35 32 31 34 35 34 34 35 36 35 34 38 41 41 39 38 38 37 36 36 35 39 40
56 57 56 55 49 49 46 49 50 47 34 35 38 42 43 43 40 42 40 38 37 34 34 33 33 31 32 33 33 31 33 34 35 35 35 40 34 37 37 34 34 34 37 38 40
56 56 55 51 47 46 49 50 50 47 20 34 38 43 42 40 39 39 41 40 36 33 35 32 32 32 31 31 34 32 33 33 35 37 37 36 37 33 34 33 33 33 36 38 39
56 55 55 51 49 51 50 48 46 32 19 35 39 38 38 41 39 38 38 40 40 38 36 33 33 34 32 31 31 35 36 36 37 36 32 36 35 32 31 31 33 30 36 37 39
56 55 54 49 46 51 49 44 33 25 31 34 35 36 35 35 37 36 37 37 36 31 31 33 34 35 39 35 36 35 33 29 28 29 28 36 35 35 31 33 33 30 36 37 39
56 55 52 48 51 49 46 38 26 27 30 37 36 34 35 33 36 35 35 34 37 33 30 24 21 32 37 35 31 33 31 28 21 24 25 37 34 34 34 32 32 35 36 38 39
55 53 49 50 50 48 39 29 27 29 36 37 37 34 34 35 34 36 35 34 32 33 26 29 27 33 33 35 34 31 31 33 34 36 32 35 37 34 29 29 32 35 36 38 39
53 49 47 51 50 45 38 29 32 36 39 38 34 34 27 30 33 33 32 33 32 32 32 32 27 31 34 35 36 33 35 32 34 29 29 32 27 26 26 29 34 35 36 38 39
49 45 50 51 50 42 34 32 34 37 39 37 36 33 30 30 31 29 26 29 32 31 32 35 32 30 35 35 33 35 35 35 35 33 32 30 27 28 26 30 33 35 36 38 39
47 41 51 50 40 40 36 35 38 37 39 39 39 36 33 29 29 27 24 24 34 32 31 36 35 30 30 38 36 37 37 33 28 30 35 26 23 28 29 29 33 35 36 38 39
44 45 51 48 35 36 38 37 37 37 38 40 38 36 34 30 31 28 29 32 35 35 36 38 34 28 33 38 41 36 38 38 35 37 34 23 23 29 29 29 31 34 36 38 39
45 40 45 46 43 38 36 36 37 40 39 40 40 38 34 29 30 28 25 33 34 34 40 40 36 34 32 35 38 37 36 38 38 35 27 26 26 28 29 29 30 35 37 38 39
45 41 41 37 39 40 39 38 37 36 40 41 38 37 34 26 25 27 31 31 35 41 39 37 32 33 34 35 37 37 37 38 35 34 25 25 26 28 29 29 30 35 37 38 38
42 41 43 40 39 39 39 39 38 38 39 39 38 35 33 33 26 25 30 30 29 38 36 38 34 37 36 39 39 37 39 38 35 34 32 32 30 27 30 31 31 35 37 37 38
48 47 43 41 39 38 37 37 37 40 40 40 39 39 37 36 37 31 35 29 29 35 35 37 37 36 28 34 36 32 35 36 35 35 34 32 32 29 30 31 31 34 37 37 37

GFSSW_sfc_dewp_012.txt.gz
Dewpoint
53 53 53 53 53 53 52 53 53 54 56 57 59 60 61 62 61 57 53 52 54 56 56 48 45 44 47 45 50 49 43 40 39 37 37 37 36 35 35 34 36 36 34 35 42
54 53 54 53 53 52 52 52 53 53 55 57 57 59 59 61 57 55 57 59 59 57 51 49 47 48 44 46 47 48 44 42 42 40 38 39 36 35 34 37 37 38 39 39 48
55 54 54 54 53 52 52 52 52 53 54 56 56 58 60 59 52 50 59 61 61 58 54 53 51 48 44 44 46 48 45 44 43 42 41 40 38 37 35 35 37 37 39 39 43
56 55 54 53 53 52 52 52 52 53 53 55 56 57 59 56 39 51 55 56 60 58 54 52 50 45 43 43 44 43 46 46 46 46 45 43 40 39 37 36 38 39 41 41 39
57 56 54 54 54 53 53 53 52 52 53 54 55 57 54 49 48 50 51 53 53 54 54 52 48 46 41 41 43 43 43 45 46 46 45 44 43 40 39 39 40 40 40 40 40
58 56 56 54 54 54 54 54 53 52 52 53 54 56 50 41 46 46 50 47 48 51 51 52 49 48 44 41 40 41 41 43 44 44 44 43 43 40 40 40 39 40 40 40 40
58 58 57 55 54 55 54 55 55 54 53 52 53 52 49 43 45 46 46 46 45 43 46 51 51 48 46 43 43 42 42 43 42 43 44 43 41 42 41 39 39 39 39 39 39
57 59 58 56 55 56 55 55 54 55 54 53 53 51 43 47 47 46 45 43 42 42 42 42 42 41 42 44 42 41 40 37 40 43 44 43 40 41 40 39 39 39 39 39 37
59 58 58 57 56 56 57 55 54 55 54 54 50 47 40 48 46 45 44 42 40 40 40 39 41 40 40 41 38 39 34 35 38 41 43 42 39 40 41 39 38 38 38 37 37
58 58 58 57 56 57 56 55 53 53 53 52 49 45 44 40 43 44 43 42 39 40 39 40 39 36 37 39 31 32 34 34 33 40 42 41 40 42 40 39 38 38 38 33 39
57 57 57 57 56 56 54 49 43 43 49 44 42 41 36 43 43 43 42 41 41 38 35 36 36 31 33 35 37 36 34 32 34 36 36 37 40 40 42 39 38 38 37 32 39
56 56 57 57 56 56 50 44 42 42 40 46 46 43 42 43 39 42 42 38 38 36 36 35 33 33 35 34 36 34 33 34 35 35 35 37 39 41 40 41 39 38 34 37 40
55 56 57 57 56 53 48 46 48 45 38 40 44 44 43 43 40 40 40 39 36 34 33 32 30 32 34 35 34 34 33 31 31 35 35 34 32 36 41 40 40 39 36 39 40
55 55 56 55 50 49 47 49 48 47 33 34 38 42 44 44 40 42 41 38 37 34 34 33 34 32 32 33 34 31 34 35 34 34 30 36 29 34 38 40 39 38 35 39 40
55 55 56 52 46 46 46 49 48 44 7 31 38 43 43 40 40 40 42 39 37 35 35 33 33 33 31 30 34 32 34 32 33 33 33 32 32 33 37 37 39 38 35 38 40
56 55 55 51 49 49 50 49 45 23 10 34 39 38 38 40 39 39 39 42 42 38 36 33 35 34 32 31 31 35 34 34 34 33 28 28 31 29 34 34 37 36 35 38 40
55 55 52 49 47 50 49 43 28 14 28 33 34 37 35 35 36 37 37 37 35 31 30 35 35 35 38 34 35 32 30 24 23 24 23 27 31 30 33 34 34 36 35 38 40
53 55 51 48 51 49 46 35 13 24 29 35 34 35 33 33 35 34 36 33 37 36 32 28 25 33 35 32 31 32 30 24 16 19 21 33 30 32 37 36 37 38 36 39 40
53 53 49 50 50 48 40 27 21 27 34 33 34 33 34 34 33 34 35 32 32 36 29 28 25 32 33 33 32 31 29 29 27 29 27 31 35 39 40 37 32 34 37 38 41
49 49 47 51 49 45 37 28 30 36 38 36 32 33 28 30 32 32 32 32 33 35 33 28 22 30 32 35 34 32 32 28 28 20 20 29 33 33 36 32 34 35 37 39 41
47 43 49 50 48 41 32 31 33 40 39 37 35 36 32 28 30 29 29 31 34 32 35 32 31 31 34 32 30 32 29 30 27 28 28 26 30 34 36 33 34 37 37 39 41
48 37 50 50 39 38 36 35 37 36 39 37 37 38 34 30 31 29 28 27 34 32 31 32 34 28 28 31 36 31 29 28 26 22 29 31 27 28 33 33 36 37 37 39 41
44 44 49 48 34 35 37 35 37 37 37 38 38 38 36 31 28 29 29 30 35 33 34 38 33 26 28 33 33 35 31 32 33 32 30 30 31 30 30 34 35 35 37 39 40
43 38 43 44 43 38 35 35 35 39 37 40 39 39 37 35 31 28 29 31 34 35 41 40 35 31 25 33 34 35 34 32 32 30 28 30 31 34 31 31 34 36 37 38 39
45 41 41 35 38 38 37 37 35 35 39 41 38 39 36 30 28 30 29 29 35 40 40 37 32 32 34 34 36 37 34 36 36 33 29 28 30 30 34 30 34 36 38 38 39
43 42 42 38 39 39 38 37 37 38 39 38 37 37 37 35 29 25 28 30 33 38 36 38 31 34 35 36 36 35 36 36 37 36 35 35 35 32 30 31 34 36 37 38 39
47 46 41 39 37 37 38 37 37 39 39 39 40 39 38 37 36 37 34 33 34 36 35 36 34 35 33 37 38 35 36 37 36 36 35 33 33 29 30 30 35 37 37 38 38

GFSSW_sfc_dewp_015.txt.gz
Dewpoint
55 54 54 54 54 54 54 53 54 54 55 57 59 60 61 62 62 58 53 53 54 56 56 48 46 48 46 44 49 47 42 39 37 37 35 38 37 37 36 32 35 35 39 37 42
56 55 54 53 54 54 54 53 53 54 55 56 57 59 59 61 58 56 57 60 60 59 51 48 46 48 43 45 46 48 43 40 41 39 37 38 38 36 36 36 36 37 39 44 50
57 56 55 54 54 54 53 53 53 53 54 55 56 57 59 59 52 51 59 61 61 59 52 52 51 48 43 44 45 47 43 43 44 43 42 41 39 39 37 35 36 36 38 41 47
58 57 55 55 53 54 53 53 53 53 53 54 56 57 58 56 40 50 55 57 61 57 54 52 49 45 42 42 44 41 45 46 46 46 46 44 42 40 38 36 38 38 40 40 42
59 58 56 55 54 55 54 54 53 53 53 54 55 56 54 49 47 50 53 54 55 57 54 52 47 45 40 41 42 42 43 44 45 47 46 46 45 44 42 41 40 39 40 40 40
59 58 57 56 55 55 55 55 54 53 53 53 54 55 49 38 45 46 47 47 51 52 53 53 49 48 45 42 40 41 41 41 42 44 44 44 44 44 43 42 40 40 40 40 40
58 59 58 57 55 55 55 55 55 54 53 52 53 52 48 42 45 46 45 47 46 50 49 51 51 49 47 43 43 42 40 41 41 42 42 44 41 42 44 43 40 39 39 40 40
58 59 59 58 57 55 55 55 55 56 54 53 53 50 42 47 47 46 45 44 45 43 43 45 49 44 41 43 42 40 38 35 38 41 42 43 36 41 43 43 42 40 39 39 40
57 57 58 58 57 56 56 55 54 54 54 54 50 46 39 46 46 45 45 42 40 40 41 40 42 40 40 40 38 39 33 34 35 40 42 42 38 40 41 41 40 39 39 39 39
57 57 57 57 57 56 56 55 53 53 53 52 48 43 43 39 43 44 45 43 39 39 38 39 40 38 38 38 28 30 33 33 33 38 39 39 38 39 42 41 40 40 39 39 37
56 56 56 56 57 57 54 48 42 41 48 44 43 42 38 43 43 44 42 41 40 38 34 36 36 34 34 35 35 35 34 33 33 35 35 36 36 37 40 41 42 40 39 39 35
54 57 56 57 57 56 49 43 41 41 39 45 46 43 43 44 40 42 42 39 38 36 36 35 32 34 33 33 33 33 33 33 34 35 35 33 33 35 37 37 41 41 40 39 36
52 56 55 56 56 54 48 45 47 44 37 39 44 44 44 44 40 40 40 39 37 36 35 32 31 33 33 32 33 33 32 31 30 31 32 31 27 23 29 35 39 42 41 41 37
51 55 56 55 52 50 47 48 47 45 24 30 39 42 44 44 39 42 41 39 37 35 35 34 34 32 31 31 33 29 34 34 33 31 27 32 20 23 29 31 35 40 41 38 38
52 54 56 55 49 47 46 48 47 38 9 31 38 43 44 40 39 40 42 39 35 36 35 33 34 32 31 31 32 30 33 32 34 33 31 30 29 27 31 31 35 40 40 38 39
51 52 56 50 49 47 49 48 44 22 9 33 37 38 38 40 39 40 40 41 42 38 36 33 35 35 33 33 32 35 34 34 34 32 25 26 27 21 22 32 35 38 40 38 39
51 52 54 49 45 49 48 44 27 14 29 31 32 37 35 34 36 38 37 37 36 32 31 35 36 36 37 32 33 31 31 26 25 25 21 25 26 25 27 30 33 36 38 37 39
51 52 51 49 50 49 46 35 18 23 29 34 33 36 32 34 34 36 35 32 35 36 32 28 26 35 37 33 31 31 29 25 17 19 19 23 24 25 32 30 29 31 36 38 40
50 48 48 51 50 48 39 27 22 24 33 32 33 32 32 32 33 34 32 30 32 33 29 26 26 34 35 34 33 34 31 30 25 25 27 27 30 36 38 38 38 36 36 38 40
47 45 47 51 49 45 36 26 27 35 36 33 29 31 28 29 31 31 30 32 32 32 34 30 25 30 32 34 33 31 31 28 30 20 18 20 28 27 33 32 33 34 33 37 40
46 40 49 50 48 42 32 28 31 39 38 35 32 32 30 30 31 29 27 31 34 33 34 33 27 26 31 31 28 31 29 29 28 25 17 18 17 34 33 32 33 34 36 38 41
44 35 50 49 39 39 35 34 36 39 39 38 37 33 33 31 30 29 29 29 34 35 33 33 32 26 25 32 31 31 28 28 27 19 22 25 24 31 34 32 35 36 39 42 44
41 41 49 47 33 34 37 35 36 36 36 35 35 36 36 32 29 30 30 31 35 33 33 34 32 25 29 31 34 34 33 29 28 31 23 19 16 34 32 34 36 39 40 41 42
43 34 42 44 42 35 34 34 34 38 36 36 38 38 37 34 32 29 30 31 33 33 40 39 34 30 24 30 32 31 31 31 27 24 24 25 23 27 31 33 36 38 40 41 42
42 38 39 34 37 35 34 35 33 36 38 38 37 38 37 31 33 31 31 31 35 38 39 37 30 32 33 33 34 34 30 30 29 27 24 22 28 28 34 32 33 37 39 39 41
41 41 41 37 38 36 36 35 35 35 38 38 38 38 37 37 30 26 29 30 32 38 37 39 30 33 31 32 34 33 34 33 30 29 29 31 32 35 35 34 34 37 38 39 40
44 47 40 38 36 37 37 36 36 38 39 39 39 39 38 38 37 37 37 36 35 36 37 35 33 33 31 36 35 31 33 34 32 33 33 33 34 34 35 32 32 37 38 38 39

GFSSW_sfc_dewp_018.txt.gz
Dewpoint
58 56 55 54 54 54 54 54 53 54 55 56 58 60 61 62 61 58 53 54 54 57 55 49 47 48 46 44 49 46 41 38 37 36 36 38 36 37 37 34 36 36 39 38 45
59 57 56 55 53 54 54 54 53 53 55 55 57 58 59 60 58 56 58 60 59 57 51 48 46 47 43 46 46 47 42 39 41 39 37 38 39 38 37 38 37 37 39 44 50
59 58 57 55 54 54 54 53 53 53 54 55 57 57 59 59 52 50 59 61 61 60 52 51 50 47 42 43 44 45 42 42 43 44 44 41 40 40 39 38 37 36 38 40 49
58 59 58 56 55 53 54 53 53 53 53 55 56 57 58 56 39 48 55 56 61 58 53 51 48 43 41 41 44 40 44 46 46 46 46 45 45 43 40 38 38 41 39 40 40
58 58 59 57 56 54 55 54 54 53 53 54 55 56 54 48 47 49 54 51 55 57 52 51 46 43 39 40 41 41 43 44 44 43 45 46 45 45 45 44 43 44 42 40 40
57 58 58 58 56 55 55 54 54 53 53 53 53 55 49 39 42 46 46 47 55 55 54 52 48 47 43 42 40 40 41 41 41 42 43 43 42 43 43 44 43 42 41 41 40
57 58 58 58 57 55 55 55 55 54 53 52 53 51 47 42 45 46 45 45 47 50 51 53 50 47 46 42 44 42 39 40 41 41 40 43 40 41 42 44 44 43 42 41 41
55 57 57 57 57 57 55 55 55 55 55 54 53 49 40 46 47 46 45 43 44 44 43 49 52 49 43 41 40 40 40 35 37 40 40 41 33 38 39 40 42 43 42 41 41
52 55 57 57 57 57 56 56 55 54 55 54 49 44 38 45 46 45 44 41 41 42 42 41 43 39 39 37 35 37 32 34 34 37 39 42 37 40 41 41 41 41 41 40 40
50 52 55 57 56 56 56 55 54 53 53 52 47 42 42 39 43 44 45 42 39 39 38 39 40 37 38 37 28 29 32 34 33 35 36 36 37 38 39 39 39 41 41 40 40
49 51 54 56 56 56 54 50 43 41 47 43 43 41 39 43 43 43 43 41 39 37 35 36 36 35 35 35 34 34 33 33 34 36 35 34 34 34 36 38 39 40 41 41 41
48 51 53 54 57 56 51 44 42 40 37 44 46 43 43 44 40 42 43 39 38 35 36 35 32 34 35 35 34 33 31 31 31 34 33 32 31 32 32 35 37 41 41 42 42
48 49 52 53 57 54 48 44 46 43 35 37 43 44 43 44 40 41 41 39 37 35 35 32 31 34 34 32 32 32 31 30 29 30 31 30 25 21 22 26 29 32 34 38 42
48 49 51 52 53 51 48 48 46 41 23 28 39 42 44 43 39 42 41 39 37 35 35 35 35 33 32 31 32 29 31 32 32 31 25 28 19 21 24 25 22 25 31 39 42
49 49 51 53 51 47 48 48 45 36 11 32 38 43 44 38 39 40 42 39 35 35 35 32 33 33 33 31 32 29 32 33 33 32 31 29 28 24 27 26 27 33 37 38 41
49 49 51 49 51 49 48 47 42 22 10 32 37 38 40 39 38 40 41 41 41 36 36 32 36 34 32 32 32 34 32 32 33 31 25 25 26 20 19 20 24 29 32 39 41
49 49 48 48 47 49 48 42 28 19 30 31 32 35 35 35 36 37 38 38 35 31 31 35 36 36 36 32 34 33 34 25 24 24 20 25 24 22 22 24 26 28 33 37 40
49 49 49 49 51 48 45 31 20 24 28 33 32 33 30 32 34 35 35 33 37 36 33 29 21 33 36 33 30 31 30 25 18 16 18 24 23 24 27 27 27 26 31 37 38
49 48 47 49 51 47 36 26 24 24 32 31 33 29 31 33 33 32 34 32 31 36 31 26 24 34 37 34 32 34 29 30 27 26 25 23 26 27 34 34 35 32 30 33 38
46 43 43 48 51 44 34 27 26 31 34 33 28 30 28 30 31 32 28 30 30 32 33 28 26 29 34 35 35 34 35 29 28 19 17 20 19 20 26 30 33 33 37 36 38
46 39 44 51 50 41 32 28 29 38 35 33 31 30 29 29 31 27 28 29 33 32 33 32 30 25 32 31 28 32 31 32 30 29 19 14 14 28 32 32 33 35 34 36 39
43 34 48 50 37 39 33 31 36 38 38 37 35 32 30 31 30 28 28 29 34 34 32 33 34 27 27 30 31 29 28 28 23 18 23 20 17 28 34 34 35 39 37 39 40
40 40 49 46 32 34 36 34 35 37 37 36 35 35 35 33 29 30 30 33 35 34 33 33 32 26 26 30 31 33 31 29 28 29 22 18 18 19 21 29 37 40 41 43 43
42 34 41 43 41 36 32 32 33 37 37 36 37 37 36 35 32 30 30 32 35 35 38 36 34 29 24 28 33 31 33 34 32 26 22 23 22 22 28 33 36 40 40 41 42
42 37 38 33 36 34 33 33 33 35 37 38 37 35 37 34 33 33 31 31 33 35 38 37 31 32 33 33 33 34 32 33 31 29 24 21 21 23 25 33 36 40 43 43 42
40 40 40 36 38 34 35 34 32 34 36 35 35 36 38 37 33 28 33 31 30 37 36 38 32 33 30 32 33 32 35 34 33 30 29 26 24 30 34 36 35 39 40 41 42
43 43 40 37 37 34 33 35 35 36 38 38 38 38 38 39 39 39 37 37 36 35 35 36 32 32 27 33 34 31 31 33 32 33 29 28 29 30 32 35 37 34 38 40 41

GFSSW_sfc_dewp_021.txt.gz
Dewpoint
59 59 58 56 54 53 53 54 54 54 54 54 56 58 60 61 61 57 53 53 55 58 55 49 48 47 46 45 50 47 43 39 37 36 35 38 36 38 39 35 38 37 37 40 49
58 59 59 57 55 54 53 54 54 54 54 55 55 57 59 60 58 55 56 59 59 58 51 48 46 45 44 45 47 47 43 41 41 39 38 38 38 39 38 38 39 38 39 42 51
58 58 59 58 57 55 54 54 54 54 54 54 55 57 59 59 52 50 58 61 61 60 52 51 49 45 42 44 45 46 42 42 43 43 45 44 42 41 39 40 40 39 39 41 45
57 58 58 59 58 56 54 54 53 53 54 54 55 56 58 55 41 48 55 56 60 58 53 50 47 43 42 41 43 42 44 46 46 46 45 45 46 45 43 43 41 40 43 42 43
55 57 58 58 58 56 54 54 54 54 53 53 55 56 54 49 47 50 53 51 54 56 53 50 45 42 39 41 42 42 42 43 44 43 43 45 44 44 45 46 45 46 46 45 44
53 55 57 58 58 58 56 55 54 54 53 53 53 55 48 40 43 45 45 47 56 57 54 51 47 46 43 42 40 40 41 41 42 41 42 41 41 43 42 44 45 46 45 43 43
49 53 55 57 57 58 56 55 55 55 54 53 53 51 47 41 46 46 45 45 48 54 53 54 50 47 46 44 44 43 40 40 40 41 41 42 38 40 41 42 42 42 43 44 44
48 50 52 55 57 57 57 55 55 56 55 53 54 49 41 46 47 46 45 43 45 43 48 53 52 49 46 42 39 40 40 34 36 39 40 39 30 36 38 40 41 42 42 43 43
48 47 51 54 55 57 57 56 56 54 55 55 49 44 38 45 46 45 44 41 43 42 43 50 44 40 40 38 35 37 31 35 33 37 38 40 37 39 42 40 40 41 42 43 43
48 47 48 51 54 56 56 56 55 53 53 52 47 42 42 39 43 44 45 41 39 40 40 40 39 37 38 36 28 30 32 33 31 34 36 35 34 36 36 37 37 37 39 41 41
48 48 49 50 53 56 56 51 45 44 48 42 42 40 40 43 43 43 44 40 39 38 37 38 37 34 35 36 33 34 33 33 34 35 34 32 32 32 33 34 35 35 36 37 40
47 46 48 48 53 54 53 46 43 41 38 44 45 44 44 44 39 42 43 39 37 35 36 35 33 34 35 34 34 34 33 32 32 32 32 31 30 30 32 32 32 32 33 36 39
47 47 47 48 50 52 49 44 45 41 34 37 42 43 43 43 40 40 41 39 37 35 35 32 31 34 34 33 32 32 32 30 29 31 31 30 27 22 23 27 29 30 32 32 36
47 48 49 49 48 50 48 47 46 39 23 28 38 41 44 43 38 43 42 39 37 35 34 32 34 33 33 32 32 30 32 32 31 29 24 28 19 19 21 21 23 22 24 28 32
48 50 48 49 48 48 49 49 44 38 10 31 38 44 44 39 37 40 42 39 36 35 35 32 34 34 32 31 32 30 31 30 31 31 29 27 27 23 25 24 25 28 28 27 30
49 49 48 48 49 48 50 46 39 26 14 33 37 39 39 38 39 40 40 41 40 36 36 32 36 34 34 34 33 35 33 32 33 31 26 25 25 21 20 20 21 23 26 32 36
48 49 48 47 42 52 50 44 29 17 30 31 32 37 36 34 36 37 38 37 35 31 31 35 35 36 36 32 33 32 34 26 23 24 21 24 25 23 23 25 25 25 25 27 33
47 49 48 46 49 51 47 35 21 24 27 32 33 34 32 33 33 36 36 34 36 35 33 27 22 34 36 32 31 32 30 25 17 17 19 24 24 23 27 27 27 27 27 29 34
48 48 47 48 50 51 39 28 23 25 31 32 32 30 30 31 33 32 33 32 33 37 31 28 26 33 35 35 32 33 29 30 27 25 24 22 24 25 27 28 33 33 35 35 32
45 44 43 49 51 46 35 30 25 33 33 33 29 30 27 29 31 31 30 30 32 35 34 29 26 28 33 36 35 34 33 28 29 19 17 20 22 22 22 23 33 33 36 37 37
45 39 45 51 50 38 32 29 30 37 34 31 30 29 29 30 30 30 28 29 32 31 33 32 29 26 33 32 27 32 31 33 30 28 20 15 14 19 19 27 33 35 38 40 39
42 35 46 49 34 33 32 31 38 37 38 36 34 31 29 30 30 28 28 28 33 33 32 33 31 26 25 29 32 31 29 29 26 21 26 23 19 28 33 34 35 37 39 42 42
38 39 49 44 32 33 35 35 37 37 37 35 34 34 34 31 29 30 30 33 35 34 32 33 31 24 24 30 30 32 31 31 32 30 26 21 18 21 21 29 35 39 41 43 42
39 33 36 42 40 36 32 33 34 37 36 37 36 36 35 34 32 30 30 33 35 34 37 35 32 25 21 25 33 30 32 33 32 27 23 24 22 22 23 26 30 34 43 42 42
42 37 37 33 36 34 32 32 34 33 37 37 36 35 35 34 34 32 31 32 34 36 36 35 31 32 32 31 31 32 32 33 31 29 26 22 22 22 23 24 33 36 42 41 42
38 38 39 36 37 33 35 31 31 36 34 36 35 36 35 36 35 31 33 32 31 33 36 37 31 34 31 33 34 31 33 33 33 32 29 27 25 27 28 30 37 40 41 42 43
42 41 41 37 35 33 33 33 33 36 37 38 36 35 36 36 39 40 38 35 36 35 35 36 33 32 28 31 34 31 35 34 34 34 31 28 29 30 30 35 39 42 40 41 43

GFSSW_sfc_dewp_024.txt.gz
Dewpoint
57 58 59 59 57 55 54 53 54 54 54 55 55 56 59 61 61 58 53 52 52 58 56 49 46 45 46 43 49 47 34 30 30 30 29 35 33 35 38 36 37 36 36 40 46
56 58 58 58 59 57 55 54 54 54 54 54 55 56 58 60 56 55 55 58 59 58 52 47 44 43 42 42 45 42 36 32 33 34 33 34 37 37 36 35 35 37 38 41 48
52 56 57 58 58 58 56 54 54 54 54 54 55 56 57 58 51 48 58 61 61 59 51 49 46 42 40 43 42 41 37 35 40 39 40 39 40 40 37 35 36 36 37 41 43
50 52 56 57 58 58 57 55 55 54 54 54 54 56 57 55 41 50 56 57 62 57 52 49 46 42 40 38 41 39 39 40 39 43 44 41 41 41 40 37 36 41 41 43 43
48 50 52 55 57 58 58 55 55 54 54 54 54 55 52 48 45 49 53 50 54 56 53 49 44 42 39 39 41 39 36 40 40 43 41 41 40 39 38 40 41 42 44 44 43
48 49 49 53 55 57 58 56 55 55 54 55 53 55 45 41 42 45 45 47 52 55 52 50 47 43 41 39 39 38 40 39 40 39 39 38 37 37 37 38 37 39 39 39 41
49 47 48 50 54 56 57 57 56 55 55 54 54 50 46 37 43 45 46 48 52 53 51 51 49 46 45 42 43 41 39 38 37 37 37 39 36 35 37 37 35 36 36 38 38
48 48 48 48 52 54 57 57 57 56 55 54 54 48 40 44 46 45 44 46 47 49 53 53 51 48 43 42 39 37 37 33 34 37 38 37 29 30 34 35 37 37 36 36 36
47 48 49 48 49 53 56 57 57 56 56 54 49 44 38 44 43 42 43 45 43 43 49 51 49 42 41 37 35 35 29 32 32 34 34 36 33 35 40 38 38 37 38 38 40
47 48 48 48 49 51 54 58 56 54 54 50 46 42 41 38 42 43 43 44 42 42 43 43 40 37 35 35 28 27 31 29 29 31 34 33 33 34 35 35 35 35 37 38 39
47 48 48 47 47 48 52 54 47 46 48 43 41 39 39 42 43 42 42 40 41 41 38 39 37 33 32 32 31 31 31 30 30 32 32 30 29 29 31 32 32 32 31 32 34
45 45 47 47 47 48 50 47 42 42 40 44 44 42 43 42 39 41 42 37 38 36 38 37 34 33 33 33 32 31 30 29 30 31 31 29 28 29 29 29 29 28 27 27 27
44 47 47 47 48 47 47 48 48 42 35 39 43 42 42 42 38 40 41 38 35 35 35 32 31 33 33 33 32 30 30 29 28 31 30 29 26 23 21 23 24 26 27 27 27
46 47 49 49 46 45 46 50 50 45 36 33 38 39 43 41 37 41 40 38 37 33 34 33 33 32 32 32 32 29 29 29 29 28 24 27 22 22 22 22 22 22 24 25 26
46 50 47 49 43 45 46 50 49 44 25 33 38 43 41 36 38 40 41 38 35 34 34 31 33 33 31 31 31 29 30 29 29 29 28 27 27 21 23 22 23 23 24 25 27
47 48 47 48 47 45 51 49 45 32 23 33 38 40 39 37 36 40 39 40 37 34 34 31 34 34 32 32 32 33 31 31 30 30 27 25 26 20 19 19 21 21 22 23 23
48 48 47 46 40 49 51 43 31 28 30 32 32 37 34 35 36 37 37 37 33 32 32 33 32 34 34 32 33 33 32 26 24 25 20 19 23 22 20 21 22 21 21 25 27
49 47 48 45 48 49 47 35 28 27 28 32 33 35 32 32 33 34 36 34 35 33 31 28 27 32 36 32 28 31 29 24 17 15 14 21 22 18 20 23 23 25 28 35 36
47 47 47 47 48 48 39 31 28 25 30 30 32 31 31 31 32 33 33 31 33 34 31 29 25 30 33 33 32 32 31 30 27 24 23 19 18 20 20 21 23 25 32 35 37
44 44 44 47 49 45 36 33 26 32 32 31 28 28 27 29 30 29 29 30 30 32 33 30 28 27 31 34 34 33 31 28 30 20 16 14 14 15 17 19 23 27 30 35 38
43 38 44 48 49 39 34 32 34 33 33 30 29 29 28 28 30 28 27 28 31 32 35 31 28 27 34 31 27 32 32 34 29 28 18 13 11 14 16 17 21 28 33 38 39
41 35 45 48 35 35 35 32 37 35 37 34 32 30 29 30 29 28 27 28 31 33 32 30 29 26 28 26 28 26 27 28 27 24 28 26 22 19 23 28 32 30 33 37 41
39 38 47 47 33 35 36 36 37 35 35 33 32 32 31 30 28 28 29 32 33 32 30 31 31 26 27 30 29 31 29 28 32 31 28 24 20 18 20 23 23 30 31 33 38
39 34 38 42 40 35 34 34 35 38 35 36 34 35 32 30 31 30 30 32 33 33 36 35 32 30 25 29 33 32 31 32 33 28 26 25 24 23 22 22 22 24 25 31 39
41 36 38 34 36 33 34 34 33 32 37 36 35 34 32 30 31 31 31 31 34 35 34 34 31 33 31 30 32 33 32 32 32 31 27 24 22 23 24 25 24 25 32 37 39
37 36 39 36 36 31 33 31 32 34 34 34 32 34 35 33 32 31 33 32 31 33 33 35 32 35 32 31 33 33 35 35 35 34 33 30 28 29 29 28 28 31 38 40 41
42 41 39 36 35 32 31 30 32 35 36 37 35 34 33 35 36 38 38 35 33 33 33 34 34 32 30 31 33 32 36 36 36 36 35 31 30 29 29 30 36 40 40 41 40

GFSSW_sfc_dewp_027.txt.gz
Dewpoint
53 54 57 57 59 59 57 56 54 54 55 54 55 55 57 59 61 57 53 52 52 58 56 49 46 44 44 42 44 45 36 30 30 25 26 26 29 31 33 32 32 33 33 41 45
50 52 54 56 58 59 58 56 55 55 55 54 54 55 57 58 54 53 55 56 57 58 52 47 43 43 41 41 42 42 35 31 27 26 28 29 32 31 33 33 30 35 37 41 46
48 49 51 53 56 57 58 58 56 55 55 54 54 55 57 57 51 48 60 59 60 59 52 47 43 42 40 40 39 39 35 30 29 36 36 34 32 35 34 34 31 31 35 39 42
48 49 49 50 52 55 58 59 56 56 55 54 54 55 56 53 42 51 57 59 61 57 51 47 43 40 38 38 39 36 35 34 35 37 40 38 37 35 35 36 33 34 37 39 41
45 48 49 48 50 54 56 58 57 56 55 54 54 55 51 48 47 51 53 51 55 56 51 46 42 39 36 35 34 36 37 34 36 38 39 40 38 36 37 38 37 37 38 41 41
45 47 49 49 48 50 55 57 58 56 55 55 54 54 48 41 44 47 46 46 49 53 52 49 45 41 39 37 37 37 37 36 37 37 38 37 35 35 35 36 36 36 37 37 38
45 46 48 49 49 50 53 55 58 56 56 55 54 50 44 38 40 41 43 46 51 52 52 50 48 44 43 39 40 40 38 38 37 37 37 37 35 35 35 34 33 32 32 34 35
44 46 48 49 50 49 51 53 56 57 56 55 54 46 41 44 44 43 43 48 51 52 52 51 49 47 44 42 38 37 36 34 32 34 34 35 30 28 31 32 33 33 33 33 33
44 44 47 49 49 49 49 52 54 57 56 54 49 44 39 45 40 41 42 46 45 49 53 52 49 44 43 38 36 35 30 30 30 34 33 35 33 32 35 37 32 33 34 34 34
45 46 47 48 48 47 48 50 53 57 54 50 46 43 41 38 41 40 42 45 42 46 47 47 42 39 38 37 31 29 29 29 28 28 32 32 31 31 32 33 35 35 35 35 35
45 46 46 47 47 47 48 48 49 47 50 43 43 38 40 41 42 41 43 44 42 42 37 40 37 35 34 34 32 29 29 28 28 29 29 29 28 29 29 29 30 30 31 32 33
44 44 47 47 47 46 45 42 44 46 43 43 42 41 40 40 38 40 42 40 39 36 37 37 35 33 32 31 31 30 30 28 28 28 29 28 27 27 27 28 28 28 28 29 30
43 45 47 48 48 49 44 43 46 49 41 42 41 40 41 42 37 39 40 38 37 35 36 34 32 33 33 32 31 30 29 28 27 28 28 27 25 22 22 23 24 27 28 28 28
43 46 47 48 46 44 42 43 48 49 36 37 40 39 42 41 38 39 40 37 35 32 34 33 32 30 31 31 30 28 28 28 28 27 24 27 21 22 19 20 21 22 23 23 26
44 46 47 49 45 41 42 49 50 46 27 35 37 40 40 37 38 39 40 38 33 32 33 31 31 32 30 30 30 29 30 29 29 27 28 26 26 22 21 21 21 23 23 24 26
45 46 48 46 47 43 48 47 45 32 27 33 38 37 37 35 36 38 38 39 35 32 32 30 33 32 32 32 32 32 29 29 29 28 25 22 20 17 15 14 16 20 22 23 21
46 48 47 45 40 48 50 42 30 27 31 33 32 36 34 32 34 37 37 36 33 32 32 31 30 32 32 30 32 31 30 26 25 26 21 17 20 19 17 18 20 20 21 22 24
48 48 46 44 47 49 45 36 28 30 28 30 33 34 33 33 33 33 34 33 32 30 30 28 28 30 33 31 29 31 29 24 17 16 16 18 19 18 17 18 20 21 22 23 24
47 46 46 46 48 46 39 31 32 27 29 31 33 32 34 31 33 32 31 31 31 31 31 28 27 29 33 32 30 30 30 29 26 22 21 17 17 17 17 17 17 18 22 25 30
45 43 43 47 46 44 36 33 30 31 31 32 29 28 28 30 30 29 30 31 30 31 31 30 28 27 31 32 31 30 31 28 30 20 16 15 14 15 15 15 16 17 20 25 32
44 37 45 48 47 40 34 35 32 31 31 29 28 27 26 28 29 27 28 29 30 30 33 30 28 28 31 30 26 30 30 30 26 30 20 17 16 16 17 19 18 21 27 30 35
42 34 47 49 36 36 36 37 34 33 34 31 30 29 28 28 28 28 27 26 30 31 30 30 28 28 27 25 26 26 28 27 28 23 27 27 23 22 20 21 22 23 28 31 32
39 38 47 47 34 36 37 37 35 33 33 31 31 30 30 28 27 27 28 31 30 31 30 31 31 26 29 28 27 28 27 26 31 31 29 26 23 21 21 21 22 22 23 26 28
40 35 40 43 41 35 37 36 34 37 35 33 33 31 30 28 30 28 29 32 32 31 37 35 30 30 26 28 33 33 31 31 34 30 26 25 25 25 25 25 27 27 26 24 24
40 37 39 36 37 34 36 36 33 31 35 35 33 31 30 28 29 29 30 31 33 35 33 32 32 34 31 30 31 32 32 32 33 33 30 29 28 28 28 27 28 28 27 27 33
37 37 38 36 35 32 34 34 31 33 31 32 32 32 32 30 31 30 30 30 30 33 32 34 32 35 31 28 30 34 31 34 36 36 35 35 34 36 35 31 28 30 30 33 34
43 41 39 36 32 30 31 31 32 33 36 36 33 33 32 34 36 35 36 36 34 33 32 34 35 33 28 30 32 32 36 37 38 38 36 32 33 33 32 34 37 39 38 38 40

GFSSW_sfc_dewp_030.txt.gz
Dewpoint
48 49 50 53 55 56 58 59 57 56 54 55 55 55 56 57 59 57 50 52 55 58 55 53 48 45 44 45 43 44 39 34 33 30 29 27 26 31 33 31 31 33 32 42 54
46 48 50 50 52 54 56 58 59 57 55 56 55 55 55 58 55 51 53 56 56 59 49 47 44 44 42 42 42 42 40 38 34 30 30 28 28 31 32 31 32 33 39 44 46
47 46 47 49 49 51 54 56 58 57 56 55 55 55 55 56 51 48 57 58 59 57 52 48 45 42 41 41 39 40 37 35 32 30 37 37 36 33 34 34 34 30 35 40 45
46 46 46 49 49 49 52 55 57 58 57 55 55 55 55 52 40 53 59 60 60 57 53 48 44 41 40 38 38 36 36 36 36 35 38 38 37 36 35 35 37 36 36 40 41
47 46 46 47 50 50 49 52 56 58 58 55 55 55 51 47 46 54 57 57 56 57 53 48 41 40 38 35 36 36 36 35 35 36 37 39 39 39 38 37 37 37 37 38 41
47 47 45 47 49 50 49 51 55 57 58 55 55 55 50 41 45 48 46 46 49 55 53 50 42 41 37 35 34 35 36 36 36 35 36 36 37 38 36 36 36 37 37 37 38
48 47 46 46 47 49 50 51 53 55 59 56 55 50 43 42 40 43 45 45 48 50 52 52 49 45 43 39 40 38 38 38 37 37 36 37 35 35 36 36 33 33 34 35 36
48 47 46 45 47 49 49 49 50 53 55 56 55 48 41 44 45 42 41 43 48 51 53 54 49 47 44 42 39 38 38 35 34 36 36 36 32 34 34 35 35 34 33 32 33
47 47 46 47 47 48 49 48 49 50 53 56 50 47 39 45 41 42 41 44 47 53 53 52 50 45 44 39 37 35 32 32 32 34 33 34 33 35 35 34 35 34 33 33 33
46 46 46 47 47 48 48 48 48 49 55 54 47 44 40 39 39 41 40 45 44 51 51 49 44 40 40 38 32 31 32 31 30 32 32 32 31 32 32 32 32 36 35 35 35
46 46 44 46 47 47 46 45 44 47 51 43 43 38 38 41 41 40 41 44 42 45 40 45 40 37 36 37 36 34 30 27 28 29 29 28 28 28 29 29 29 30 32 33 33
46 46 44 47 47 48 46 39 40 46 43 47 43 39 40 41 38 39 43 41 41 40 39 38 36 36 38 36 33 31 29 28 29 28 27 27 27 27 28 28 28 28 28 29 30
45 44 45 47 48 46 43 40 46 46 40 42 43 39 40 40 38 39 42 40 38 36 37 32 33 34 33 32 31 30 29 29 27 28 28 26 25 25 25 26 27 28 28 28 28
43 44 46 47 46 45 42 44 48 46 33 39 40 39 41 41 37 40 41 39 38 36 37 35 34 30 32 32 31 29 30 29 29 28 24 28 23 23 23 21 22 22 23 28 28
44 45 46 47 45 41 43 48 47 43 24 39 39 41 41 37 38 39 41 37 34 34 34 33 32 32 30 30 31 29 32 30 30 28 27 26 25 24 21 20 20 21 23 25 25
45 46 48 46 46 44 48 47 42 27 23 36 38 38 38 37 37 38 38 39 37 33 33 32 33 33 32 31 32 33 30 30 30 29 24 25 24 20 15 17 18 20 22 24 24
45 47 46 45 41 48 47 42 28 23 35 34 35 36 34 34 35 36 37 35 33 31 32 32 31 33 33 31 33 33 31 23 22 23 19 20 23 19 17 18 21 20 20 22 23
47 48 45 45 48 46 46 34 23 33 33 31 35 34 31 32 34 35 35 33 34 31 32 28 27 31 32 31 31 31 29 24 17 19 20 21 21 17 20 20 19 20 21 23 23
48 46 47 48 49 46 40 28 27 30 29 32 34 31 32 31 32 33 33 32 31 32 30 28 27 31 32 32 32 30 28 29 25 22 19 18 16 17 19 19 19 19 19 23 24
46 43 45 48 47 43 36 32 34 30 31 32 30 30 29 30 30 31 31 31 29 31 31 31 27 30 32 31 30 29 30 28 28 14 15 15 15 17 18 18 19 18 20 23 26
43 39 46 47 47 40 32 33 33 32 32 29 28 27 27 28 29 28 27 30 30 30 31 32 28 29 31 30 28 29 29 29 28 28 19 16 16 21 21 21 22 21 26 31 34
42 34 47 48 36 37 35 37 37 33 34 30 29 27 27 28 28 26 27 28 31 31 30 31 29 25 28 27 29 29 28 27 22 19 24 23 21 23 23 23 22 22 25 30 34
39 37 46 46 33 35 37 37 36 33 31 31 29 30 28 27 27 28 29 32 32 31 31 31 29 21 26 28 27 27 28 28 28 29 25 23 21 22 23 25 26 25 25 24 27
41 35 41 44 42 36 37 36 35 37 34 33 30 30 28 28 31 29 30 33 33 33 38 35 31 26 22 27 32 30 31 30 31 29 26 26 25 26 27 30 34 33 28 28 26
40 37 38 37 38 35 36 36 32 31 35 35 33 31 29 27 29 28 30 32 32 36 33 32 31 27 30 30 29 30 30 30 32 32 30 29 30 32 35 37 37 37 31 30 31
38 36 38 36 35 33 36 36 31 32 33 32 32 32 32 28 31 28 29 30 31 32 32 33 30 31 28 29 30 30 30 31 34 36 36 36 35 37 36 38 38 39 39 38 36
43 42 39 36 34 32 33 32 32 35 37 35 34 32 34 36 37 36 36 36 35 32 32 35 34 32 22 30 31 31 32 36 37 38 38 34 36 40 38 37 38 40 40 39 39

GFSSW_sfc_dewp_033.txt.gz
Dewpoint
48 48 48 48 51 52 54 55 57 59 57 56 55 56 55 56 57 56 53 55 56 61 56 53 49 48 46 43 44 42 37 35 36 35 33 31 30 30 33 30 32 33 40 49 56
48 48 47 47 47 50 51 53 55 57 58 56 56 55 55 56 54 52 55 58 59 59 54 49 48 46 42 42 42 40 39 38 37 35 32 32 36 32 31 31 32 33 43 47 55
48 48 48 47 46 50 51 50 54 56 58 57 56 55 55 55 51 48 57 59 59 59 52 49 48 44 42 41 40 39 39 40 40 37 36 38 37 37 33 33 31 31 38 44 49
48 48 47 48 47 46 50 50 51 54 57 58 56 55 56 53 38 53 60 59 59 56 53 51 47 43 41 40 40 37 38 38 39 38 37 37 40 39 38 35 38 37 37 38 42
49 49 48 47 46 47 49 50 50 54 56 58 57 55 53 48 46 54 59 59 56 57 54 52 46 42 39 38 38 36 37 37 37 37 36 38 38 38 39 39 39 38 38 38 39
49 48 47 47 47 45 47 49 51 53 54 57 57 56 51 43 46 53 53 55 56 56 54 53 46 42 39 38 35 35 36 38 38 38 37 36 36 38 38 38 36 35 35 37 37
47 48 48 47 46 46 48 49 50 51 53 55 58 53 45 42 41 47 47 47 50 55 52 53 51 45 43 39 41 39 37 38 38 38 37 37 35 35 37 37 36 35 34 34 36
48 47 47 47 47 47 48 49 49 49 51 53 57 50 43 45 44 42 42 44 45 51 54 54 50 46 44 42 39 37 38 35 37 37 37 36 32 36 37 36 36 36 36 35 34
47 47 47 47 46 47 48 47 48 49 49 52 54 48 40 48 44 42 41 41 47 52 54 53 51 47 43 39 36 36 32 34 35 35 36 35 33 35 36 35 34 35 35 35 35
46 47 47 47 46 47 48 48 48 47 48 50 50 43 43 40 42 43 41 43 48 52 50 50 47 44 42 39 32 33 33 32 32 32 33 33 33 34 34 33 32 32 34 35 34
46 46 46 45 46 47 46 44 39 43 44 45 43 41 41 42 41 42 41 45 48 49 44 46 41 39 38 38 36 35 34 30 29 30 28 28 28 28 29 29 29 29 30 31 35
44 44 44 45 48 48 48 40 38 43 36 44 43 42 41 41 38 40 43 41 42 40 39 41 37 39 38 38 38 35 31 29 29 30 28 27 27 28 28 28 28 29 29 30 31
44 44 45 47 48 46 43 41 47 44 35 42 44 42 41 42 38 39 43 41 41 39 38 35 33 38 36 34 32 30 30 29 28 29 29 27 25 25 26 27 28 28 28 29 29
44 45 46 47 45 45 41 45 46 43 30 38 42 42 41 42 39 41 44 40 39 37 37 35 34 31 33 33 32 29 30 30 30 27 24 27 22 26 24 23 23 26 27 28 28
45 45 46 47 44 42 44 45 44 41 18 39 42 43 42 40 39 40 43 39 36 36 37 35 34 32 30 32 32 30 32 30 30 27 25 25 22 24 26 21 22 21 21 26 29
46 46 47 45 47 45 47 43 41 26 18 35 40 39 39 38 38 40 39 40 38 36 35 32 33 33 33 32 32 32 30 29 29 27 16 24 23 21 19 18 18 20 20 23 25
47 48 47 46 43 47 45 41 23 17 33 33 36 37 36 36 36 37 37 36 33 31 30 33 32 33 33 31 33 32 26 16 15 21 17 23 25 22 20 19 20 20 20 21 23
49 49 47 46 49 47 43 34 18 29 33 38 35 35 34 34 35 36 35 32 34 31 28 24 21 31 32 31 30 31 27 18 14 17 20 22 21 21 23 23 22 20 21 21 22
48 46 46 49 47 46 38 24 26 34 35 36 35 31 34 33 34 34 34 32 31 32 27 26 26 32 31 31 32 31 25 28 23 22 15 20 18 18 18 18 19 20 20 21 22
41 43 43 48 45 42 36 32 33 37 35 32 31 31 30 31 32 32 31 32 30 31 32 31 27 32 32 32 33 28 30 24 21 10 14 17 17 15 18 20 21 21 26 33 33
41 39 43 47 47 39 31 32 36 37 35 31 30 30 29 29 31 30 30 31 31 31 32 31 29 28 33 29 28 29 28 28 26 23 17 18 18 19 20 23 22 22 24 28 34
38 34 42 47 35 36 32 34 40 36 36 33 29 30 28 29 30 27 28 28 31 31 29 31 30 24 26 29 31 29 28 27 20 15 22 19 20 22 23 24 25 26 30 36 31
39 38 44 44 33 33 38 38 39 34 33 32 30 30 30 28 25 27 30 31 33 32 31 31 27 16 27 27 29 28 29 28 28 28 23 22 21 23 25 26 27 29 35 39 39
40 33 38 42 40 37 36 36 35 37 35 32 29 29 29 29 29 28 30 32 33 34 39 34 30 21 20 25 29 23 30 29 29 27 25 24 24 26 27 29 34 38 38 37 39
37 35 38 29 33 36 38 37 33 32 34 34 32 29 29 29 28 29 32 31 32 37 32 32 27 24 28 30 30 28 29 30 30 29 29 26 28 30 34 38 40 39 39 39 42
37 36 36 36 35 34 36 34 34 35 35 33 32 34 33 31 31 28 31 31 31 32 31 32 24 32 28 30 31 29 30 30 31 30 31 32 34 37 38 42 39 39 40 39 40
42 42 40 35 33 34 33 34 34 36 35 36 34 37 36 38 38 36 35 35 33 32 31 34 33 24 18 27 30 30 31 31 34 36 36 35 38 40 40 41 40 40 40 40 40

GFSSW_sfc_dewp_036.txt.gz
Dewpoint
48 48 48 48 47 47 50 52 53 55 56 60 56 55 56 56 56 55 50 53 55 58 56 53 50 49 47 44 43 41 37 35 35 33 32 34 32 33 31 30 32 34 48 52 56
49 49 48 47 49 46 46 49 51 52 55 57 58 56 56 55 53 50 55 59 59 59 56 52 49 47 44 42 42 39 37 37 37 37 35 34 37 36 31 30 31 41 47 55 56
51 50 49 50 48 48 48 49 51 51 53 55 59 57 56 55 49 46 56 60 60 58 53 54 49 45 43 41 40 39 38 38 40 40 39 37 37 39 35 31 33 36 46 51 55
51 51 50 49 48 47 46 46 49 50 51 55 58 57 56 53 37 49 58 59 60 56 52 50 48 45 41 40 40 37 38 39 40 40 39 36 38 39 38 35 40 40 39 39 45
50 50 49 48 49 48 47 46 47 49 51 54 56 57 53 46 44 49 58 59 56 55 52 50 47 44 40 40 40 38 37 38 38 39 37 37 37 38 39 40 40 38 38 37 38
49 49 48 48 48 48 46 46 48 50 51 53 54 57 49 40 46 51 56 55 54 55 53 52 49 45 40 39 39 37 37 37 38 38 38 36 36 36 38 39 38 37 37 36 37
48 48 48 48 47 47 47 47 48 49 49 50 53 54 46 39 44 50 55 55 56 55 53 54 53 44 41 40 38 39 36 38 37 38 38 37 35 35 37 37 37 36 37 37 36
47 47 47 47 47 46 47 48 47 48 49 50 50 53 42 45 45 43 44 46 50 55 54 54 53 46 43 42 39 37 37 34 35 36 36 36 31 35 37 36 36 36 37 37 37
46 46 46 47 47 46 47 48 48 48 48 48 47 50 39 51 44 42 42 43 44 52 55 53 51 46 42 38 35 35 31 34 35 37 36 35 33 35 35 35 35 35 35 35 36
46 46 46 46 46 47 47 48 47 47 46 46 46 43 43 41 44 43 42 42 48 52 51 49 48 44 42 37 31 32 32 32 32 33 33 33 34 35 35 35 35 34 33 34 36
45 44 45 45 47 47 47 45 36 39 44 37 41 41 41 43 44 43 42 41 51 48 44 46 42 40 40 38 36 34 34 32 31 31 28 27 28 28 29 29 29 29 30 32 32
44 44 45 46 47 47 46 40 38 40 35 38 40 42 42 41 40 42 42 43 45 42 44 41 39 41 42 42 40 37 31 30 30 31 29 28 27 28 28 28 29 29 29 29 30
44 45 46 46 47 46 42 40 45 42 35 37 39 41 39 41 39 40 41 42 41 40 39 37 37 40 40 38 37 31 29 29 29 29 28 27 21 23 26 27 27 27 28 29 29
44 45 46 46 44 44 40 46 45 42 30 35 40 44 41 42 38 42 44 41 40 38 36 36 33 39 38 37 31 29 30 30 29 27 24 27 22 25 25 24 24 23 27 28 29
46 47 48 48 44 42 44 46 43 41 19 37 41 44 42 40 39 41 44 39 37 37 35 33 34 31 32 33 32 30 31 29 29 27 24 25 22 23 24 23 21 22 22 22 26
49 49 49 47 46 45 45 43 41 25 20 33 40 38 38 38 39 42 40 39 39 37 34 32 34 33 31 32 32 32 29 28 29 26 16 22 23 19 19 19 19 18 19 21 22
49 48 46 47 43 47 46 38 21 18 31 32 37 37 36 36 38 39 37 35 35 33 33 33 32 33 33 31 33 29 25 17 14 19 17 23 24 23 23 22 20 21 21 21 23
47 47 48 47 47 46 42 34 17 25 28 37 36 36 35 35 37 37 35 33 34 31 29 27 27 30 32 31 30 29 25 17 11 15 19 23 22 19 24 24 20 20 21 22 22
46 44 46 48 47 45 38 24 24 31 35 35 33 33 33 35 36 35 34 32 32 31 26 25 26 32 32 32 31 30 25 27 22 20 15 20 19 16 19 19 21 21 31 33 33
41 40 43 48 46 42 35 30 32 37 37 33 31 31 30 32 33 33 31 32 31 32 32 29 26 32 32 33 33 29 30 23 18 7 11 16 17 15 16 21 22 23 25 28 31
39 36 41 47 47 39 31 31 37 38 36 32 32 29 30 29 30 29 28 31 31 31 31 30 26 27 33 28 28 29 27 27 25 20 15 17 18 19 19 22 23 25 26 29 34
37 28 42 45 35 34 32 36 39 38 38 34 31 30 28 31 29 28 29 29 32 32 29 30 29 20 28 29 30 29 28 26 17 12 20 18 21 23 23 25 25 27 30 33 37
35 35 43 42 34 35 37 38 39 37 34 32 30 30 30 29 27 27 29 31 33 32 30 30 24 17 24 26 29 28 29 28 27 27 15 19 20 24 25 26 29 35 39 40 40
36 28 35 41 37 33 35 35 34 36 34 31 30 30 29 28 28 30 29 32 35 34 40 34 28 21 19 22 26 21 28 29 27 22 22 23 23 25 26 31 36 40 42 40 41
36 36 36 29 33 35 35 35 33 34 35 33 29 29 31 29 29 30 31 31 33 37 35 30 21 21 26 28 28 27 28 29 26 27 23 24 26 29 31 33 40 43 41 41 40
35 36 38 35 36 32 35 33 34 35 35 33 34 34 32 33 32 29 31 30 29 32 30 31 24 27 25 28 30 26 29 29 29 28 28 28 29 32 36 40 40 39 39 39 41
42 41 40 35 33 32 32 33 34 34 35 38 35 36 37 38 38 36 33 32 31 30 31 30 28 27 23 26 28 27 30 30 31 32 31 33 36 39 39 40 38 38 36 30 31

GFSSW_sfc_dewp_039.txt.gz
Dewpoint
52 51 50 50 49 48 50 47 47 51 52 54 56 59 56 56 56 54 49 51 55 59 59 54 52 50 47 45 43 41 37 35 33 32 32 34 33 35 34 30 32 34 48 50 56
52 52 52 52 51 50 50 48 47 49 51 52 54 58 57 57 53 50 52 56 58 57 56 50 48 47 45 43 42 39 36 36 37 36 35 35 37 37 35 32 30 40 51 56 57
50 50 51 51 50 50 49 48 46 46 48 50 52 57 58 55 46 45 53 57 59 58 57 54 49 46 43 41 41 40 37 37 39 40 40 38 37 39 37 34 33 34 41 47 56
48 49 49 50 50 49 49 49 47 46 47 49 52 55 58 51 32 45 55 56 60 57 54 51 48 44 42 40 40 38 39 40 40 40 39 37 37 38 38 37 40 40 39 38 48
48 49 49 49 49 48 49 48 47 46 47 50 52 55 54 45 43 46 55 57 56 56 53 50 46 44 41 40 40 38 38 39 39 39 38 38 36 37 38 39 40 39 38 37 37
47 48 48 48 48 48 48 47 48 46 48 50 52 53 51 38 43 45 46 54 54 54 52 50 47 45 41 39 39 39 38 38 38 37 38 36 36 36 37 39 39 38 38 37 37
47 47 47 47 48 47 47 47 47 47 48 50 50 49 49 41 43 46 53 54 56 54 52 52 50 44 42 39 39 38 36 37 38 38 37 38 35 36 37 37 36 36 36 37 36
47 47 46 46 47 47 47 48 48 48 48 49 49 48 45 47 45 42 52 54 57 56 54 54 53 46 43 41 39 37 36 33 35 37 37 35 31 33 37 36 36 36 36 36 37
46 46 45 46 46 46 46 47 47 48 48 48 45 46 42 49 43 41 43 47 51 54 55 53 50 45 42 37 35 35 31 33 34 36 35 35 33 35 35 34 34 34 34 35 36
46 45 44 44 45 47 48 48 48 46 45 45 45 44 45 41 42 42 42 45 49 52 51 50 48 42 39 37 30 33 31 32 32 32 34 34 34 35 36 36 35 35 35 35 35
45 44 45 45 46 47 47 43 37 38 42 35 38 39 42 44 44 43 41 45 51 48 45 47 43 39 39 38 35 33 33 32 33 32 29 28 28 28 29 29 29 30 31 31 32
44 44 45 46 46 47 46 39 39 40 34 39 39 41 43 44 40 43 42 42 45 42 44 43 39 42 42 42 40 38 34 32 31 31 29 28 27 28 28 28 29 29 29 29 30
46 46 46 46 47 45 42 40 44 42 34 35 35 40 42 42 40 41 40 44 43 43 41 37 39 44 40 41 39 38 32 30 29 29 28 27 23 23 24 26 27 28 29 29 29
49 49 48 47 45 44 39 44 45 42 22 33 37 41 44 42 39 42 42 43 42 39 39 37 36 40 40 39 37 30 30 30 29 27 25 27 22 25 24 25 25 25 24 28 29
49 48 48 48 45 41 44 46 42 41 17 37 39 46 42 38 40 41 47 41 38 39 38 36 35 39 38 37 32 31 31 29 29 26 23 24 22 23 22 20 20 21 22 23 22
49 49 48 44 45 45 45 44 40 26 20 32 41 40 38 39 41 43 43 41 41 36 34 35 34 33 31 33 32 32 28 26 28 25 16 21 21 19 17 18 19 20 22 22 22
48 49 47 47 41 46 44 38 25 20 32 32 35 36 36 37 39 39 37 37 37 33 33 33 32 33 34 31 32 28 24 16 12 16 15 24 23 21 22 23 23 24 22 26 28
48 48 48 46 46 44 42 31 18 29 29 36 36 35 34 36 38 37 35 34 34 33 31 28 27 31 32 31 30 28 25 17 8 13 17 23 22 19 23 24 21 29 30 32 33
46 43 46 46 47 45 38 25 27 30 33 36 34 33 34 36 37 37 34 34 32 30 28 24 26 32 32 32 31 30 23 26 21 18 14 20 19 14 21 22 23 25 26 27 29
40 41 42 47 47 41 33 32 33 37 35 33 30 32 30 33 34 35 32 32 31 32 31 28 26 31 32 32 32 29 30 22 17 6 10 13 17 14 16 18 23 24 26 27 29
38 34 42 46 44 39 30 32 37 38 38 32 31 29 30 30 31 29 29 30 31 31 31 29 27 30 32 29 28 29 27 26 25 20 15 15 14 20 19 23 24 25 28 32 37
36 27 41 45 36 35 34 37 38 38 38 32 31 30 29 29 28 28 28 29 32 32 29 30 28 27 28 29 30 29 27 26 15 13 19 20 20 25 24 25 27 29 35 39 41
34 34 41 41 33 30 36 38 39 38 35 31 30 30 30 29 26 28 30 32 33 31 30 29 23 17 23 25 29 28 28 27 25 22 11 15 19 24 25 26 29 34 39 42 42
34 29 34 37 36 32 33 34 33 35 33 31 30 30 28 28 28 29 29 33 34 32 38 33 26 20 18 21 26 22 28 28 24 20 20 22 23 23 25 27 32 40 41 41 41
36 35 37 29 33 33 33 34 33 34 34 32 29 29 29 29 30 30 30 31 34 39 34 30 22 22 26 27 28 26 27 28 23 26 22 23 24 25 27 30 35 40 39 39 38
35 37 38 36 34 33 33 32 33 34 34 32 30 34 33 32 31 30 30 29 29 31 32 29 25 26 24 28 29 25 28 28 29 28 28 28 27 29 30 37 41 38 38 36 32
42 41 39 33 32 31 31 32 33 34 36 38 36 36 37 38 37 34 31 31 30 30 30 29 27 23 21 25 28 24 28 29 29 30 28 27 30 33 38 41 38 38 36 32 30

GFSSW_sfc_dewp_042.txt.gz
Dewpoint
51 51 51 51 52 53 51 51 51 46 47 49 52 53 57 59 57 54 51 51 53 58 59 53 55 53 47 44 42 42 37 34 32 32 32 34 33 35 35 32 31 33 41 49 60
51 50 49 49 50 51 52 51 50 49 46 47 49 51 54 58 54 51 52 56 57 57 54 52 52 47 45 43 42 39 37 36 36 34 32 36 36 37 36 35 32 37 50 57 64
49 49 49 50 49 50 50 50 49 49 47 47 47 50 52 56 48 45 55 56 57 56 55 52 50 46 43 42 41 40 36 37 38 38 39 38 38 38 36 34 33 35 37 46 56
49 48 48 48 49 49 50 50 50 50 48 47 47 49 54 54 38 41 51 55 57 54 55 52 47 45 43 40 41 38 39 38 39 40 40 37 37 37 37 36 38 40 41 38 45
48 47 48 48 48 48 49 49 49 49 48 47 48 50 53 47 42 48 54 55 51 54 54 51 46 43 40 41 39 39 38 39 40 39 39 38 36 36 37 39 39 40 39 38 37
47 47 47 47 47 47 48 48 48 48 47 47 49 51 49 42 45 45 44 53 50 55 53 50 47 44 41 40 38 39 39 39 38 38 37 36 36 36 36 38 38 39 38 38 38
47 47 46 46 46 46 47 47 47 47 47 47 49 49 47 43 47 46 46 53 52 55 53 51 48 44 41 39 40 38 36 37 37 37 37 38 35 36 37 37 36 36 38 37 37
48 47 47 46 46 47 47 47 47 48 48 47 48 47 42 49 51 50 50 54 55 55 52 53 50 45 41 41 38 37 36 33 35 37 37 35 30 34 35 36 36 36 36 36 37
48 48 46 45 44 46 47 47 48 48 48 47 45 43 40 48 47 45 46 54 55 55 54 51 49 45 42 37 35 35 30 33 34 36 35 35 33 35 36 35 35 35 35 35 35
47 44 43 45 45 47 47 48 47 45 44 45 44 39 43 41 43 43 48 52 51 51 50 48 47 42 40 36 30 32 30 32 32 32 35 34 34 34 33 35 36 36 36 36 36
47 46 45 45 46 47 46 43 38 36 40 34 36 37 42 46 47 45 44 49 51 49 44 46 43 38 38 38 34 34 32 31 33 32 30 30 29 29 30 30 29 30 30 30 31
49 49 49 46 46 47 45 38 37 40 32 39 37 38 42 46 40 43 45 44 45 42 45 43 38 40 41 38 38 36 33 31 32 31 29 28 27 28 29 29 30 30 30 30 31
49 49 49 49 46 44 42 40 43 42 33 35 36 40 41 44 41 41 42 45 43 42 41 37 41 43 40 40 38 38 34 31 31 29 28 27 26 23 24 25 25 26 28 29 30
50 50 48 48 43 44 40 42 45 41 26 30 34 41 43 43 40 42 43 45 42 40 40 37 43 40 40 39 40 34 31 31 29 27 25 27 22 25 25 23 23 22 22 25 24
50 50 48 48 43 40 44 44 43 40 3 32 38 47 45 38 41 41 47 42 40 39 39 37 39 41 39 38 38 35 31 29 28 26 23 24 22 21 20 18 19 20 23 25 26
49 49 47 43 44 45 46 42 40 21 16 33 40 38 40 39 41 43 44 43 41 39 37 37 36 36 35 36 35 31 27 27 28 24 16 20 19 13 15 19 21 23 26 30 32
48 48 47 46 41 44 42 37 22 16 31 32 34 38 36 37 38 39 40 38 37 33 33 36 35 33 33 32 32 29 27 18 13 13 14 24 22 17 22 24 24 24 28 30 31
49 47 47 46 46 44 42 29 15 27 24 37 36 36 36 36 37 38 37 35 34 34 32 28 29 31 32 30 29 27 24 18 8 12 16 23 21 17 22 23 24 28 27 28 29
46 42 44 45 47 46 37 26 27 30 34 37 35 35 35 36 36 37 34 33 32 31 28 26 28 32 32 32 30 29 22 25 20 18 13 18 18 12 20 22 23 25 27 28 30
39 41 42 45 46 40 35 33 35 37 35 33 30 32 31 35 36 35 32 33 31 32 30 27 26 31 31 32 31 29 29 21 16 7 7 10 15 10 17 20 25 26 27 28 33
38 33 39 45 42 37 31 33 36 38 36 31 30 30 31 31 32 32 29 32 31 31 31 28 28 30 31 28 28 28 27 25 23 19 13 12 8 19 19 23 25 27 28 32 39
35 30 40 43 36 36 33 35 38 37 37 31 30 29 29 29 28 28 27 28 32 31 29 29 28 25 28 29 30 29 27 24 15 13 20 18 17 24 23 24 26 28 33 42 42
34 33 40 40 31 29 34 36 38 35 33 30 29 30 30 27 25 28 29 32 33 30 29 28 24 17 23 25 28 28 28 26 24 21 13 14 15 24 25 25 27 30 39 41 40
34 28 34 36 36 31 32 32 32 35 32 31 30 29 28 28 29 29 28 34 33 32 38 31 25 21 17 21 26 23 28 27 24 17 20 21 21 23 24 26 28 31 40 39 39
35 34 36 31 31 32 32 33 32 33 34 32 29 28 30 28 30 29 30 31 34 39 33 30 21 21 25 26 27 26 27 28 22 25 20 21 24 24 26 28 30 37 39 38 36
36 36 38 34 33 31 32 31 32 34 33 31 30 34 33 30 29 29 29 30 29 31 31 30 26 26 22 28 28 26 28 28 28 27 26 27 26 28 29 30 37 40 38 36 33
41 41 39 33 31 30 30 32 32 34 36 37 36 36 36 37 36 33 31 31 30 30 29 29 27 21 17 25 27 24 28 28 28 29 28 26 27 28 31 37 40 38 37 34 31

GFSSW_sfc_dewp_045.txt.gz
Dewpoint
52 51 50 50 50 50 50 51 52 52 51 48 46 48 51 53 56 55 50 51 53 58 57 55 57 56 47 45 43 42 39 34 34 32 32 33 31 35 35 33 32 35 41 51 58
50 50 49 49 49 49 50 50 51 51 51 49 47 47 48 52 51 51 52 56 56 56 53 52 54 49 46 43 42 41 38 36 36 35 33 34 35 37 36 36 34 38 41 60 63
49 49 49 49 48 49 49 49 50 50 50 50 48 47 47 50 49 49 58 57 57 56 52 54 53 48 44 43 42 40 36 38 38 36 37 38 38 38 36 35 35 35 39 52 61
49 48 48 47 48 47 47 48 49 49 50 50 48 47 47 50 40 43 54 58 57 53 54 52 50 46 43 41 41 38 39 38 39 41 40 39 38 37 38 37 37 41 40 39 58
48 49 48 47 47 47 47 48 48 48 48 48 48 46 46 47 45 48 51 50 53 52 51 50 48 46 43 41 40 39 38 39 40 39 39 39 37 37 37 39 39 40 40 39 38
48 49 48 48 47 46 46 46 47 47 47 47 47 48 46 42 48 51 46 48 51 51 52 50 47 45 42 41 39 40 39 38 39 38 38 37 37 37 37 38 38 39 39 39 39
47 48 48 47 46 46 46 47 47 47 47 47 47 47 44 43 47 52 47 50 50 52 52 51 47 44 41 40 41 39 38 38 38 38 37 38 35 36 37 37 37 37 37 39 39
46 48 48 45 45 44 46 46 46 47 48 46 46 46 39 47 52 50 50 50 51 55 54 53 48 44 42 40 39 38 36 34 35 38 37 35 30 34 36 37 37 37 36 37 38
49 49 47 44 45 45 47 47 48 48 47 46 44 42 38 50 47 48 51 47 51 54 54 53 49 46 42 37 36 36 32 33 34 38 36 34 33 35 36 36 35 35 35 36 36
50 50 49 47 45 46 47 48 47 45 44 45 43 38 40 42 46 45 47 51 51 52 49 48 46 42 40 36 30 32 32 33 31 32 35 35 35 36 34 32 34 34 35 36 36
50 50 49 49 46 46 46 42 35 35 39 33 34 34 42 47 47 45 46 52 48 47 43 45 41 36 39 37 33 33 32 32 33 32 31 32 31 31 31 31 31 31 31 31 32
50 50 50 49 47 45 44 36 35 39 31 38 37 36 38 40 42 43 48 47 47 41 44 43 37 38 40 37 34 34 33 32 33 31 30 29 28 29 30 31 31 31 31 31 31
50 49 49 48 47 44 41 39 43 40 31 35 38 39 38 45 43 41 46 47 44 39 36 38 39 40 39 38 37 36 34 33 32 29 28 28 27 26 26 25 25 24 24 26 27
50 49 49 48 43 43 39 44 44 40 18 29 34 40 42 44 41 43 44 45 43 37 37 37 44 40 39 37 38 36 32 31 29 29 26 27 23 24 24 21 22 26 28 29 30
49 49 48 47 42 40 44 44 42 38 12 30 37 45 45 40 41 42 47 43 40 38 39 36 41 40 38 38 39 34 32 29 28 27 26 24 23 20 19 19 21 25 28 31 32
50 48 48 45 44 44 44 42 39 17 18 32 39 39 39 39 42 43 44 43 42 38 38 37 38 39 39 37 39 31 27 27 27 25 23 21 21 13 16 20 22 25 28 30 31
50 48 46 46 41 45 42 37 18 18 29 32 34 37 36 37 38 39 40 38 37 33 33 36 36 34 38 37 33 29 31 24 19 20 21 24 22 18 21 24 24 26 27 29 31
49 46 46 45 45 46 43 27 18 29 30 37 38 37 36 37 37 38 38 35 33 35 32 30 30 33 32 33 35 28 27 24 14 13 15 23 21 18 22 23 27 28 27 30 33
46 42 44 44 47 46 38 29 27 25 34 37 35 33 34 36 36 37 34 33 32 32 30 28 29 32 32 33 31 29 27 25 21 19 18 16 19 15 20 23 25 27 31 32 34
38 37 39 44 45 41 34 33 35 37 35 32 30 31 30 33 35 35 34 33 31 31 30 29 28 31 32 32 31 29 28 24 22 15 11 7 11 7 15 22 25 27 29 31 37
37 34 38 44 42 36 31 33 36 38 35 31 30 30 31 30 32 32 29 33 32 31 30 29 29 31 32 29 28 28 27 25 23 20 12 6 4 18 20 24 26 27 29 35 42
34 31 39 42 34 35 34 36 39 36 35 31 30 30 29 29 28 29 27 30 32 31 29 30 30 29 29 29 30 29 27 23 20 16 20 19 14 22 20 24 26 27 31 41 41
33 33 39 39 28 26 32 34 37 33 31 30 29 30 30 27 26 28 29 32 33 31 29 28 25 23 26 27 29 28 28 25 23 22 20 17 11 24 25 25 26 28 34 40 39
32 26 33 36 34 30 30 31 32 35 31 31 29 29 28 27 29 28 28 34 34 33 36 31 26 22 18 22 27 25 28 26 25 21 20 20 19 21 22 26 28 31 37 40 38
34 33 36 31 31 31 30 32 31 32 33 31 29 28 29 27 29 28 30 32 34 38 32 29 22 22 25 27 27 27 28 27 24 25 23 19 22 23 25 27 30 32 40 38 34
34 34 37 34 32 28 30 30 32 33 34 30 29 32 31 28 27 28 30 30 30 31 30 29 28 26 23 28 28 27 28 28 28 27 26 26 26 28 28 30 32 40 38 36 32
41 41 38 32 29 28 29 30 32 33 36 37 35 34 34 36 35 33 31 31 31 30 29 29 27 21 18 25 27 25 28 28 28 29 28 26 27 29 29 33 38 39 36 34 31

GFSSW_sfc_dewp_048.txt.gz
Dewpoint
50 50 49 50 50 50 49 50 50 51 52 53 50 48 48 49 53 51 52 50 51 57 57 51 52 56 47 44 44 44 35 33 35 34 32 32 31 32 33 29 31 33 37 51 55
50 50 49 49 49 48 48 48 49 50 50 51 51 48 47 48 46 46 51 56 56 56 53 48 52 53 44 42 41 36 33 30 33 34 32 32 30 32 33 33 32 34 42 57 61
50 50 49 50 48 48 47 47 48 48 49 50 51 49 47 44 43 43 56 59 58 55 51 49 51 50 44 43 39 36 31 31 36 34 34 33 33 35 31 33 30 31 39 52 60
50 50 49 49 48 48 47 47 47 48 49 49 50 49 46 41 36 47 55 59 58 53 50 49 51 48 43 40 38 35 33 34 37 39 38 35 35 34 33 31 36 39 40 40 56
49 47 48 49 49 48 47 47 46 48 48 48 48 49 44 39 39 47 51 48 55 52 49 48 47 47 41 40 40 36 37 36 36 39 39 38 36 34 35 36 38 39 40 39 39
47 47 48 49 48 47 46 46 46 46 47 48 48 48 43 36 41 49 49 47 50 51 49 48 44 45 42 41 38 37 37 36 36 38 38 37 37 37 35 36 36 36 36 36 38
50 50 49 48 46 45 45 46 46 46 45 47 47 45 41 35 47 51 50 47 50 49 49 50 46 45 43 41 41 39 36 35 37 35 34 37 34 35 34 33 33 31 32 36 37
51 50 50 49 44 44 45 47 48 47 47 46 47 43 36 40 46 51 51 47 51 49 51 51 49 44 41 41 39 36 34 32 31 36 37 35 24 31 34 34 33 32 31 33 36
51 50 50 50 46 45 46 47 48 47 46 44 42 41 33 46 46 49 49 45 49 49 52 52 48 43 41 37 34 33 23 26 29 36 32 34 25 29 31 33 32 32 32 33 35
50 50 50 49 49 45 46 48 45 44 44 42 39 37 36 39 46 47 49 49 47 48 50 48 46 41 38 33 24 27 25 28 25 32 36 34 29 32 34 35 34 32 32 32 33
50 49 49 49 48 44 46 42 36 36 38 31 32 34 39 45 46 45 48 50 47 48 40 44 42 38 36 34 30 29 27 24 29 31 31 31 31 32 33 33 33 32 31 32 32
49 49 49 49 49 48 45 37 35 38 30 37 35 35 38 42 42 44 49 46 44 38 42 42 38 36 36 36 34 30 27 26 33 31 31 30 30 31 32 32 31 29 29 29 30
49 49 49 49 48 45 41 40 43 40 32 32 35 36 42 43 40 42 47 45 40 38 41 38 36 36 38 36 33 32 29 31 29 31 29 29 27 27 26 25 28 28 26 27 30
50 50 48 46 43 44 41 45 43 40 31 30 37 40 43 44 41 45 49 46 39 37 38 38 41 36 33 34 32 31 35 34 32 31 25 28 18 24 21 25 27 29 31 33 36
51 49 47 47 44 41 44 44 43 40 22 31 38 44 44 40 40 45 50 48 37 38 40 37 40 38 35 34 34 33 33 32 30 30 29 26 25 20 20 21 25 28 32 35 38
49 49 46 45 44 44 44 43 40 31 22 33 38 38 37 41 41 43 43 43 43 40 39 38 43 41 39 40 37 31 29 29 29 29 30 26 23 14 17 19 25 28 32 35 37
49 49 45 45 40 45 45 40 32 26 33 33 36 37 37 38 38 39 39 38 36 35 35 37 37 39 39 36 37 35 34 31 30 30 25 23 21 16 20 22 25 30 33 35 38
49 46 45 44 46 46 44 35 27 30 32 37 37 36 35 38 37 38 37 34 34 35 36 33 30 34 37 37 36 37 37 30 20 16 15 22 19 16 22 22 26 29 32 34 39
46 45 46 45 47 47 40 32 30 33 35 36 33 32 34 34 35 37 36 33 32 34 32 33 32 32 32 32 33 33 34 25 24 20 21 16 18 18 21 24 26 31 34 36 40
45 42 42 45 46 43 40 34 36 37 36 32 29 31 28 31 32 34 36 33 31 31 30 31 30 31 31 31 31 30 28 28 31 22 17 11 9 11 22 23 25 30 33 36 40
43 40 42 45 47 42 34 35 35 37 35 30 30 30 30 30 32 30 30 33 31 30 30 31 30 31 32 30 28 28 28 26 24 22 14 2 2 15 19 23 25 26 32 37 41
42 41 43 46 42 41 38 37 39 35 33 31 32 32 29 31 30 29 28 31 32 30 28 30 32 30 30 29 30 29 27 23 25 23 23 22 12 21 21 24 25 27 33 38 41
40 39 43 45 39 38 35 34 37 32 31 29 29 30 30 29 28 28 28 32 32 30 29 29 31 28 28 28 30 30 28 25 24 27 27 19 11 24 24 25 25 31 34 39 40
40 38 41 40 38 35 33 33 32 35 31 30 29 29 28 27 29 28 28 33 33 33 35 32 27 29 22 25 31 32 29 27 31 29 21 19 15 21 23 24 31 33 34 40 38
39 34 35 38 37 34 34 34 32 30 33 31 29 27 27 26 28 27 31 32 34 36 31 30 33 30 26 28 29 29 28 28 29 28 30 20 20 18 22 28 31 32 39 39 37
36 34 36 34 34 33 33 33 33 34 35 29 28 31 30 26 25 27 30 30 29 32 30 31 31 30 26 28 28 29 28 28 28 27 26 26 25 26 28 30 32 37 39 38 35
41 40 38 34 32 32 32 32 33 34 37 37 32 32 31 34 35 33 31 31 31 30 29 30 32 30 26 25 27 26 27 27 28 28 27 26 26 28 28 30 34 40 38 35 33

GFSSW_sfc_dewp_051.txt.gz
Dewpoint
51 51 51 51 50 50 49 48 48 49 50 51 52 53 49 48 49 46 48 52 52 55 56 47 49 54 52 46 44 43 39 36 35 33 32 32 32 33 31 28 28 27 32 50 53
50 50 50 51 50 49 48 48 48 48 48 50 51 52 50 48 41 39 48 58 57 54 52 43 48 52 46 43 42 39 38 35 34 33 34 33 32 29 31 28 27 30 39 54 55
50 50 50 49 49 50 49 48 47 47 48 49 50 51 50 46 38 32 50 58 59 55 52 45 46 50 43 41 39 36 30 33 31 34 35 33 31 28 30 27 27 29 33 48 56
50 48 48 48 48 49 49 48 47 47 48 48 49 50 50 42 28 28 54 57 59 54 50 45 44 47 42 39 38 34 32 28 32 35 36 32 30 29 31 29 30 32 38 38 50
48 50 51 50 50 49 48 47 47 47 47 48 48 49 45 39 33 46 55 57 55 53 46 45 40 44 40 38 35 34 32 32 34 38 37 32 30 29 30 33 36 37 38 36 37
50 51 51 51 50 49 47 46 46 47 47 47 47 48 42 37 35 37 50 49 54 52 43 44 40 42 40 37 35 36 34 34 34 37 38 36 33 34 34 34 34 35 35 33 34
51 51 51 50 49 47 45 45 46 47 46 45 46 44 40 35 38 47 51 47 49 51 42 42 40 42 41 39 38 37 32 34 33 34 35 37 33 34 35 33 33 31 32 33 32
51 50 50 50 49 47 45 46 46 47 46 46 45 42 37 37 37 44 51 48 48 52 45 46 44 41 41 41 39 34 34 31 31 34 34 34 27 29 33 32 31 29 28 28 29
51 50 49 49 49 47 45 46 47 47 46 44 41 40 32 42 40 41 49 44 50 52 46 49 49 43 41 36 35 34 26 27 26 30 33 34 25 26 30 31 29 28 28 28 29
51 50 50 49 48 47 44 46 45 45 44 39 37 36 33 34 41 47 50 48 50 47 49 49 46 41 37 32 25 26 25 22 21 31 30 30 29 26 30 31 29 28 28 29 29
50 50 49 49 48 45 45 41 38 37 38 32 32 33 36 43 47 47 49 49 47 44 40 45 40 36 33 30 25 23 23 19 22 31 31 28 27 27 29 30 30 29 28 27 27
50 50 49 48 48 46 43 35 36 39 30 34 32 33 37 44 44 47 51 46 40 38 41 42 38 35 33 30 29 28 23 23 28 30 29 24 28 29 29 29 29 29 30 30 30
50 49 48 47 45 44 40 40 42 39 32 32 35 37 41 43 41 44 46 45 36 36 37 37 37 38 35 31 29 27 25 22 25 31 30 29 27 27 27 28 27 27 26 25 27
49 50 48 47 44 42 39 43 42 41 34 32 37 40 44 45 41 47 48 44 40 38 37 37 42 38 34 31 29 26 29 28 31 29 19 28 10 26 25 26 27 29 30 31 34
49 49 48 47 42 40 42 43 42 41 22 35 37 45 46 41 42 42 48 43 38 38 40 36 39 37 34 32 30 31 35 33 32 30 29 27 24 21 22 24 25 28 32 35 37
49 49 48 45 43 41 43 43 40 32 24 33 39 38 38 41 42 44 45 44 42 37 38 39 41 40 36 36 34 34 32 32 32 30 30 28 22 19 18 20 24 28 31 35 37
48 50 47 43 40 44 45 41 33 28 35 34 36 36 38 37 40 40 39 39 37 33 34 35 35 40 40 35 34 33 33 31 30 31 25 24 24 19 19 20 24 28 31 35 38
49 48 46 42 45 46 45 37 29 33 34 38 38 35 36 35 37 38 36 35 37 35 36 33 30 35 39 37 35 34 33 30 21 23 23 21 20 17 21 23 28 31 34 36 39
49 44 45 45 46 46 42 33 32 35 36 34 32 30 33 33 37 38 35 32 32 33 32 32 33 36 38 39 38 36 35 27 23 18 19 16 16 21 21 21 26 32 35 37 39
43 41 43 45 46 44 39 34 36 37 36 32 28 30 28 30 32 33 34 33 32 33 31 31 30 31 31 33 31 36 34 32 33 26 17 15 12 12 19 22 27 30 32 35 40
43 40 44 44 47 42 35 36 34 35 34 31 29 27 28 29 30 29 30 32 31 30 31 31 30 31 32 31 29 29 29 28 27 24 19 8 6 16 21 24 25 25 32 36 40
43 42 44 47 44 44 40 35 38 33 33 31 32 30 28 30 29 28 29 31 31 29 28 31 32 30 30 29 30 29 27 27 27 25 24 23 15 16 22 24 26 25 33 38 41
38 37 44 45 40 39 35 33 34 31 30 29 29 30 30 28 27 28 29 33 32 30 29 30 32 29 28 29 30 30 29 27 25 30 30 21 16 20 22 24 25 31 35 37 40
38 39 42 40 39 34 31 30 31 35 31 30 29 29 29 27 28 29 29 33 33 32 35 33 28 30 26 28 31 33 29 29 31 31 23 18 16 21 23 22 30 33 34 38 39
37 35 35 39 37 35 35 32 30 29 32 30 28 27 27 26 26 27 30 31 32 34 31 30 33 32 26 27 30 30 29 28 31 28 31 21 17 21 21 25 31 33 36 39 38
35 34 35 34 34 34 33 32 31 32 32 28 28 27 26 24 24 25 28 28 28 31 29 31 32 32 28 26 27 30 28 28 28 28 26 25 24 25 24 29 32 35 39 38 37
37 40 39 35 33 32 32 32 33 34 36 35 30 29 28 30 32 32 29 29 29 29 28 30 33 32 28 25 26 25 26 27 28 28 27 25 26 27 28 30 32 37 39 37 35

GFSSW_sfc_dewp_054.txt.gz
Dewpoint
50 50 51 51 51 50 50 50 49 48 49 49 50 51 52 52 48 47 45 50 54 56 54 47 48 49 54 50 47 47 44 43 41 38 37 34 32 32 32 29 28 28 48 51 63
51 51 51 50 49 50 49 50 49 48 47 48 49 51 51 52 44 39 44 54 58 58 52 44 45 51 52 48 45 41 40 41 41 38 36 35 34 33 31 30 29 28 47 53 61
49 50 50 51 51 50 49 49 49 48 47 47 49 50 51 49 41 36 47 53 58 58 50 44 47 51 49 45 42 40 37 40 38 37 36 36 33 34 30 31 28 28 35 53 56
50 51 52 52 52 51 50 49 49 47 47 47 48 49 50 46 33 41 49 52 59 55 49 49 39 46 44 41 40 35 37 36 37 38 37 35 35 31 30 32 34 38 39 44 53
51 52 52 52 52 51 51 47 47 46 47 47 48 48 45 40 37 36 53 51 54 54 47 47 38 44 40 40 37 37 34 33 35 38 38 35 34 30 30 34 36 38 38 37 36
51 51 51 50 50 50 49 45 46 46 47 46 47 46 43 37 37 37 48 50 52 53 49 46 39 42 40 36 36 36 35 34 34 38 38 34 32 31 31 33 35 36 36 35 35
51 51 50 50 50 49 46 45 45 46 46 46 45 43 40 36 37 47 47 49 52 52 49 45 40 41 42 39 38 36 34 34 34 36 36 37 33 32 33 34 33 33 34 34 34
51 51 50 50 50 49 44 45 46 47 47 46 45 42 35 38 40 41 51 49 51 53 48 44 42 42 43 42 38 36 36 31 33 34 36 36 31 33 34 34 34 32 31 31 32
51 51 50 50 49 48 44 46 47 47 47 45 41 40 32 41 36 37 45 48 47 52 52 44 48 44 43 39 36 34 31 31 31 33 33 33 30 31 32 33 33 31 30 28 28
50 50 49 50 49 47 44 46 45 45 45 40 38 35 34 34 36 37 49 50 47 50 48 46 46 42 40 39 33 31 30 30 28 29 32 33 32 29 29 30 29 29 28 28 30
50 50 49 49 48 47 47 44 40 38 37 36 34 32 35 39 45 45 50 47 49 47 42 44 40 37 37 36 31 28 28 27 26 31 30 29 30 30 29 31 31 31 30 29 28
50 49 50 49 47 48 46 36 37 39 33 32 32 32 39 43 41 43 49 45 46 39 41 41 37 36 37 34 30 28 26 25 26 31 30 28 27 28 28 29 30 30 29 29 30
50 49 50 49 48 47 40 40 43 40 35 34 38 38 40 42 40 41 46 46 41 36 39 35 35 36 34 32 29 28 27 23 26 30 30 29 26 27 29 29 29 29 29 27 26
49 49 50 49 45 42 39 42 43 42 33 33 36 40 43 41 38 47 49 46 40 35 37 38 40 38 38 34 29 25 27 27 30 29 23 28 12 22 27 26 27 28 27 29 33
48 49 50 49 45 39 40 43 43 42 20 35 35 46 43 41 41 42 48 42 38 39 39 37 38 38 38 35 32 29 33 33 33 31 30 27 25 23 24 25 26 29 32 35 37
48 49 50 47 46 41 44 44 42 31 23 33 38 39 39 41 40 42 44 44 41 38 37 38 41 41 41 40 35 36 33 33 33 31 29 29 23 21 22 23 25 29 33 35 37
48 49 48 43 43 46 46 42 31 26 36 34 37 37 38 37 37 39 40 39 37 33 34 35 35 39 41 38 38 34 32 26 26 26 25 26 25 23 21 23 26 29 32 35 38
49 48 47 42 46 46 46 38 25 31 34 38 37 35 35 37 37 38 38 37 37 37 36 32 28 36 39 37 34 33 33 28 20 24 23 22 23 20 21 25 28 31 33 36 38
50 47 45 48 47 47 42 31 30 34 35 34 34 31 32 35 35 36 37 36 38 37 34 34 32 37 39 39 38 35 33 27 25 17 22 20 19 21 22 27 28 31 34 36 40
44 44 45 47 47 44 39 33 35 37 36 32 27 30 27 31 32 33 34 33 32 33 33 32 30 36 38 39 37 36 36 31 28 18 18 15 15 16 20 21 27 32 34 37 40
46 41 45 46 47 43 34 35 35 34 33 31 29 27 27 28 30 29 31 33 33 30 32 34 32 34 35 35 34 34 35 33 30 25 22 15 12 17 20 21 27 28 32 36 40
45 41 46 48 43 45 38 35 37 32 34 32 33 31 29 28 27 28 30 31 31 31 30 33 32 31 31 30 31 30 30 28 31 28 22 22 18 17 22 26 27 25 34 38 41
39 39 47 46 40 39 36 33 35 32 31 30 30 32 31 29 28 29 31 36 34 32 31 32 32 27 28 29 31 31 30 29 28 30 25 22 19 20 23 25 25 26 35 37 40
39 38 41 44 39 36 33 31 32 37 32 31 30 31 30 28 29 29 31 35 35 33 37 34 30 28 24 28 32 28 30 29 28 23 24 22 19 20 23 24 27 34 34 38 39
38 35 35 36 37 35 35 34 30 30 33 32 29 29 29 27 26 28 31 32 34 34 33 33 28 24 28 29 32 31 30 29 25 28 23 24 20 21 23 24 31 33 35 39 38
34 33 35 33 34 34 35 34 32 32 33 30 30 29 28 26 26 26 29 30 30 31 30 33 28 29 25 26 27 27 29 29 29 29 28 27 25 26 26 29 32 35 39 38 37
35 37 38 32 33 32 34 34 34 35 36 34 33 29 28 34 33 31 30 29 30 30 29 32 30 27 23 26 26 24 27 28 28 29 29 26 26 27 29 31 33 37 39 38 35

GFSSW_sfc_dewp_057.txt.gz
Dewpoint
52 51 52 50 50 51 50 50 50 50 49 48 49 50 51 52 53 46 47 48 52 58 52 50 50 50 50 53 52 51 45 41 43 43 42 41 41 33 32 29 28 42 51 62 64
51 50 52 52 52 52 51 50 50 50 49 47 48 49 50 52 47 43 46 51 56 58 51 48 46 47 52 50 49 49 44 40 41 43 42 42 41 41 30 30 30 50 60 63 64
50 51 53 52 52 52 52 51 50 50 49 47 47 48 50 50 44 41 50 52 54 58 53 46 46 50 49 48 45 42 42 43 41 42 46 40 40 40 31 32 30 41 53 60 62
52 53 52 51 51 51 51 50 49 48 47 46 47 48 49 46 35 38 52 53 53 54 54 48 46 49 46 44 44 38 40 41 42 44 46 37 35 34 31 33 39 34 53 55 57
52 52 51 50 50 50 50 48 47 46 45 46 47 48 45 40 39 43 48 50 46 53 51 49 44 47 43 44 42 40 37 38 38 38 39 36 34 31 31 35 38 37 37 43 51
52 51 51 50 50 50 48 45 45 45 46 46 45 46 43 36 38 40 39 43 50 53 51 48 38 45 43 41 39 39 39 36 36 38 37 34 32 32 32 34 35 35 35 35 35
51 51 50 51 50 49 46 44 45 46 45 45 45 44 41 36 39 44 47 44 47 53 49 47 42 44 42 39 39 37 37 38 38 38 37 35 33 32 33 34 34 34 34 35 34
51 51 49 50 50 49 45 45 46 47 47 47 45 43 38 39 40 42 46 46 49 52 50 50 46 42 43 42 38 36 36 35 34 37 37 33 31 34 34 37 34 34 33 32 34
51 51 49 49 49 48 45 46 47 47 46 45 43 42 36 44 37 39 44 45 48 52 53 47 47 43 43 39 36 37 32 33 31 35 36 34 32 33 33 33 34 34 33 32 30
51 50 50 49 48 47 47 48 46 46 45 43 41 37 36 36 40 42 47 49 49 50 50 47 44 41 42 38 31 33 31 32 30 32 34 33 32 33 30 32 33 33 30 29 29
50 50 50 49 49 49 48 45 37 37 39 37 37 34 36 41 43 44 46 46 50 47 41 43 38 36 38 38 34 32 31 31 32 31 32 32 32 33 33 30 30 30 30 30 29
49 49 49 49 49 49 46 38 39 38 34 36 37 35 42 44 39 44 48 45 43 40 42 40 35 38 38 38 38 31 30 28 29 31 31 31 31 33 31 29 30 31 31 30 29
47 49 49 50 49 46 41 41 43 42 35 36 39 39 40 41 38 41 47 44 40 39 38 35 35 38 37 36 34 28 27 26 27 30 30 28 26 27 28 29 30 29 29 28 26
47 49 49 50 44 42 39 43 44 42 30 34 35 41 41 39 39 46 48 44 42 38 37 38 38 35 34 34 32 27 28 29 30 29 25 27 18 21 26 27 27 28 27 26 35
48 48 49 50 43 40 42 43 43 40 17 34 37 45 41 37 40 40 48 47 40 38 37 37 38 38 36 35 36 30 33 32 32 29 28 27 24 24 26 25 26 28 30 35 37
47 48 49 47 46 43 44 44 41 25 22 33 37 35 36 37 41 41 44 46 41 38 37 38 40 41 41 41 40 36 33 33 32 30 25 28 25 21 24 25 26 29 34 36 37
48 49 48 45 43 44 47 42 28 21 34 35 36 38 37 37 38 40 39 38 36 33 32 36 35 38 42 38 39 35 31 23 22 21 22 25 25 23 24 25 27 31 33 35 37
49 49 47 43 45 46 45 35 21 30 32 38 37 37 36 38 38 38 37 35 37 35 30 29 28 37 40 38 37 34 30 24 17 20 23 22 25 24 22 25 29 32 34 36 38
49 46 44 46 46 46 41 25 24 30 33 35 35 32 34 36 36 38 37 36 36 36 31 31 30 37 39 40 39 35 28 28 24 22 19 22 21 20 27 29 30 32 35 36 38
42 42 44 47 46 42 35 31 33 37 37 34 29 30 27 33 33 34 34 36 37 39 38 36 30 37 38 40 38 36 36 29 25 17 16 19 17 19 24 27 29 32 34 35 40
42 38 44 47 46 39 31 30 35 38 34 32 30 28 27 30 31 30 31 32 33 31 32 34 31 34 37 36 36 34 35 33 30 25 20 15 15 16 21 25 28 33 34 37 40
39 34 44 46 38 34 29 36 37 34 35 34 33 31 28 30 27 30 31 31 31 31 33 33 33 31 32 34 37 34 33 31 27 26 21 21 17 20 22 24 29 31 34 39 41
36 36 44 44 32 33 34 35 36 34 31 31 31 32 31 29 27 29 32 35 33 33 31 32 31 26 28 29 31 34 33 33 29 29 26 22 19 22 25 27 25 26 34 39 40
36 31 35 40 38 33 33 33 34 36 33 31 30 30 30 28 28 29 31 34 34 32 39 35 31 26 24 27 31 29 30 30 28 22 23 24 19 22 24 25 25 27 36 38 38
35 32 34 28 34 34 34 33 32 32 33 31 30 29 29 26 27 28 32 33 34 35 32 32 23 21 28 32 31 30 30 30 27 27 22 23 20 20 23 23 24 34 36 39 37
32 31 33 32 33 33 34 35 32 33 32 31 29 30 27 28 27 28 30 31 31 31 30 33 24 26 23 28 29 27 28 29 30 28 27 27 27 26 23 25 32 33 38 39 37
34 35 37 31 31 31 33 33 34 37 36 34 34 33 31 34 33 31 30 29 31 30 30 31 27 22 18 26 26 21 26 27 29 30 29 27 27 27 28 31 33 39 39 38 36

GFSSW_sfc_dewp_060.txt.gz
Dewpoint
52 52 52 52 52 53 53 52 51 50 50 50 49 48 49 51 52 51 47 48 50 57 55 50 49 50 51 53 54 53 44 38 40 40 41 45 43 43 34 31 44 49 55 60 64
53 53 53 52 52 51 51 52 52 51 50 50 49 47 48 50 48 46 48 52 53 57 51 48 46 49 50 52 52 49 42 40 40 41 45 47 44 44 33 35 49 59 62 63 63
52 53 53 52 51 50 50 51 51 51 49 49 48 46 48 49 43 41 53 54 53 52 54 48 46 48 50 49 48 49 42 43 41 43 50 48 47 46 39 30 42 57 60 62 61
52 51 52 50 51 50 50 50 50 49 48 47 45 46 47 46 31 40 50 53 55 49 53 46 46 48 46 45 46 42 43 44 44 44 50 47 47 44 38 33 37 55 61 60 60
52 52 50 51 51 50 49 47 45 46 44 45 46 46 45 41 39 42 48 48 48 48 53 46 45 47 43 44 45 40 41 42 46 48 49 49 47 45 38 36 39 49 54 58 59
52 51 50 50 50 50 46 46 46 47 46 46 45 46 43 35 38 42 42 44 47 47 52 49 44 47 43 43 43 43 41 41 42 40 45 46 46 44 34 33 36 36 38 40 51
52 51 49 50 50 48 45 46 46 46 44 44 45 44 41 36 38 43 43 46 45 48 50 50 43 46 43 42 42 40 40 39 39 37 36 40 40 38 33 34 34 34 36 34 34
52 50 50 49 49 48 46 46 46 46 46 46 45 43 37 41 41 40 44 44 49 51 51 51 46 46 42 41 40 36 40 37 37 37 37 32 30 34 34 34 33 34 33 34 34
50 50 50 49 48 48 48 48 47 46 46 46 43 42 36 44 39 40 42 42 49 52 52 52 48 42 42 38 36 37 34 35 34 36 36 32 31 33 33 33 33 34 34 34 33
49 50 49 50 48 50 50 49 48 46 45 44 42 38 38 37 40 45 48 46 45 49 48 50 45 41 39 37 31 33 32 34 31 34 35 34 32 32 33 31 32 33 34 32 29
47 49 49 50 49 49 48 42 36 35 38 34 34 34 35 41 46 45 46 43 45 47 42 43 39 36 37 35 33 34 32 33 33 33 33 34 33 33 33 32 31 32 32 30 30
47 48 49 50 50 49 44 39 39 38 34 38 38 40 41 43 39 43 46 40 42 41 41 41 36 37 39 38 35 33 31 31 31 33 31 31 32 33 33 32 30 30 31 31 29
47 47 49 49 50 43 41 41 44 41 34 37 38 39 40 41 40 40 42 41 40 40 39 35 36 39 38 38 36 32 31 28 28 31 30 29 28 29 31 30 30 31 30 30 28
47 47 48 50 44 43 39 42 44 42 25 35 36 40 42 39 39 45 46 44 39 39 37 38 38 38 36 36 35 31 29 29 29 29 27 27 23 21 27 28 28 29 28 28 31
47 48 48 49 40 39 41 43 43 40 20 36 37 43 41 37 39 43 48 45 39 39 37 38 37 36 35 35 33 30 31 31 31 29 26 26 22 22 25 25 27 28 27 29 36
48 49 48 47 45 42 44 44 40 23 22 33 37 37 37 38 39 40 43 47 42 38 38 38 40 41 40 41 38 35 33 32 32 30 25 27 23 21 23 24 26 28 31 36 38
49 49 48 47 41 44 46 39 22 22 33 35 37 38 37 37 38 38 39 38 36 32 33 35 36 39 41 37 38 34 30 25 25 25 22 26 25 24 24 25 27 28 34 36 38
50 49 46 45 45 46 43 30 19 29 31 37 38 38 36 38 37 38 36 35 37 34 32 30 29 38 39 38 36 34 29 22 18 20 21 24 25 25 25 25 27 30 34 36 38
48 44 44 46 46 44 36 22 22 25 30 35 35 34 36 38 36 37 34 35 36 35 30 30 30 37 39 40 39 35 33 29 22 21 18 22 23 21 27 27 30 32 34 36 39
41 41 43 46 45 41 31 30 30 35 37 36 29 29 27 35 35 35 36 36 37 38 36 33 29 36 39 41 40 37 35 28 24 16 15 18 19 20 25 27 30 33 35 36 40
41 38 43 47 45 36 26 29 35 37 37 32 30 28 28 30 33 33 32 36 35 37 36 34 29 33 38 37 35 36 35 31 29 24 19 16 16 19 24 28 30 34 35 35 40
37 33 43 46 39 33 27 35 37 34 35 34 32 31 29 29 28 31 30 31 32 32 32 33 31 30 32 36 38 34 34 32 28 21 20 19 16 21 20 27 31 33 34 37 40
35 35 44 43 31 29 33 34 35 34 31 31 30 31 31 28 27 31 32 34 34 32 32 32 28 22 30 31 34 36 35 32 29 28 19 18 19 23 23 27 30 32 35 39 40
35 28 33 38 36 34 33 32 32 35 33 31 30 30 29 27 28 30 30 34 34 31 38 36 30 26 22 24 29 27 33 32 31 26 26 24 24 21 24 26 26 28 34 40 39
33 31 33 27 32 32 33 34 32 32 33 31 29 29 29 26 28 29 32 32 33 35 33 30 23 22 27 32 30 29 31 31 31 31 28 27 23 20 24 26 26 26 35 39 38
31 29 32 30 32 32 34 34 34 35 32 31 29 31 29 28 26 27 31 31 30 30 31 31 23 25 22 28 28 27 28 30 29 29 27 27 26 28 25 25 27 30 37 38 38
33 33 33 30 27 31 31 33 34 35 36 34 34 33 31 33 32 31 31 31 31 29 30 29 26 21 17 26 24 20 25 27 29 30 28 26 27 28 26 25 30 34 38 39 38

GFSSW_sfc_dewp_063.txt.gz
Dewpoint
53 53 53 54 53 53 52 51 51 52 53 51 51 51 48 49 51 49 47 48 51 56 56 53 50 50 51 53 55 53 43 37 38 39 40 46 44 45 45 35 49 55 57 61 64
52 52 52 52 51 51 50 51 51 51 52 51 51 50 47 47 48 45 49 53 55 54 52 50 47 49 50 51 53 49 43 39 40 41 44 47 47 46 42 41 50 58 62 63 64
52 52 52 49 51 51 51 50 50 49 50 51 52 47 46 48 43 40 50 54 54 51 51 50 47 47 47 49 50 49 42 42 40 43 49 48 46 46 43 38 37 54 61 61 62
53 52 51 51 51 51 49 48 48 48 49 49 46 45 47 46 30 42 48 53 55 51 49 49 47 46 44 45 47 45 45 42 44 49 49 47 48 45 43 41 44 40 61 60 60
52 51 50 50 50 49 47 47 47 47 45 46 45 46 45 40 39 44 47 45 46 45 48 48 45 44 43 44 44 41 43 44 50 49 48 48 46 46 45 45 45 42 59 58 58
52 50 50 49 50 47 46 47 48 47 46 45 45 47 42 34 38 43 43 42 43 47 48 49 44 46 44 44 44 43 41 44 48 47 48 46 45 46 44 44 37 54 57 57 57
51 51 50 48 48 47 46 47 47 47 45 44 46 44 41 35 38 41 43 41 45 48 46 52 45 46 43 42 43 43 40 43 44 44 44 47 44 44 44 43 37 35 40 42 51
50 51 50 50 48 48 48 48 47 48 47 47 45 43 35 41 40 40 42 41 48 49 47 52 48 46 43 42 40 39 41 37 40 40 40 46 39 44 46 43 36 33 33 33 34
48 50 50 49 49 49 50 50 48 47 46 46 43 40 35 44 40 42 42 41 47 49 50 53 48 44 42 38 35 36 34 35 36 38 40 41 34 40 44 42 38 34 34 34 33
47 48 50 49 50 49 50 50 48 45 45 45 42 37 37 35 41 43 47 46 43 47 47 49 45 40 38 36 30 32 32 34 33 35 36 36 31 33 35 34 35 35 34 34 33
47 46 48 48 50 50 47 40 35 33 38 35 34 35 36 42 46 44 46 44 42 45 39 45 38 36 36 35 33 33 32 33 32 35 34 34 33 33 32 31 30 31 33 34 32
47 46 47 49 50 50 43 39 37 37 33 38 38 38 41 43 40 42 45 39 39 37 39 40 34 37 38 36 33 32 32 33 32 34 34 33 33 34 34 33 32 30 31 32 30
47 47 48 48 50 43 40 40 44 41 34 36 39 39 40 41 39 40 42 41 39 38 37 35 35 39 38 37 33 31 31 30 30 31 30 30 29 31 33 33 32 32 31 31 30
48 47 48 48 44 42 38 41 43 41 23 35 36 40 42 40 39 43 44 42 39 37 39 38 39 38 37 36 35 30 31 30 30 29 27 29 26 25 29 30 31 32 30 30 29
48 48 47 47 41 39 40 43 43 39 14 36 37 42 41 38 39 41 47 45 38 39 39 37 37 37 36 35 33 31 30 30 31 29 27 26 25 26 24 26 29 30 29 29 29
49 49 47 47 45 43 43 43 37 21 16 33 38 37 36 39 39 40 44 47 44 39 38 38 40 39 39 39 35 34 31 31 32 29 24 26 25 24 22 23 24 28 28 28 35
49 50 48 46 41 44 45 37 23 19 32 34 37 36 36 37 39 40 38 38 36 33 34 37 37 39 40 36 37 33 29 24 25 25 22 26 24 25 25 25 25 25 28 32 38
49 48 47 45 45 45 42 27 19 29 33 38 37 36 35 37 38 38 37 35 36 34 32 31 30 35 39 36 34 33 27 23 18 21 22 26 24 25 28 27 27 28 30 37 39
47 43 43 45 45 44 35 21 21 23 28 34 36 33 34 35 36 35 33 35 34 33 29 29 29 37 39 40 38 34 29 27 21 20 19 22 23 23 24 25 26 30 35 36 38
41 41 42 46 45 42 29 26 29 34 35 36 28 28 30 33 34 33 33 35 36 37 35 31 29 35 39 39 39 36 35 28 23 13 15 18 20 19 21 24 28 32 34 36 39
40 38 43 46 45 35 22 24 34 37 37 32 30 28 32 33 33 33 33 36 37 37 35 31 29 33 38 36 34 37 35 32 28 23 17 17 17 21 19 23 28 32 34 37 40
36 33 43 45 38 32 26 33 37 34 35 33 32 31 29 29 31 30 30 31 34 37 32 33 30 29 33 35 38 38 35 31 24 20 19 18 19 20 21 23 31 33 35 36 40
34 34 41 44 28 28 33 34 35 33 31 30 30 31 30 28 28 31 31 34 33 33 32 33 27 27 30 32 34 37 36 33 29 25 18 18 21 22 24 28 32 33 34 36 40
33 27 32 36 35 30 31 32 31 34 32 30 29 30 29 27 29 30 30 33 33 31 38 35 29 23 21 23 30 32 35 33 30 25 27 23 24 25 22 25 29 32 34 38 40
32 29 31 25 32 32 31 33 32 31 32 31 29 29 28 26 28 30 32 32 33 35 33 30 25 23 26 31 29 28 30 34 29 31 28 28 26 27 24 24 27 30 33 40 39
28 27 30 28 30 29 31 33 34 34 32 30 29 32 30 26 26 28 31 30 29 31 31 30 22 23 22 28 28 26 27 32 33 32 31 30 27 27 25 26 26 27 33 38 39
32 33 31 28 24 28 28 29 33 34 36 35 35 33 30 32 33 31 32 31 31 29 30 28 25 20 16 25 23 20 24 26 30 31 31 28 30 28 27 25 27 29 34 37 38

GFSSW_sfc_dewp_066.txt.gz
Dewpoint
53 52 52 52 49 51 52 52 51 51 51 52 52 52 51 49 49 48 46 48 50 55 56 54 51 50 52 52 54 54 44 38 39 39 40 46 44 46 46 41 44 59 57 60 64
53 54 52 50 51 51 51 51 51 51 50 51 51 52 51 48 47 45 48 51 55 55 51 51 48 49 49 50 51 49 44 39 39 42 43 47 46 45 42 41 45 44 59 63 65
53 53 51 50 51 51 50 49 49 50 48 49 49 50 48 48 41 39 47 52 53 54 51 51 49 47 46 48 48 48 42 42 41 47 48 47 47 45 42 38 41 43 43 60 63
52 52 51 51 50 49 48 48 49 48 48 48 50 51 49 45 21 41 51 49 53 52 50 50 47 44 42 44 47 44 45 44 47 49 47 45 47 45 45 42 45 43 45 58 61
52 52 50 50 49 48 47 48 48 48 47 47 46 48 44 39 38 41 46 47 46 50 48 48 46 43 41 43 44 42 44 45 47 48 48 47 46 45 45 45 44 44 50 58 59
50 51 50 49 48 48 47 47 47 47 46 46 45 47 41 31 37 42 43 40 44 46 45 48 46 44 42 44 43 43 43 44 49 47 49 45 45 44 40 45 43 43 46 57 58
49 50 51 49 49 48 49 48 48 48 46 45 46 43 40 35 38 41 40 39 40 41 46 48 48 44 44 43 45 42 44 47 48 48 48 46 43 42 43 43 42 42 36 43 53
47 49 50 49 50 49 50 50 50 47 47 47 46 42 34 40 41 41 42 38 42 49 48 50 51 45 44 43 41 41 42 40 44 47 46 43 38 43 46 46 44 43 36 34 34
48 46 49 50 49 50 50 50 50 47 46 46 42 39 33 42 42 41 43 41 44 50 50 50 51 44 43 39 36 39 33 34 40 44 45 41 38 40 47 46 44 43 40 34 34
48 47 47 49 49 50 50 49 48 45 44 45 43 36 36 36 43 42 47 45 44 47 45 45 45 40 38 37 30 32 32 32 35 39 43 39 35 42 45 45 44 42 41 36 35
48 47 47 48 48 51 47 39 33 32 37 34 35 35 36 43 45 43 45 43 44 43 36 39 38 35 36 35 33 33 33 33 34 38 39 40 37 35 41 44 43 42 40 38 34
48 47 47 48 48 50 42 36 35 37 33 37 40 38 41 43 39 41 45 39 41 37 39 36 34 35 37 34 34 33 32 31 32 35 36 34 35 34 35 39 41 39 38 36 33
48 47 48 48 49 42 40 40 43 41 34 38 40 38 41 42 39 39 43 40 38 37 36 35 34 39 38 34 33 31 31 31 31 32 31 33 32 33 35 36 34 33 33 31 32
48 48 49 47 44 41 38 42 42 38 27 35 36 40 42 40 38 42 45 42 39 37 38 37 39 38 37 35 33 30 32 30 30 30 28 30 27 29 32 34 33 34 34 33 31
48 49 49 47 40 40 40 43 42 36 12 36 37 42 41 39 39 40 47 43 36 38 37 36 37 37 36 36 33 31 32 30 30 28 27 26 26 27 25 30 31 32 32 32 31
49 49 48 48 45 42 44 42 37 20 11 32 38 37 37 39 38 41 43 46 43 39 39 39 40 39 39 38 35 34 31 31 30 28 21 26 26 26 24 24 24 27 31 32 30
49 50 47 45 40 44 44 36 21 19 32 29 36 36 37 37 38 39 39 37 34 33 33 37 37 39 40 35 36 31 29 22 21 21 20 26 25 25 26 24 24 24 25 29 30
49 48 47 45 44 45 43 27 18 27 33 38 38 35 36 38 38 38 37 35 35 35 32 30 30 36 38 35 33 31 27 22 17 20 20 25 24 25 28 28 27 27 28 29 36
46 42 42 45 46 45 34 17 20 22 28 34 36 33 33 34 36 35 35 34 33 33 29 27 31 37 40 39 36 33 30 25 20 18 17 22 23 22 24 25 26 25 32 34 38
40 40 42 45 45 41 28 26 29 31 34 36 28 30 30 31 32 32 31 35 35 35 34 30 29 35 38 38 38 35 33 27 22 14 15 17 19 20 20 22 23 28 33 36 39
40 37 42 46 46 34 23 23 33 36 37 32 30 29 31 31 31 31 31 36 37 36 33 31 28 33 35 34 33 36 32 30 27 22 17 16 18 22 21 18 20 26 33 36 39
35 33 42 44 37 32 25 32 37 33 36 33 31 30 30 33 31 29 31 32 37 36 31 32 29 29 31 35 37 35 34 30 24 20 19 18 19 24 21 22 23 29 34 36 39
34 34 40 43 26 25 32 33 34 32 30 30 29 31 30 28 28 30 31 33 34 33 33 32 28 28 29 31 35 36 36 35 29 25 19 21 22 23 24 25 30 32 34 36 40
33 27 31 35 33 29 30 32 31 34 31 30 29 30 29 27 30 30 30 32 33 32 39 34 28 23 21 22 29 33 33 36 33 31 28 24 24 26 26 23 27 32 34 35 39
31 28 29 25 30 30 30 33 32 31 32 31 28 31 29 27 28 29 31 31 32 37 32 31 24 21 26 28 29 29 30 32 33 33 30 28 28 28 28 27 25 29 33 37 39
25 26 28 27 29 28 31 31 34 33 32 31 29 32 31 26 28 27 31 30 29 30 30 28 22 23 21 27 29 26 28 31 33 32 32 32 31 31 29 25 26 28 32 37 39
30 31 30 26 23 27 24 23 32 31 35 35 35 33 30 32 33 31 32 31 30 29 29 27 24 20 17 25 23 20 24 26 30 33 33 31 32 31 29 28 27 28 30 35 38

GFSSW_sfc_dewp_069.txt.gz
Dewpoint
53 54 53 50 51 52 51 51 51 51 51 51 51 51 52 52 50 48 45 48 49 54 54 53 54 50 54 53 54 52 45 40 39 38 40 46 43 46 45 42 51 52 59 61 65
53 54 52 50 51 50 49 49 50 50 49 50 51 52 51 51 46 44 47 50 53 54 50 51 50 49 50 51 52 49 43 41 41 42 44 46 45 45 42 39 41 41 44 59 65
52 53 51 50 50 48 49 49 50 49 49 50 50 51 51 50 38 35 50 51 51 51 51 51 49 48 45 50 49 48 43 42 40 47 48 46 46 45 42 40 43 42 44 49 63
51 52 51 48 50 48 48 49 49 49 48 48 49 49 49 45 23 37 49 50 51 49 51 50 48 45 43 44 48 44 46 43 47 48 46 45 47 44 44 42 45 44 46 46 61
49 51 52 50 47 48 48 48 48 48 48 47 46 48 44 38 36 41 47 46 47 49 49 49 46 43 37 44 47 45 45 44 48 48 46 47 45 44 44 46 45 43 43 56 58
48 49 50 50 50 48 48 48 48 48 46 46 47 46 40 29 35 41 40 41 49 49 48 48 47 44 41 44 44 45 44 46 48 47 48 45 45 43 43 44 43 43 43 40 57
49 47 50 51 49 50 49 49 50 49 48 46 47 43 40 33 37 41 40 39 41 47 44 48 49 46 42 44 46 43 42 46 47 47 47 46 42 43 43 45 43 43 43 41 37
49 48 47 50 50 49 50 50 50 49 47 47 46 42 34 38 40 41 42 39 43 48 45 49 51 48 44 44 42 41 43 39 45 47 48 47 39 41 45 44 43 44 43 42 39
49 48 46 49 50 49 51 50 49 47 46 46 42 40 33 41 41 41 45 41 43 49 49 49 49 45 42 41 38 40 35 37 42 46 46 44 39 41 46 44 44 44 43 42 40
49 48 46 48 49 49 51 49 48 44 44 44 43 35 37 35 41 43 46 45 42 45 46 46 42 41 39 38 29 34 34 37 37 44 44 42 38 43 45 45 44 43 42 42 41
49 46 46 48 49 49 45 38 33 32 37 35 35 35 36 42 45 43 45 42 44 43 39 38 34 34 37 35 33 34 34 34 37 42 42 40 37 41 43 44 43 43 42 41 41
48 47 46 48 48 49 42 34 35 37 33 37 39 37 40 44 38 41 45 39 38 36 37 36 34 36 37 35 34 34 34 32 33 39 38 40 38 37 41 42 42 39 41 40 40
48 47 47 49 46 42 39 40 42 40 35 37 40 39 41 43 38 39 42 39 37 35 35 33 35 36 37 34 32 32 32 32 31 35 33 35 34 36 36 39 41 42 41 39 38
48 48 49 46 44 41 37 42 42 37 25 35 38 39 42 41 37 41 44 41 39 36 35 35 38 37 37 34 33 31 33 32 32 32 31 33 28 32 34 35 37 38 38 38 36
48 49 48 47 40 40 40 43 41 35 17 35 37 43 42 39 38 39 45 44 37 37 37 36 36 37 36 34 33 31 33 31 32 29 28 27 28 29 32 33 35 36 35 36 36
48 49 48 47 44 42 43 41 37 20 13 33 39 37 38 39 38 40 43 45 43 37 39 39 41 40 38 37 34 33 31 30 31 29 28 28 28 26 26 28 31 34 35 36 35
49 50 47 45 40 44 43 36 21 18 29 30 35 37 37 36 37 39 38 37 36 31 32 36 38 40 40 36 36 32 29 27 27 26 24 26 26 27 28 26 26 27 29 32 33
48 49 47 44 45 45 43 28 18 25 33 36 38 36 35 37 36 38 36 35 38 36 34 32 30 37 39 35 34 31 27 24 19 21 23 26 25 25 28 29 28 28 28 29 30
47 42 42 45 46 45 35 15 22 23 28 34 36 32 33 35 37 36 35 35 34 33 29 29 32 38 40 39 36 33 28 26 22 20 20 22 23 23 24 23 24 26 28 31 32
40 39 41 45 45 41 27 26 28 30 34 35 28 30 29 31 33 32 32 36 36 35 33 30 30 36 38 39 39 34 31 27 25 16 17 17 18 19 21 22 21 21 27 32 37
39 37 42 45 45 33 21 23 32 35 36 32 29 29 30 30 32 32 31 35 37 34 32 30 29 34 35 34 35 35 32 30 27 23 19 16 18 22 23 20 21 22 27 33 38
36 33 42 45 37 33 25 31 36 34 37 33 32 31 31 32 31 30 31 32 38 34 30 31 29 30 31 35 37 35 32 30 26 22 20 20 21 23 21 22 24 27 32 35 39
34 33 39 43 26 24 31 33 34 32 30 30 29 31 30 30 28 30 31 34 37 34 32 32 29 26 29 31 34 35 35 33 29 28 21 24 23 24 24 24 28 32 34 36 39
31 27 31 34 32 29 29 31 30 34 31 30 29 30 29 28 30 30 30 33 33 33 38 33 28 24 22 23 30 31 34 34 32 30 26 26 26 27 28 28 28 29 34 36 39
29 27 29 24 29 29 29 32 32 31 32 31 28 31 29 27 28 29 31 31 32 36 32 31 24 22 26 28 31 31 31 33 34 31 29 28 28 29 29 30 30 28 30 35 38
25 26 27 26 28 27 29 29 32 32 33 31 29 32 31 27 26 27 30 30 30 30 30 29 23 23 23 27 29 27 29 31 32 31 30 31 32 34 33 31 29 28 29 34 37
30 31 30 25 23 27 23 22 30 29 35 34 34 32 30 33 33 32 31 31 31 29 30 31 26 22 19 24 23 20 24 28 31 33 31 30 32 33 33 32 32 32 29 32 36

GFSSW_sfc_dewp_072.txt.gz
Dewpoint
53 53 53 50 51 50 49 49 50 50 51 51 51 51 51 51 52 48 44 42 46 53 54 52 51 52 54 52 54 53 44 39 37 35 37 44 42 44 44 43 44 45 55 59 63
52 53 52 50 49 49 49 49 49 49 50 51 50 51 51 51 47 45 44 50 51 52 49 48 48 49 46 47 51 47 44 39 38 38 37 44 43 43 41 43 42 43 49 58 66
49 52 53 50 49 48 48 49 48 48 49 48 50 51 52 49 39 40 47 51 52 50 50 50 48 47 42 47 46 46 43 40 39 40 45 44 44 45 40 41 42 42 45 50 64
49 49 52 51 49 48 48 48 48 48 48 48 47 49 48 44 32 40 49 48 51 46 48 48 47 45 40 42 44 43 43 42 42 42 42 43 44 43 43 43 44 44 48 49 61
51 48 50 51 50 50 48 48 49 48 47 47 47 48 44 35 31 38 46 47 45 46 47 46 45 43 38 38 42 42 41 42 42 44 42 45 44 42 43 44 44 43 43 55 57
51 49 47 50 51 49 49 48 50 49 47 46 47 45 37 25 33 39 39 40 45 45 47 47 45 42 37 38 41 40 41 41 43 44 45 42 43 43 42 43 42 42 43 43 51
51 50 48 48 50 49 50 49 49 50 47 46 46 41 36 28 36 40 40 38 46 47 46 49 48 42 39 36 42 42 40 42 43 44 44 43 41 42 41 43 41 41 41 42 42
51 50 49 46 49 49 50 50 50 50 46 46 46 41 31 35 40 40 39 36 43 46 44 49 50 44 40 41 40 40 39 38 41 43 46 43 39 41 42 42 41 40 40 43 42
50 50 49 46 48 48 49 51 50 48 46 47 42 41 31 40 39 41 43 37 40 45 47 49 49 44 43 38 35 38 31 35 39 43 45 43 38 40 41 42 40 40 40 42 42
50 50 46 47 48 47 50 48 47 45 44 43 42 36 35 35 39 42 42 42 39 43 44 46 42 40 38 36 28 28 29 33 34 42 43 41 39 42 43 43 40 39 40 41 42
50 49 47 47 49 47 48 41 37 36 37 35 36 35 38 41 43 41 42 40 40 39 39 40 36 34 33 32 25 26 30 32 34 43 41 39 38 39 40 40 40 39 38 40 41
50 49 48 48 48 47 44 34 35 38 33 37 38 38 42 42 37 39 43 36 38 34 38 37 35 38 33 33 31 32 30 32 37 42 40 38 39 39 37 38 38 39 39 39 41
50 48 49 49 47 46 40 39 42 41 36 38 41 39 41 44 37 38 41 39 34 36 36 33 36 39 36 33 31 30 28 32 31 39 38 37 36 37 37 37 39 37 36 37 39
48 48 49 47 45 42 38 43 43 39 35 35 39 39 41 41 38 42 44 38 38 35 35 36 37 36 35 30 30 30 31 33 35 34 27 34 18 30 35 36 36 37 37 37 41
48 48 48 47 43 41 41 44 43 39 25 34 37 42 41 39 37 40 46 42 37 35 35 34 37 35 34 31 32 31 34 32 33 28 28 30 27 21 31 32 33 35 36 37 37
48 49 47 47 46 42 44 43 40 33 25 33 38 37 38 38 37 40 42 46 41 37 38 36 36 38 36 35 33 34 32 32 32 29 28 25 25 21 25 28 30 32 34 37 37
48 50 48 46 42 45 44 39 33 29 32 33 36 38 36 33 35 38 37 36 35 34 34 36 35 40 40 33 34 33 31 29 27 29 22 27 27 23 26 28 28 29 30 34 36
48 49 47 44 45 46 43 34 30 29 35 35 37 38 35 35 35 37 35 36 37 36 34 34 32 37 39 33 32 32 28 26 18 20 19 26 24 22 27 28 28 29 29 29 30
48 46 46 46 46 46 37 33 32 34 36 34 36 32 33 36 36 36 34 36 34 34 32 30 33 39 39 38 35 32 31 25 25 22 23 22 24 25 22 24 22 24 27 29 30
44 44 45 46 46 41 35 31 31 30 34 35 29 31 26 31 33 33 36 35 35 34 33 32 32 36 38 38 37 33 29 28 33 24 17 17 18 15 21 22 22 22 24 25 31
44 41 45 47 46 37 35 35 33 34 35 32 30 29 30 30 32 30 31 35 36 33 32 30 30 35 36 34 34 32 31 31 27 27 19 15 14 21 22 23 23 26 29 31 33
43 39 45 46 38 36 37 33 37 35 37 34 32 31 31 32 31 31 31 32 37 32 29 30 32 31 30 35 36 35 31 29 28 27 26 24 19 23 22 23 26 30 32 34 36
38 40 41 44 37 36 34 34 35 33 31 30 30 31 30 33 30 31 32 33 38 33 31 32 30 29 29 30 34 34 34 32 30 31 30 24 21 23 23 24 28 30 31 34 37
36 37 36 38 35 34 33 33 32 34 31 30 29 30 29 29 31 31 31 33 35 34 37 35 30 29 24 25 30 33 32 34 34 34 26 25 23 24 26 28 28 29 32 32 37
32 30 34 36 33 33 34 34 32 31 33 31 30 31 29 27 29 30 31 31 34 36 33 32 34 31 26 29 32 31 30 32 34 32 30 26 25 26 27 29 31 32 31 31 34
28 28 30 30 31 32 31 33 33 32 33 32 29 32 30 27 28 28 31 31 31 31 31 31 32 28 26 28 30 30 29 31 32 32 30 30 29 30 31 33 34 33 33 33 33
34 34 34 26 27 31 27 28 30 30 34 34 35 33 31 35 36 33 32 31 31 31 32 34 31 30 28 25 24 23 25 27 29 31 31 29 30 31 31 30 31 34 34 34 32

GFSSW_sfc_dewp_075.txt.gz
Dewpoint
50 52 54 51 50 48 49 49 49 49 49 50 51 51 52 50 51 48 45 45 43 50 54 46 46 49 50 52 52 50 46 40 35 36 35 41 37 42 43 41 44 48 55 58 65
51 49 53 52 49 48 48 49 49 49 49 49 50 51 52 51 44 43 49 56 50 50 47 45 45 48 46 47 51 49 46 38 37 35 37 37 38 40 39 40 42 44 51 62 65
53 49 49 53 51 48 48 48 48 48 48 48 49 49 50 47 41 39 50 53 53 50 47 48 43 45 43 44 46 47 43 42 38 42 37 41 41 43 38 39 42 42 48 61 65
52 52 48 51 52 50 49 48 48 49 48 48 48 48 47 41 34 43 51 53 51 48 45 48 47 44 39 37 42 43 44 44 46 42 41 41 39 39 42 43 43 43 49 58 63
52 52 50 48 51 51 50 49 49 51 49 47 48 47 44 32 31 36 44 44 44 46 43 45 44 41 37 35 37 43 40 43 49 44 40 41 39 42 42 44 43 43 46 56 61
51 52 50 48 48 51 49 50 49 50 48 47 48 47 38 26 32 36 37 39 40 43 43 46 43 40 36 32 33 35 38 43 45 45 40 40 40 42 41 42 42 41 42 49 58
51 51 51 49 47 50 49 50 49 50 49 47 47 40 36 29 34 39 37 39 44 42 42 46 47 43 38 33 34 36 35 39 45 48 44 42 40 40 37 42 40 40 40 44 45
51 51 50 48 48 49 49 50 51 50 48 47 47 41 31 37 40 37 36 36 43 45 47 49 49 49 42 35 36 36 36 37 38 41 44 42 36 40 38 40 41 41 39 41 43
51 51 50 48 48 49 48 50 51 49 46 46 43 40 31 40 36 38 39 34 40 43 45 47 48 45 43 35 35 37 29 32 33 39 42 42 34 37 40 39 39 40 39 39 42
51 51 49 48 48 50 48 50 46 47 44 41 38 38 35 35 39 40 39 39 38 41 42 45 43 41 39 38 27 28 26 29 28 38 39 40 38 41 41 42 40 39 39 39 41
50 50 49 48 49 49 48 42 39 38 38 34 34 34 37 40 41 39 39 36 38 36 36 40 37 35 32 33 24 21 22 26 27 35 39 38 38 39 40 41 41 40 39 38 39
49 49 48 49 49 46 47 35 37 40 34 37 37 37 41 41 35 38 40 34 35 34 36 37 34 37 37 32 32 26 23 28 31 37 39 35 34 37 37 38 38 37 37 38 38
49 48 48 49 47 47 40 37 42 40 35 37 40 38 40 41 38 37 39 35 32 36 34 35 35 38 39 37 35 26 22 30 31 36 38 33 31 34 37 38 36 35 37 37 38
48 48 49 47 45 42 37 41 43 40 35 35 37 37 41 42 38 38 42 37 35 33 34 37 38 38 38 32 27 27 26 28 29 34 28 32 19 25 32 35 35 35 37 36 37
49 48 49 48 44 41 41 42 42 40 26 34 36 41 40 38 38 39 43 39 33 36 34 33 35 38 36 30 28 26 30 30 33 32 24 29 26 21 28 32 34 33 35 36 36
48 48 47 46 45 42 43 42 41 33 24 34 38 36 35 35 36 40 41 44 38 34 34 34 37 38 37 32 31 34 31 31 30 26 26 25 23 18 20 24 26 29 32 35 35
48 49 48 45 42 44 44 40 33 31 33 33 36 36 32 31 32 36 39 37 36 32 34 35 35 39 40 34 34 32 29 28 25 28 23 24 21 20 24 26 27 27 29 30 33
48 50 47 44 45 46 43 35 30 29 34 34 36 35 32 33 34 35 36 36 36 34 32 32 32 36 36 31 30 30 26 24 16 18 17 25 23 20 25 25 28 29 29 30 30
50 47 45 46 46 46 37 34 34 35 35 33 35 32 31 34 34 35 36 36 35 32 30 29 33 38 38 37 34 32 32 26 24 22 20 21 21 23 21 24 24 24 26 30 30
44 44 44 47 46 43 35 34 32 32 34 33 31 30 28 31 32 32 35 35 33 36 32 30 31 37 38 38 36 32 31 26 31 23 14 16 15 15 20 22 23 24 26 27 27
43 40 45 47 46 39 34 36 33 34 35 32 29 27 27 29 30 30 34 35 34 33 32 31 30 34 36 34 30 31 29 29 27 26 20 12 13 19 23 24 26 28 30 31 32
43 40 46 47 40 38 37 33 37 34 35 34 33 32 29 30 29 29 33 32 35 32 30 30 31 31 31 34 35 35 29 26 27 24 24 25 19 20 22 24 27 30 31 32 35
38 39 42 45 35 38 34 33 34 32 32 31 30 31 32 30 28 30 32 35 37 32 30 30 32 29 29 30 33 33 30 30 28 33 32 23 18 24 24 24 27 30 30 30 33
37 37 38 41 38 34 32 31 32 35 31 30 30 30 29 29 31 31 31 34 37 34 37 35 29 29 26 27 29 32 28 30 33 33 25 25 22 22 24 26 27 28 30 31 33
32 29 37 35 34 33 34 32 31 30 32 31 30 30 27 27 28 29 31 32 35 37 33 33 34 33 26 29 32 32 30 30 32 32 31 25 24 24 25 26 27 30 32 32 32
28 27 29 32 33 33 33 33 31 33 32 30 28 31 29 27 28 28 30 30 31 33 32 32 32 30 28 28 29 30 29 29 30 31 31 29 27 29 30 30 31 30 30 31 33
34 33 30 29 30 30 29 32 33 34 34 35 34 30 30 35 35 32 32 31 31 32 32 34 32 31 29 25 25 24 25 27 29 30 30 28 28 28 28 29 30 32 33 32 32

GFSSW_sfc_dewp_078.txt.gz
Dewpoint
54 51 50 53 51 49 49 48 48 49 50 50 49 51 52 53 51 48 44 46 48 55 52 48 46 48 50 51 53 52 46 41 39 38 37 39 39 43 42 45 45 51 57 63 66
52 53 50 50 53 50 48 48 48 49 49 49 49 50 51 51 45 41 45 50 53 55 45 46 44 45 47 48 51 49 45 42 41 41 39 40 39 39 41 42 44 49 61 63 66
52 53 52 49 51 52 50 49 48 49 50 48 49 50 49 48 40 41 52 51 52 52 48 46 47 44 44 45 48 47 43 43 44 46 44 38 43 43 39 41 42 42 57 63 65
51 52 52 50 49 51 51 51 49 50 51 49 48 49 49 44 33 42 49 51 53 53 49 44 47 44 42 41 46 44 46 45 47 50 46 42 41 41 43 43 43 43 58 62 64
51 52 52 51 49 49 52 50 50 49 50 49 48 48 44 35 29 39 44 45 49 47 45 44 44 43 39 38 42 45 45 45 46 48 48 47 40 40 43 43 43 43 55 61 63
50 51 52 51 49 48 50 50 51 49 50 49 48 48 40 29 30 35 36 40 42 43 43 45 43 41 37 35 37 41 40 44 45 45 45 47 41 42 41 43 41 41 47 57 61
50 51 51 51 48 48 49 50 50 50 50 49 48 44 37 30 33 38 36 37 45 42 42 45 47 45 40 37 33 34 40 45 46 45 44 49 47 40 42 42 41 41 43 46 50
50 51 51 50 47 48 49 49 50 51 50 48 48 43 34 37 39 36 37 35 41 47 48 50 50 46 44 43 34 36 38 38 43 44 45 46 36 39 40 41 40 40 40 43 44
50 51 51 49 47 48 50 48 51 50 49 47 44 40 36 40 35 37 38 37 41 42 48 49 48 44 42 40 35 39 33 32 37 42 42 44 40 39 40 40 40 41 41 40 43
50 51 50 49 48 49 49 49 48 48 47 41 39 37 38 34 38 39 39 37 38 41 43 44 43 40 40 40 30 31 30 31 30 40 39 41 40 40 40 39 37 39 40 40 40
50 50 50 47 48 50 47 46 41 39 38 34 34 32 37 40 40 38 38 35 39 37 35 39 37 35 37 37 33 29 28 26 28 36 38 37 39 40 41 41 41 39 40 40 40
50 50 48 48 49 48 46 40 38 40 34 37 38 37 40 41 34 36 38 34 34 34 36 36 34 37 38 37 36 35 27 26 30 40 40 37 36 37 40 41 42 41 40 40 40
50 48 48 49 48 46 44 38 42 40 36 38 39 37 39 41 37 35 38 34 32 35 32 35 34 36 36 36 37 36 29 28 35 37 39 36 33 33 37 37 38 40 40 40 39
50 48 48 47 44 44 39 41 43 43 34 34 36 37 41 41 35 38 41 37 35 33 32 33 38 36 36 34 36 31 31 30 33 35 31 35 23 30 30 35 37 37 37 36 37
49 49 48 48 46 41 42 43 43 42 24 33 35 41 40 37 35 37 42 39 32 34 36 34 35 36 35 33 35 32 31 33 35 34 30 32 27 24 29 31 35 37 36 36 38
49 48 48 46 47 43 44 44 42 32 20 33 38 36 35 38 38 39 39 40 40 35 36 35 39 39 38 36 35 34 34 35 35 32 24 26 25 21 24 29 32 34 35 35 37
48 49 47 45 43 46 46 42 33 28 33 32 33 34 30 31 33 38 36 37 35 31 33 35 37 41 41 36 36 34 34 27 23 22 21 24 23 23 24 26 27 28 29 31 35
48 49 48 43 46 47 45 36 27 29 33 34 35 33 31 32 33 37 37 33 37 35 31 29 27 38 40 35 32 32 28 25 16 19 21 24 22 21 25 27 28 29 29 30 30
51 48 46 47 47 47 40 32 34 34 36 32 33 31 30 33 33 35 34 33 35 31 30 29 31 38 38 37 36 32 31 28 26 21 22 23 23 22 24 25 25 26 27 29 31
46 44 45 47 47 45 36 33 33 35 33 33 34 32 29 30 32 33 33 35 35 36 33 31 29 35 37 39 37 36 32 26 28 17 14 19 19 19 19 21 23 26 28 29 27
45 41 46 48 47 41 32 35 33 33 35 33 31 28 27 29 31 31 33 35 34 34 32 32 31 33 36 35 31 32 34 30 27 26 22 16 16 21 23 25 28 30 31 33 34
43 39 46 47 39 38 35 35 37 34 35 34 34 32 29 30 29 30 32 32 35 33 31 33 34 29 34 36 37 36 31 29 26 24 25 24 22 22 25 27 29 31 30 31 35
40 40 43 46 34 35 36 33 34 33 33 32 31 32 33 30 30 31 32 38 36 33 31 31 31 28 28 30 33 33 33 33 30 31 26 23 21 24 24 24 25 29 30 32 35
40 35 39 42 38 36 32 32 32 37 32 31 31 31 30 30 32 31 32 36 38 35 39 37 31 29 26 27 31 29 30 31 33 28 27 27 25 23 24 24 26 29 30 32 32
38 36 36 34 35 34 34 32 30 30 34 32 31 30 29 28 29 30 32 34 37 38 34 34 30 25 27 30 32 31 30 29 29 30 26 27 25 25 26 29 29 31 31 30 33
33 31 34 34 33 33 34 33 30 33 32 29 30 31 30 30 30 30 31 31 32 34 32 34 29 28 27 28 29 28 30 30 30 30 30 30 30 32 30 35 30 30 31 32 32
36 35 34 33 31 31 31 32 32 34 35 35 33 31 31 35 36 33 32 31 32 32 32 33 30 28 24 26 26 24 27 29 30 30 30 29 31 30 29 30 31 34 34 33 33

GFSSW_sfc_dewp_081.txt.gz
Dewpoint
53 52 53 50 50 53 51 48 48 49 49 50 49 49 50 50 51 46 45 48 49 54 54 48 48 47 49 51 53 53 44 39 39 39 38 39 40 42 42 45 51 56 59 61 65
51 52 53 52 50 51 53 50 49 49 50 50 49 49 50 49 46 42 49 54 52 51 49 47 46 46 47 49 51 48 44 40 42 44 38 39 39 39 42 45 54 59 61 65 65
51 52 53 53 49 49 52 52 51 49 50 51 49 49 49 48 42 40 48 52 52 51 49 49 46 46 45 47 47 47 44 45 47 50 47 42 42 42 41 42 43 58 61 64 63
51 51 52 52 51 50 49 53 50 50 49 50 49 49 49 46 30 40 46 48 50 50 48 46 44 44 42 41 46 44 46 46 48 50 49 44 43 43 42 42 43 58 63 64 64
51 51 52 52 52 48 48 51 50 51 49 51 49 48 45 40 33 41 48 46 46 46 46 45 43 44 40 40 43 42 45 47 47 50 48 48 46 43 42 42 44 60 61 62 62
52 51 52 51 51 48 49 49 50 51 49 51 49 48 44 35 31 37 37 46 46 46 45 46 44 45 40 39 40 44 44 45 47 47 49 46 47 43 42 42 42 58 59 61 62
52 51 51 51 50 48 47 49 50 50 51 50 48 45 42 38 36 38 38 39 49 47 44 45 47 46 44 38 39 43 40 42 44 46 46 47 45 43 41 42 41 46 56 59 60
52 51 51 51 49 48 48 50 49 50 52 50 48 45 39 39 39 38 38 41 48 48 48 51 50 47 45 43 40 40 40 38 41 47 48 46 40 44 43 41 40 41 44 46 49
51 51 51 50 49 47 48 50 49 51 50 49 45 43 36 41 38 39 40 37 43 48 49 48 49 44 43 40 36 38 35 38 40 45 46 44 40 41 46 41 40 41 41 43 44
51 51 51 50 47 49 50 49 49 49 47 44 42 38 39 36 40 40 41 38 41 44 43 42 43 38 39 38 30 33 33 35 36 42 43 42 40 41 44 42 40 41 41 40 43
51 50 50 48 48 49 47 45 41 39 40 36 36 33 38 41 42 40 40 39 41 39 36 39 35 31 34 37 37 34 32 31 34 42 40 37 36 38 41 42 38 38 39 40 40
51 50 49 48 48 49 46 43 39 39 36 39 40 39 41 42 35 38 40 36 35 34 37 34 33 38 37 37 38 36 30 29 34 41 38 35 35 39 40 42 41 41 40 40 40
50 49 48 48 48 45 44 42 42 41 35 38 40 38 41 42 37 37 40 35 34 32 34 32 36 38 38 37 36 36 30 30 32 39 41 39 37 38 38 40 41 42 42 41 40
50 49 48 48 44 45 42 42 42 41 29 35 37 38 42 41 35 39 43 39 35 31 33 33 35 36 37 35 35 34 34 33 35 36 32 37 30 33 35 38 40 40 40 41 41
50 49 47 48 46 42 42 42 41 40 21 35 36 42 42 38 35 38 44 40 31 33 33 28 37 36 35 33 36 35 37 32 35 35 31 34 29 27 29 33 37 37 37 37 37
49 48 48 46 46 44 42 41 41 28 12 33 38 38 35 38 38 39 40 40 39 35 36 37 39 39 38 37 38 39 36 37 37 34 27 30 28 23 26 30 33 36 38 37 37
49 49 47 47 44 43 44 41 31 20 33 31 33 35 35 35 37 36 35 34 33 28 31 37 37 40 42 37 38 38 32 29 27 27 23 26 24 24 25 26 30 34 35 33 35
49 50 48 45 46 45 43 37 22 28 29 33 35 35 30 32 36 36 35 31 36 36 33 29 28 37 40 38 34 36 33 24 19 21 20 24 22 21 25 27 29 29 29 30 30
51 47 45 46 46 45 41 26 25 29 32 34 34 31 30 34 34 37 36 31 35 36 30 30 32 39 40 38 36 34 32 27 25 21 22 23 24 21 26 26 27 27 28 28 29
46 45 45 47 46 44 36 28 31 36 35 34 33 33 29 32 33 35 36 35 35 35 35 31 29 35 37 38 36 34 32 24 24 17 16 21 20 19 20 22 28 29 30 31 31
43 41 46 48 46 41 30 29 35 34 36 34 34 32 28 29 32 32 33 34 35 34 32 32 29 32 36 33 31 32 33 30 27 25 21 15 16 21 22 28 29 31 32 32 33
42 37 47 47 37 37 32 35 37 34 36 35 34 33 29 28 30 30 32 32 35 32 31 37 32 30 31 36 37 36 33 31 24 23 23 22 19 23 27 29 31 31 31 32 35
39 40 43 46 32 32 34 35 35 35 34 34 32 33 33 31 30 32 33 37 35 33 32 32 28 27 29 30 33 34 34 34 31 28 21 18 18 24 25 27 30 31 30 33 36
38 34 39 42 39 36 34 33 33 36 33 32 31 31 30 32 31 31 33 36 38 36 39 36 31 25 21 24 30 29 31 33 31 22 25 26 24 23 23 24 25 28 31 33 34
38 34 35 33 33 34 35 33 33 31 33 31 30 31 30 28 30 31 33 35 37 37 34 34 27 22 28 31 32 31 29 30 28 30 26 27 27 27 28 29 29 30 31 30 31
34 34 35 33 34 33 34 32 31 33 31 30 30 31 30 32 31 30 32 33 33 34 32 34 27 27 26 28 29 28 30 30 31 30 30 30 29 31 32 30 29 32 33 33 34
35 33 31 32 32 32 31 31 32 34 35 36 34 31 34 35 36 35 32 31 32 33 32 32 28 24 21 26 25 22 26 29 30 30 30 28 29 32 29 30 32 33 34 33 33

GFSSW_sfc_dewp_084.txt.gz
Dewpoint
52 51 52 54 52 50 50 53 49 49 49 50 51 50 50 50 50 47 45 48 48 53 52 49 49 47 48 49 52 53 44 39 38 34 35 39 39 42 44 47 53 57 57 59 63
52 51 52 53 53 50 49 52 52 50 50 50 52 50 50 50 45 43 46 50 53 53 49 47 44 47 45 47 49 48 42 41 42 43 38 41 39 39 45 52 57 60 63 63 59
52 51 52 53 53 50 50 48 53 51 50 50 51 50 49 48 42 39 45 48 51 51 49 48 48 46 44 46 46 47 42 43 46 51 49 44 42 42 43 42 50 58 60 63 62
52 51 51 51 52 51 49 48 51 51 51 50 51 50 49 45 26 37 46 45 49 50 48 45 45 43 42 41 45 45 45 45 48 50 49 48 47 42 42 42 51 60 62 63 61
52 52 51 51 52 51 48 49 49 51 51 49 51 49 46 40 39 36 47 45 43 45 45 44 43 42 39 40 42 43 45 46 50 50 48 48 46 42 42 43 53 61 62 62 62
52 52 51 51 52 49 49 47 49 50 50 50 50 49 44 36 34 34 41 46 45 43 44 45 43 44 43 39 39 42 46 45 49 48 48 46 47 44 42 44 57 59 60 62 62
53 51 51 51 51 49 48 48 50 49 50 51 50 45 43 40 37 39 40 44 48 45 43 45 46 45 44 39 41 43 43 46 45 46 47 47 44 42 44 42 54 55 56 60 61
52 51 51 51 49 49 47 48 50 49 50 51 50 44 39 40 38 39 40 46 47 49 47 48 49 47 44 43 41 39 42 39 44 47 49 43 40 44 46 43 42 48 52 55 58
53 51 51 50 50 48 49 49 50 49 50 49 45 43 37 42 39 39 41 38 45 49 51 47 48 43 43 38 36 39 35 36 40 43 46 42 37 43 46 44 40 41 44 45 46
53 51 50 50 48 48 49 49 49 49 45 45 44 39 37 37 40 41 42 41 42 44 42 42 42 39 39 37 29 33 33 35 36 43 43 43 42 44 45 45 42 40 41 42 43
53 51 49 49 47 48 47 45 39 38 40 36 36 35 38 41 43 40 41 40 40 39 35 39 37 34 35 38 38 35 35 34 36 41 40 40 40 42 43 42 42 41 41 40 41
53 51 49 47 48 48 46 42 38 39 35 39 39 40 41 42 38 39 41 36 36 33 36 35 33 38 39 39 38 35 31 35 37 42 39 38 38 39 43 40 41 40 39 39 40
53 51 49 47 47 45 44 44 42 40 35 38 40 38 40 41 37 37 41 38 34 31 33 33 35 38 37 38 37 36 34 32 36 40 40 38 36 37 38 39 41 41 40 40 40
53 51 49 47 44 45 43 44 41 41 25 33 37 38 41 41 34 39 43 39 33 31 33 35 37 37 35 35 36 32 35 34 36 36 34 41 30 33 36 37 38 40 41 42 42
53 50 49 48 45 41 42 42 41 39 10 32 37 42 43 39 34 37 43 39 31 33 34 30 36 36 34 33 36 35 38 34 37 36 34 37 29 27 31 33 36 39 40 40 41
52 50 49 47 46 45 43 42 39 29 11 31 37 37 35 38 38 40 39 40 38 35 36 37 39 38 37 37 36 40 37 36 38 37 30 31 27 25 26 30 33 37 39 39 39
52 50 47 46 43 44 44 39 29 19 31 28 33 36 34 35 37 36 35 33 30 22 29 36 36 39 42 37 40 39 32 26 28 27 23 28 30 28 25 28 32 34 37 38 38
51 49 48 46 45 44 42 32 22 25 28 33 33 33 32 34 34 36 33 32 36 35 34 27 27 37 40 38 37 36 31 25 21 23 21 27 27 23 25 26 29 32 35 30 30
50 48 45 45 46 45 37 24 22 27 30 33 34 31 31 32 34 35 33 31 36 36 32 31 32 38 40 39 36 35 29 28 24 22 20 22 23 22 26 26 27 27 27 27 28
46 45 44 46 46 43 35 26 29 35 35 34 29 32 28 32 32 33 33 34 34 36 35 32 31 36 37 37 35 32 33 24 24 17 16 20 21 17 23 22 27 28 30 31 31
45 40 45 47 46 39 30 27 32 34 35 32 34 33 29 31 33 32 32 33 35 35 32 31 30 30 34 33 31 31 30 29 26 25 18 17 18 20 22 27 28 30 31 32 33
42 36 46 46 37 37 31 31 37 34 36 34 33 32 27 30 30 32 32 33 35 32 31 36 31 26 31 35 37 34 32 28 22 20 21 20 18 24 25 29 30 30 32 37 36
40 40 44 46 31 32 31 35 36 34 34 34 32 33 34 30 29 32 33 36 35 33 31 33 27 27 29 29 31 33 33 33 29 26 20 18 17 24 28 30 30 30 34 33 37
40 34 39 42 39 33 32 34 34 35 34 33 30 31 31 32 32 32 33 36 37 36 39 36 29 24 20 23 29 28 31 33 29 22 24 24 23 22 25 28 28 29 34 35 36
38 33 36 32 34 35 34 34 33 31 32 31 30 30 29 30 30 32 34 35 36 37 34 33 26 21 27 32 31 30 29 31 28 29 24 25 26 24 29 32 29 30 32 32 33
35 34 35 32 33 32 34 33 32 31 31 29 30 30 31 31 30 30 33 33 32 34 32 33 26 26 25 28 29 28 29 30 30 30 30 30 29 30 32 30 30 32 33 33 33
35 34 33 33 32 32 32 32 32 34 35 34 31 34 33 34 35 34 32 32 34 32 31 31 27 24 20 25 24 22 25 28 29 31 30 28 29 31 29 29 31 33 34 33 32

GFSSW_sfc_dewp_087.txt.gz
Dewpoint
53 53 52 53 54 53 50 49 52 52 51 50 50 53 50 50 50 45 43 46 47 52 51 47 47 48 47 46 50 50 43 39 38 35 35 38 39 41 46 48 53 56 57 59 63
54 53 52 52 53 53 50 50 49 52 52 51 50 51 50 50 45 43 46 48 50 51 48 47 44 46 43 45 46 45 40 39 41 39 36 40 39 41 48 54 56 60 60 60 64
54 53 52 51 52 52 51 50 49 50 52 51 50 51 50 48 40 38 46 44 47 50 49 48 47 45 42 43 44 43 40 41 44 50 48 43 43 44 47 46 54 57 60 61 62
54 53 53 52 51 52 51 49 49 49 52 52 50 51 50 45 27 34 44 45 47 48 48 46 45 40 40 39 43 40 41 43 47 50 48 47 48 42 42 43 49 59 60 59 59
55 54 53 52 52 52 50 49 47 49 51 51 50 50 45 40 38 40 43 46 44 43 43 44 42 40 37 39 40 41 38 45 49 49 47 48 46 45 42 44 61 62 60 58 59
56 55 53 52 51 51 49 48 49 49 50 50 50 49 43 35 37 35 38 45 46 44 42 45 42 42 40 40 38 42 42 43 48 48 48 46 46 45 43 47 58 60 61 61 60
57 55 53 52 52 51 49 47 48 50 49 51 50 46 41 38 40 38 40 45 47 47 42 44 45 45 43 39 40 39 39 42 46 46 47 47 44 42 45 44 55 57 58 60 60
57 56 53 52 51 51 48 47 48 50 49 51 49 44 40 43 40 39 40 43 48 48 45 46 46 45 44 42 40 39 40 35 44 46 46 44 40 45 47 42 48 51 54 58 61
57 56 54 52 51 50 48 49 49 49 50 49 45 43 37 43 38 40 41 39 46 47 47 47 45 43 43 36 34 36 34 35 39 44 44 42 41 43 45 44 41 43 47 49 53
57 56 54 52 51 49 49 49 48 49 45 45 44 40 37 37 40 41 42 41 42 44 40 44 43 36 38 35 27 32 34 36 36 43 42 39 39 44 45 44 43 41 41 42 44
57 55 53 51 50 48 47 44 39 38 39 36 35 36 38 40 43 40 41 39 40 40 36 37 36 33 36 36 35 32 35 35 39 43 40 38 39 40 44 43 41 42 41 40 43
57 55 53 51 49 49 45 40 37 38 31 39 39 40 41 41 37 38 43 35 35 33 36 31 33 37 39 39 37 34 33 34 38 41 39 39 38 40 43 44 41 41 41 41 40
56 54 53 50 48 46 43 43 42 39 33 37 39 38 39 40 36 36 41 38 33 32 33 32 35 38 39 37 35 35 33 34 35 39 40 39 36 38 42 44 42 41 41 40 40
55 54 53 50 45 44 42 44 41 39 23 29 37 38 40 39 33 39 43 39 32 30 34 34 38 38 37 37 37 33 36 36 38 36 34 40 31 35 36 39 38 38 41 41 41
54 54 52 50 45 42 41 42 41 37 9 30 36 42 42 36 32 35 42 38 31 32 33 33 35 36 34 35 38 36 38 36 37 36 36 36 32 27 34 36 36 38 38 41 42
52 53 52 49 46 44 43 41 37 26 12 30 37 35 37 37 38 39 38 39 37 34 36 37 39 38 36 38 39 40 37 38 38 37 29 34 31 24 27 31 32 34 38 39 40
52 53 50 48 43 45 43 38 25 23 29 28 32 36 34 37 35 36 34 31 28 27 32 35 36 39 41 37 39 39 32 28 26 27 25 31 29 28 30 27 30 31 35 38 39
52 52 50 48 45 44 41 30 21 22 27 32 33 33 32 36 34 35 32 30 36 34 33 28 24 38 40 38 36 37 29 26 22 23 21 31 27 27 24 28 29 32 35 33 34
52 49 47 47 45 44 34 22 21 24 29 33 32 29 30 33 34 33 31 30 33 36 30 29 32 38 41 40 40 35 26 28 23 22 21 24 22 22 26 25 26 27 27 27 29
47 45 45 47 46 42 30 26 27 33 34 33 27 31 27 31 32 31 31 33 34 36 36 33 30 36 38 38 36 35 33 25 26 17 15 19 21 17 24 24 26 28 29 30 31
46 41 46 47 44 37 26 25 30 35 35 32 31 31 30 31 32 30 30 33 35 35 34 32 29 33 33 32 30 31 29 28 26 24 17 17 18 21 22 24 27 29 30 32 34
44 34 47 46 35 35 28 29 36 34 36 34 35 34 29 31 31 33 30 32 35 33 31 34 30 28 29 34 36 33 30 27 22 20 20 18 18 25 23 28 29 30 31 35 35
40 40 46 45 30 30 30 33 34 34 34 34 32 33 33 30 31 33 33 36 34 33 33 32 27 18 21 26 31 31 32 30 27 25 19 17 17 25 29 30 30 30 31 32 35
40 33 40 42 38 30 31 33 33 35 34 34 32 31 32 31 32 32 33 36 36 34 39 35 28 23 18 22 28 28 31 32 27 20 23 23 23 23 25 28 26 30 34 33 32
40 35 37 32 34 33 33 34 30 31 33 32 29 30 31 30 31 31 34 34 36 36 34 30 24 20 27 31 30 29 29 31 25 27 23 24 26 23 28 31 32 29 32 32 33
37 35 35 32 34 33 35 32 31 31 30 29 29 30 30 30 30 31 33 32 31 33 31 32 25 25 25 28 28 27 28 29 30 30 30 29 28 30 29 30 30 32 32 32 33
39 37 34 33 32 30 32 32 32 34 36 32 31 32 31 32 32 33 32 34 33 32 31 30 27 23 20 25 24 21 24 27 29 31 29 27 29 30 29 29 30 32 33 33 32

GFSSW_sfc_dewp_090.txt.gz
Dewpoint
56 55 54 53 53 54 54 51 50 50 52 52 51 50 52 50 50 45 42 43 46 51 49 48 48 47 47 46 47 47 40 35 37 38 38 38 37 42 45 50 53 53 56 57 64
58 56 54 53 52 53 53 53 50 50 49 53 51 50 52 50 46 43 46 49 47 48 46 46 45 45 42 42 44 43 37 35 38 40 37 41 40 40 49 53 56 58 60 61 62
59 57 55 54 53 52 52 52 51 49 49 52 52 50 51 48 39 35 46 44 45 50 49 48 47 44 39 39 40 40 37 37 40 41 46 44 42 45 47 51 54 55 59 59 60
61 58 56 55 53 52 52 52 50 48 49 52 51 50 49 44 22 33 43 45 45 45 45 45 45 41 36 34 36 37 39 40 41 42 48 46 47 42 46 45 49 59 59 59 56
61 58 56 56 54 52 52 52 50 48 48 51 51 50 44 38 38 40 43 45 44 44 40 40 42 39 34 37 38 37 38 40 42 42 46 48 46 43 42 44 59 59 58 59 56
61 59 56 56 54 53 52 51 49 49 51 49 50 49 42 34 38 38 37 44 44 44 43 40 42 42 37 35 39 38 39 39 43 41 45 47 46 46 45 46 60 59 57 59 59
58 59 56 56 54 53 52 50 49 49 50 49 50 45 41 37 40 41 40 42 45 45 45 42 45 42 39 38 39 37 38 40 39 42 47 47 44 43 47 47 56 58 58 58 60
55 59 56 55 54 53 52 50 49 49 50 49 49 44 38 42 43 41 40 41 48 46 44 45 46 42 40 43 41 37 38 35 39 38 43 45 41 44 47 46 47 53 57 58 60
53 58 56 55 54 52 51 49 49 50 50 50 45 42 36 43 38 39 41 39 46 46 47 46 45 40 39 37 34 35 31 34 35 40 44 42 42 45 46 45 43 44 48 55 58
52 55 56 54 53 52 49 50 50 49 47 46 44 39 36 36 40 40 42 41 42 42 40 41 40 36 37 33 25 30 32 35 35 41 40 39 39 42 44 44 43 42 44 44 53
49 53 56 54 53 50 48 44 41 39 40 36 35 36 37 39 42 39 41 39 41 40 35 38 33 32 34 34 33 35 34 34 36 40 39 38 39 40 43 43 43 41 42 42 45
50 52 55 53 52 50 46 42 37 37 30 38 38 39 40 41 37 36 42 34 34 32 35 32 33 36 39 39 36 35 34 35 38 40 38 38 37 40 42 43 44 42 41 41 41
48 52 54 52 50 49 44 43 42 39 31 36 39 37 38 40 35 35 40 36 33 30 33 28 34 37 38 37 35 34 32 33 33 38 40 38 35 38 42 45 44 43 42 41 41
48 50 54 52 46 45 42 44 43 39 22 30 36 37 39 39 31 39 42 38 31 29 33 32 37 36 37 34 37 32 36 35 37 34 31 38 29 33 37 40 43 41 40 41 41
47 51 53 49 47 44 44 44 41 36 7 29 35 42 41 36 29 33 42 36 30 30 32 32 36 35 35 36 37 36 38 37 36 36 35 35 32 31 36 37 38 38 38 39 41
47 49 51 50 48 47 44 41 37 22 7 32 36 34 37 37 38 38 37 37 37 34 36 36 38 38 38 40 39 40 37 38 38 36 25 33 29 26 30 33 35 35 37 38 39
47 48 48 49 43 48 44 38 24 13 27 28 31 35 34 33 34 35 34 29 27 29 32 33 35 39 41 36 38 38 35 28 27 27 24 32 28 28 30 30 31 33 32 36 39
47 48 47 47 49 46 42 31 14 21 27 30 33 34 32 33 33 34 30 28 33 33 30 23 18 35 39 37 34 36 30 28 21 21 24 31 28 26 25 28 30 33 31 34 37
47 47 48 48 49 46 37 25 20 25 28 33 31 28 29 34 32 32 29 29 32 34 28 27 30 38 39 40 40 34 28 28 23 22 22 27 24 22 25 26 27 27 28 30 31
45 45 45 49 48 44 34 27 26 29 33 31 26 29 27 29 29 32 30 32 33 36 36 32 29 36 38 40 37 34 31 25 26 21 15 19 20 18 23 25 27 28 30 31 32
44 39 46 49 47 39 30 26 29 32 35 30 28 30 28 29 30 27 28 32 36 36 36 32 29 32 32 33 30 30 28 27 26 24 17 16 16 22 22 24 28 30 32 33 35
42 34 47 48 36 36 32 29 34 34 35 33 33 32 30 31 31 31 29 31 35 34 32 32 29 26 31 34 35 32 29 26 21 20 20 18 18 26 25 27 30 31 32 34 36
39 39 47 45 31 32 31 31 33 34 34 33 32 33 30 30 29 32 32 35 35 33 33 31 26 24 25 26 30 30 32 28 26 24 20 17 18 26 30 30 30 30 31 34 35
39 33 40 42 38 32 31 30 33 35 34 34 32 31 32 30 33 31 32 36 35 34 38 33 27 22 18 21 28 27 30 29 26 21 22 21 21 26 28 28 27 32 31 31 33
40 36 37 32 34 32 31 32 32 31 33 31 29 30 32 29 30 30 32 33 35 36 34 29 23 20 28 30 29 29 29 30 23 25 22 23 25 23 28 30 31 30 32 32 33
37 36 35 34 34 33 31 32 30 31 32 30 29 30 31 30 30 31 33 30 30 32 30 31 24 24 23 26 26 26 28 29 30 30 28 27 27 29 29 30 31 33 33 32 32
39 38 37 35 33 31 30 31 30 34 35 32 30 31 30 32 32 33 32 34 32 31 30 29 26 22 19 24 23 20 24 27 28 29 29 27 29 32 30 29 30 32 33 32 32

GFSSW_sfc_dewp_093.txt.gz
Dewpoint
60 59 57 55 54 53 53 54 54 51 51 51 53 51 50 52 50 46 42 41 47 51 48 47 47 47 46 45 47 47 38 33 33 36 36 40 40 42 41 40 50 52 52 59 62
62 61 59 56 55 54 53 53 53 52 50 50 53 52 50 51 46 43 46 47 48 46 45 44 43 45 43 43 44 41 36 32 34 37 37 39 40 41 42 43 50 54 61 61 60
61 61 60 57 56 55 53 52 53 52 50 50 53 52 50 47 36 32 46 48 44 48 47 47 47 43 39 40 40 37 34 34 34 36 43 42 41 42 42 43 48 51 59 60 59
58 59 61 58 56 55 53 52 52 51 49 50 52 50 48 44 23 31 44 42 45 45 42 43 43 38 38 35 37 34 35 36 38 39 42 41 47 44 45 43 48 55 58 58 58
57 57 59 58 56 55 54 53 52 50 50 50 52 50 43 38 36 40 43 41 44 44 41 39 38 39 35 34 34 33 32 36 39 39 42 45 43 45 45 44 47 57 58 57 57
53 54 55 59 56 55 54 52 51 49 50 51 50 48 42 34 35 39 37 41 42 43 41 42 38 41 38 34 34 37 35 37 39 39 41 43 42 44 46 48 49 55 58 58 56
50 51 55 58 56 55 53 53 50 49 49 50 50 47 42 37 40 42 42 41 43 45 43 43 43 42 39 34 38 34 34 38 38 39 40 43 38 37 46 47 50 53 57 56 56
49 50 54 58 56 54 53 51 50 49 49 50 50 44 38 42 42 43 40 41 47 46 44 44 44 42 38 39 38 36 37 33 38 40 40 38 33 42 46 46 49 52 55 57 58
48 49 51 56 55 54 52 50 49 50 50 49 47 43 37 42 38 39 41 39 45 46 46 45 44 39 37 32 31 35 30 32 37 39 41 37 35 42 45 45 44 46 50 55 59
47 48 50 54 54 52 51 49 50 49 46 46 45 40 37 34 39 40 42 41 41 40 39 41 39 35 35 32 27 29 29 31 33 38 38 37 35 37 44 44 45 44 46 53 57
46 47 49 53 53 52 49 45 42 40 41 38 37 37 36 39 42 40 41 41 42 40 35 37 34 30 34 34 34 33 32 32 37 40 37 36 35 39 42 43 44 46 46 49 53
46 47 49 53 52 51 48 42 41 39 34 39 38 39 40 41 35 35 42 35 34 32 36 34 33 36 36 36 36 35 33 34 38 38 36 36 35 39 41 43 44 45 44 45 47
46 47 50 53 51 50 45 43 46 40 32 34 38 38 38 39 35 34 41 37 33 31 33 29 33 38 37 36 34 34 33 34 34 38 37 35 34 38 41 43 45 45 44 42 42
46 46 50 51 46 45 43 46 47 40 28 30 37 37 39 38 31 39 42 39 31 31 33 32 36 36 35 34 36 32 37 34 35 33 30 36 28 34 39 40 42 44 43 41 41
46 46 48 49 46 43 46 48 44 37 19 31 35 42 41 32 29 31 42 37 31 31 32 34 35 36 33 36 38 34 38 36 36 36 34 33 31 33 37 36 39 43 43 41 40
45 46 47 49 48 48 46 45 39 29 18 33 36 35 37 37 37 38 37 37 37 35 37 37 37 38 37 39 40 40 37 36 36 35 28 32 30 25 31 33 36 42 40 44 42
45 46 45 47 43 48 46 40 29 22 29 31 31 35 34 33 35 35 33 29 28 27 31 32 35 37 40 36 39 37 35 28 26 24 24 31 28 27 29 27 30 38 35 41 41
46 46 46 46 49 46 44 35 23 25 28 31 33 34 31 31 33 34 31 27 33 34 29 21 20 35 38 37 36 36 33 27 20 21 27 31 28 26 26 28 32 31 32 37 38
46 44 45 48 48 46 37 27 27 28 30 32 31 28 29 34 32 32 29 29 31 34 28 27 31 38 38 40 39 35 29 29 23 23 26 25 24 21 27 27 28 29 31 32 33
44 41 42 49 48 43 35 29 30 29 33 30 25 28 27 30 28 30 29 31 33 34 36 32 28 36 38 39 37 34 31 25 27 19 17 19 20 19 22 26 28 30 32 33 35
43 38 45 49 47 38 30 31 30 31 34 29 29 29 28 29 29 27 28 31 36 36 36 33 30 34 33 34 32 31 28 27 26 24 18 17 17 23 24 26 30 32 34 35 36
41 34 46 48 35 36 32 32 33 34 34 34 33 31 30 31 30 30 28 31 35 34 31 32 30 30 32 34 35 34 30 25 23 22 20 20 19 25 27 27 31 32 34 36 37
37 36 47 45 31 33 35 33 33 34 34 33 33 32 31 31 30 32 31 36 36 34 33 31 26 24 24 26 30 31 32 27 26 25 22 19 20 27 30 30 31 31 34 34 34
39 31 39 41 38 33 33 32 29 35 34 34 32 32 31 31 33 31 32 35 36 36 37 32 26 22 18 22 28 29 31 29 26 22 22 20 22 26 28 28 29 32 32 33 34
39 34 37 32 35 35 34 31 30 33 34 31 30 31 31 29 30 30 33 33 34 35 33 29 24 21 27 29 30 29 30 30 25 25 23 22 23 24 29 30 30 30 31 33 33
37 36 36 35 36 35 35 30 32 31 33 29 29 31 31 30 29 31 33 30 30 31 31 30 25 25 25 26 26 26 29 30 31 29 28 28 28 29 27 31 31 31 32 32 32
37 38 36 37 35 34 30 31 32 33 33 32 31 30 30 31 32 33 33 33 32 30 30 28 26 23 20 24 23 20 24 28 29 30 29 28 29 31 31 30 31 32 33 33 34

GFSSW_sfc_dewp_096.txt.gz
Dewpoint
59 61 62 60 57 55 54 53 53 52 51 49 49 53 52 51 52 46 39 35 40 49 47 41 38 40 42 40 42 42 37 31 28 26 26 26 28 35 40 38 36 42 48 51 58
57 59 60 62 58 56 55 53 52 52 51 49 50 53 51 51 44 39 40 47 49 45 42 36 34 37 36 36 38 37 31 27 26 27 27 29 30 32 36 39 40 40 51 60 62
54 57 59 59 60 57 55 54 52 52 51 49 50 52 50 46 36 28 45 50 46 48 42 40 40 40 35 35 34 32 32 26 28 29 30 33 33 35 38 37 39 38 43 60 59
52 54 55 58 61 58 56 54 52 51 50 49 49 51 48 41 30 31 46 43 44 46 43 39 38 38 35 32 31 30 28 29 29 30 33 32 36 35 37 37 39 41 47 59 59
49 51 52 55 58 58 56 54 52 50 48 49 50 51 44 37 35 35 44 41 40 42 39 38 38 37 35 33 31 29 28 26 29 29 31 37 37 38 40 43 43 42 44 53 58
49 49 50 52 56 58 56 53 52 49 49 50 50 49 42 36 35 38 37 39 40 40 40 39 39 37 36 36 33 27 27 28 29 29 33 34 36 40 40 46 48 46 45 47 54
48 49 49 50 54 58 56 54 52 49 49 50 49 47 42 40 38 39 41 40 41 42 41 42 41 41 40 35 35 32 29 32 32 32 34 35 36 37 39 43 45 47 44 49 54
48 48 48 49 52 58 55 53 49 48 49 49 49 44 40 41 41 41 41 38 45 44 42 44 46 40 39 36 32 31 35 31 31 32 35 38 32 31 42 44 45 48 45 49 54
48 47 48 48 52 55 54 52 49 49 50 49 46 42 37 41 39 37 39 37 42 44 45 42 42 39 37 32 28 29 32 33 33 34 37 38 32 34 39 38 41 47 47 51 55
48 47 47 48 51 54 51 51 51 49 47 47 44 39 39 34 37 38 40 40 39 40 40 42 40 36 34 32 23 30 29 27 29 36 37 37 39 37 37 39 42 46 48 51 53
47 47 47 49 52 52 50 48 42 40 42 34 37 36 36 38 40 38 39 40 40 40 36 36 35 31 31 31 27 31 31 29 36 37 36 35 36 36 36 39 40 46 50 53 55
47 46 47 50 54 51 48 42 41 40 34 38 38 39 39 40 34 34 41 35 34 33 35 35 32 34 37 35 34 33 30 31 37 39 36 36 36 36 37 37 40 45 49 53 55
47 46 47 51 52 49 46 43 46 40 33 32 38 36 38 38 33 31 39 35 31 33 33 31 30 36 36 34 35 32 26 32 33 36 35 35 36 36 38 40 41 45 45 50 53
47 45 45 49 47 47 44 47 47 43 33 31 36 37 38 38 31 36 41 36 31 31 31 32 34 36 34 32 35 28 31 32 34 33 29 33 29 35 37 42 43 44 43 44 50
48 46 45 46 46 43 45 48 46 40 25 33 36 41 39 34 29 31 41 38 29 30 34 32 35 37 33 35 39 31 36 34 33 32 30 32 32 35 38 38 40 43 44 42 43
47 45 45 48 48 47 48 46 41 32 23 33 36 35 35 35 36 34 35 37 36 34 38 36 37 38 37 38 40 40 35 35 36 33 28 33 34 32 31 29 38 41 43 45 42
47 46 45 44 42 47 47 41 32 27 28 32 31 34 33 33 33 33 31 29 31 32 32 31 36 36 40 37 40 37 33 30 27 29 26 34 33 27 27 28 31 38 40 43 43
45 45 45 43 46 47 43 36 27 26 28 33 33 33 31 29 31 31 28 25 31 33 30 29 28 36 37 38 36 35 33 28 19 22 26 32 29 27 29 30 32 40 36 39 42
45 46 45 46 47 46 39 30 30 30 32 32 32 29 30 30 30 30 28 28 30 35 30 28 32 38 39 40 39 34 30 28 26 27 25 26 24 30 30 31 32 33 34 35 36
45 43 41 48 48 43 36 29 32 31 32 31 25 28 25 26 27 28 28 31 33 33 35 32 31 36 38 38 37 34 31 27 31 23 20 19 22 26 28 29 32 31 32 34 36
43 38 42 49 46 38 32 33 34 33 32 29 27 28 28 28 28 28 29 33 37 35 36 32 31 34 35 35 33 31 28 27 26 24 19 17 20 24 26 29 30 32 34 35 36
41 34 45 47 35 36 33 35 36 33 33 34 32 31 28 31 28 29 29 33 36 35 32 32 31 31 31 33 35 34 30 25 26 21 22 21 20 27 26 31 32 34 35 36 35
38 37 46 45 32 34 35 35 35 32 33 33 33 32 32 31 29 32 33 36 35 34 33 30 30 29 27 29 31 31 30 28 26 28 26 21 21 28 29 31 32 33 33 33 33
37 32 38 40 38 32 34 34 33 34 34 34 32 32 32 32 33 32 33 35 36 36 37 32 28 26 24 26 31 31 31 29 29 30 21 22 24 27 29 30 32 33 33 33 32
39 34 38 33 35 35 35 35 29 31 34 32 31 31 31 31 32 32 34 33 34 35 33 31 32 30 28 28 30 29 31 29 31 26 26 23 24 27 29 29 30 31 32 32 32
36 37 37 36 36 35 36 34 29 32 33 31 31 32 31 29 29 31 33 32 31 32 32 31 32 28 26 26 26 28 29 31 30 28 28 27 27 27 30 31 30 31 32 32 33
42 39 36 37 35 34 31 30 30 34 33 33 32 31 31 32 33 34 34 33 33 31 30 30 30 30 27 25 24 22 25 28 30 31 29 25 29 31 30 30 31 33 33 35 35

GFSSW_sfc_dewp_099.txt.gz
Dewpoint
53 55 57 60 60 60 57 55 53 53 52 51 49 49 53 50 51 46 38 39 35 44 50 40 36 34 38 38 36 37 31 28 25 25 24 23 21 20 25 27 30 32 34 42 57
51 52 56 57 59 60 58 56 54 53 53 50 49 50 52 51 45 38 38 43 45 48 40 35 31 33 32 32 35 34 29 27 24 23 23 23 22 22 22 25 30 34 36 41 58
50 49 52 54 55 58 59 57 55 53 52 50 49 51 50 48 37 29 46 49 51 48 40 36 36 36 34 29 30 31 29 25 23 23 24 24 24 24 25 25 28 30 35 49 57
49 49 49 51 53 56 60 58 55 52 52 49 49 51 50 42 29 30 50 50 45 43 41 39 37 35 34 29 27 26 28 26 27 25 24 25 26 28 30 29 31 30 35 46 56
50 49 49 50 51 54 57 58 55 53 51 49 50 52 46 38 33 36 47 44 38 38 38 37 36 36 34 31 29 27 26 26 27 26 26 25 26 31 28 32 36 35 41 49 50
48 49 48 49 50 52 55 57 54 52 50 49 52 51 43 36 35 34 37 37 37 38 38 38 37 37 36 34 33 32 30 28 28 27 26 25 24 27 31 34 36 42 44 45 47
49 48 48 48 49 51 55 56 54 52 49 50 51 45 41 36 35 36 37 38 38 39 39 39 41 39 38 35 34 34 30 29 29 28 26 25 24 25 29 33 37 40 43 46 45
50 48 48 48 49 50 56 54 53 51 50 51 51 44 36 41 39 38 38 38 38 43 42 42 43 41 39 36 33 30 30 27 26 27 30 28 26 26 28 32 35 39 43 45 43
50 49 48 48 48 52 55 53 50 51 51 50 45 41 36 42 38 36 36 34 38 44 43 41 43 38 38 36 30 27 26 28 31 32 29 29 30 30 29 37 37 39 42 45 45
49 49 48 47 48 52 53 52 52 51 49 46 44 40 38 34 36 35 36 38 38 41 40 42 40 38 34 33 24 24 27 28 35 31 29 30 32 34 38 37 37 41 43 43 44
50 49 48 47 48 50 51 48 43 40 41 36 37 35 34 37 39 37 36 38 39 37 36 37 36 32 30 30 28 27 28 28 36 37 29 31 32 31 32 35 37 40 45 43 47
50 49 47 47 53 53 48 43 40 41 37 37 35 37 38 39 32 34 38 35 33 32 36 36 32 32 35 35 31 30 28 29 34 36 32 31 30 31 33 34 35 39 41 47 50
49 48 46 47 51 49 47 42 45 41 36 34 36 36 36 39 31 29 36 33 30 29 31 32 31 32 36 34 32 30 29 29 34 38 36 34 34 35 37 38 37 40 40 49 51
49 49 45 49 47 47 44 46 47 42 35 33 35 36 38 36 32 32 37 35 29 29 30 29 31 33 33 31 32 32 28 31 34 36 31 33 29 35 38 38 39 39 43 51 52
47 49 46 46 45 44 45 46 46 39 25 34 36 40 38 33 30 32 39 36 29 28 32 30 32 37 35 37 38 32 30 34 32 30 35 31 29 35 37 38 40 44 46 52 52
48 48 46 44 45 46 48 46 41 32 25 34 36 34 34 34 29 32 33 37 35 33 34 34 35 37 36 37 38 37 33 32 33 33 31 35 33 34 35 35 43 42 43 47 51
46 47 45 42 41 48 46 41 32 28 30 32 31 32 31 31 32 28 29 30 29 33 32 30 32 36 40 36 38 38 30 30 29 29 28 35 34 33 34 36 41 43 43 43 45
46 45 44 40 45 48 43 35 28 27 31 33 30 30 28 28 30 29 27 27 30 31 30 29 29 35 38 38 36 36 35 32 18 25 29 34 30 33 35 37 41 40 41 45 45
45 45 44 43 44 46 39 31 32 32 31 30 30 27 26 26 27 26 25 28 30 32 32 28 32 36 39 38 38 32 31 28 26 24 23 30 34 36 38 35 38 36 39 38 40
46 42 40 44 44 43 35 30 35 33 32 30 27 28 23 23 24 26 27 30 32 33 34 37 32 36 38 41 39 37 32 29 32 23 19 27 30 32 37 35 38 39 36 36 38
42 36 43 47 45 39 32 34 35 33 33 30 27 25 22 22 28 25 27 33 36 35 37 37 35 34 36 33 32 32 27 26 24 24 18 19 28 25 30 35 32 34 35 36 36
41 34 45 46 36 37 35 35 36 34 32 33 32 29 24 26 26 27 28 34 38 35 36 34 33 33 31 32 33 33 27 25 26 21 23 23 24 26 30 31 33 34 34 34 34
39 37 46 44 33 34 35 36 36 33 34 34 32 31 30 29 27 29 32 36 35 34 32 30 29 30 28 29 31 30 29 26 26 31 27 22 23 27 30 31 32 32 32 32 32
39 34 37 40 39 32 35 35 32 34 34 35 32 30 30 30 31 31 31 35 36 35 37 34 30 29 27 29 31 30 27 26 30 31 21 22 25 27 29 31 32 32 32 32 33
40 36 37 34 34 34 36 35 29 31 35 35 31 29 29 28 28 30 32 32 33 36 33 31 33 32 27 28 30 29 28 26 30 25 27 24 25 26 28 30 31 32 32 32 33
37 36 37 35 35 37 34 31 27 31 34 33 30 30 29 29 30 28 30 30 30 31 31 31 34 30 26 26 27 28 29 28 27 25 24 25 25 28 30 29 30 31 32 32 33
42 39 35 37 36 33 30 29 29 32 34 33 32 29 30 34 34 34 33 33 32 30 29 30 31 31 27 26 24 23 25 27 29 29 26 24 28 29 30 30 32 33 33 34 35

GFSSW_sfc_dewp_102.txt.gz
Dewpoint
51 51 50 53 56 57 59 60 57 54 53 53 51 50 50 54 52 48 45 40 40 45 46 40 37 35 35 38 39 37 32 28 27 25 24 25 24 25 24 21 21 25 28 42 59
51 50 50 51 51 54 56 59 58 55 54 53 50 50 52 53 48 43 43 46 44 49 42 36 31 32 32 32 37 34 30 28 27 24 22 23 23 23 22 21 21 24 28 36 58
50 51 49 49 49 51 54 57 59 56 54 53 50 50 52 50 42 34 48 47 50 48 39 34 34 34 34 33 30 32 30 30 29 27 26 24 22 23 22 23 22 23 27 32 50
50 50 50 49 49 50 52 55 59 57 55 52 50 51 52 46 32 36 49 52 50 44 39 37 36 35 34 31 29 25 27 27 29 28 28 25 24 23 23 24 29 30 35 42 47
51 51 49 49 49 49 50 54 56 57 54 51 50 52 48 40 36 44 50 47 41 39 37 36 36 35 31 31 30 29 29 28 27 27 27 27 24 24 24 28 33 31 35 43 49
51 51 50 49 49 49 50 53 55 55 53 50 51 53 45 37 35 39 41 38 35 36 37 37 37 36 35 34 33 32 31 32 33 32 28 25 25 25 24 24 29 32 34 44 48
51 51 50 49 49 49 50 53 56 55 52 51 53 48 42 37 35 35 36 35 38 38 37 40 41 39 38 34 34 35 31 33 33 31 30 29 27 25 24 23 24 30 33 44 47
51 51 50 50 49 49 51 55 55 53 52 52 53 47 39 41 40 36 37 37 38 40 41 41 43 40 38 38 34 32 33 30 29 29 30 30 25 26 24 22 23 29 35 45 44
50 50 50 49 48 48 54 55 53 51 51 51 47 45 36 43 37 37 37 34 37 43 42 40 43 40 38 35 30 30 26 29 29 31 31 30 26 29 26 24 24 26 42 44 44
49 49 50 49 48 48 52 52 52 52 51 48 46 40 38 35 36 34 35 35 37 41 41 41 39 36 37 34 24 27 28 28 27 33 37 32 29 31 29 28 30 39 41 43 43
50 49 49 49 48 51 49 48 43 41 45 38 37 35 35 37 38 36 34 37 37 36 34 39 36 30 29 31 32 29 30 29 27 32 37 31 29 29 35 39 35 40 43 46 45
49 49 48 47 51 52 49 44 41 45 38 41 39 37 38 39 33 34 36 34 35 32 35 36 30 31 33 31 34 34 31 28 29 36 36 32 28 31 35 39 37 36 39 43 47
49 49 48 48 50 49 45 44 46 42 37 37 37 38 37 38 32 32 35 34 31 31 29 33 31 31 35 34 35 31 29 27 32 36 35 35 32 33 34 39 38 38 39 41 48
46 48 49 47 46 47 44 48 48 46 34 33 33 35 37 38 33 32 35 35 30 28 27 30 34 32 33 34 34 29 32 32 36 34 31 35 27 34 36 37 38 38 39 44 52
47 48 48 47 45 43 46 48 48 43 23 36 35 40 38 34 31 31 38 36 29 27 30 29 33 35 33 34 36 31 35 35 35 34 32 35 30 34 37 37 38 40 44 51 52
48 47 47 43 45 46 49 46 43 32 23 33 36 35 34 34 26 32 34 37 36 32 31 31 33 37 36 37 37 37 35 34 33 33 29 35 33 32 33 36 39 46 50 51 52
48 47 45 42 42 48 46 42 31 26 35 30 31 32 33 29 31 27 26 31 31 30 30 31 32 36 39 36 38 37 35 28 27 28 27 34 32 32 37 38 42 46 48 51 51
47 46 44 41 49 47 43 35 26 31 34 32 30 30 33 29 30 28 28 27 30 29 32 29 28 35 38 37 35 37 35 29 24 25 30 32 28 32 40 41 44 46 47 46 47
45 46 44 44 48 46 39 29 29 33 33 29 29 26 25 27 28 26 26 29 31 32 33 31 32 37 38 38 38 36 33 30 31 31 29 32 33 37 39 40 39 40 44 46 46
47 43 42 45 46 43 35 32 33 34 33 30 28 26 21 23 24 25 25 31 33 34 36 36 31 35 37 39 39 37 35 28 32 27 25 28 28 32 35 39 39 38 40 42 42
44 37 44 47 45 39 31 33 36 33 32 33 32 24 20 22 28 33 29 34 35 36 38 37 33 35 37 35 32 33 29 28 26 25 22 23 28 37 37 37 37 39 38 36 36
41 33 45 47 35 36 34 36 36 33 33 33 33 28 25 25 28 29 31 35 38 39 36 37 36 31 31 33 33 33 28 25 25 23 26 27 28 34 34 34 35 35 33 36 33
38 37 45 45 31 32 36 34 35 33 33 34 32 30 30 30 29 31 32 37 36 35 32 32 30 28 27 29 32 30 27 28 31 33 24 23 26 30 31 32 32 31 32 32 33
39 34 39 41 38 32 33 32 31 36 34 34 32 31 31 29 31 30 31 37 37 35 38 37 30 29 25 27 31 29 27 27 30 26 24 25 26 29 31 31 31 31 32 33 35
40 35 36 34 35 33 35 32 27 31 35 35 32 31 29 28 29 31 32 32 34 38 34 33 28 25 27 29 30 29 28 26 25 26 25 26 26 28 30 30 31 32 32 33 35
37 35 36 35 35 33 33 31 28 32 35 31 31 30 32 31 31 29 31 31 30 30 30 32 28 27 25 26 28 26 28 29 29 26 26 26 26 29 30 30 31 32 32 34 35
42 40 35 36 33 31 29 30 31 34 35 34 33 33 33 34 33 33 32 32 32 31 29 30 30 28 23 27 26 23 25 28 29 30 27 25 28 30 29 31 33 33 34 35 35

GFSSW_sfc_dewp_105.txt.gz
Dewpoint
50 50 51 49 51 50 52 56 58 59 57 55 53 51 51 52 54 50 46 45 45 46 43 43 39 38 35 37 39 37 32 30 29 28 28 27 25 25 26 24 24 23 23 45 62
51 50 50 51 48 49 50 53 56 59 58 55 53 50 50 53 50 47 50 50 50 48 45 44 34 34 32 32 36 34 30 28 29 28 26 26 25 25 23 22 22 24 26 54 60
52 51 51 50 51 50 49 50 53 57 57 55 53 51 52 51 45 41 51 49 48 48 44 36 36 37 34 34 32 33 30 30 31 31 31 30 27 26 24 22 23 25 29 35 46
52 52 51 51 50 50 49 49 52 55 57 56 53 51 53 48 33 39 48 49 53 47 43 39 38 35 33 32 32 27 29 29 30 31 29 26 26 25 24 23 25 29 34 36 46
51 52 51 51 50 50 49 49 51 55 58 55 54 53 49 43 40 42 52 52 45 44 41 38 36 36 31 31 33 31 31 31 32 32 30 28 26 25 25 25 25 26 29 36 45
52 51 51 51 50 50 49 49 50 54 57 56 52 54 46 38 43 47 43 42 40 39 38 38 37 37 35 34 34 34 34 33 33 33 33 33 32 27 25 26 26 26 27 32 43
52 52 51 50 50 50 49 50 51 55 56 53 53 48 43 38 37 42 41 39 40 39 38 41 41 39 37 35 35 35 34 35 33 33 33 34 30 29 27 25 26 26 25 30 44
51 51 50 50 50 49 50 55 55 55 54 55 55 48 41 46 37 37 36 38 40 42 43 43 43 41 37 38 35 32 32 28 31 33 35 33 25 28 28 26 25 26 26 26 43
50 51 51 50 50 48 50 54 55 54 53 54 50 47 37 43 38 37 38 37 40 43 43 41 43 39 37 32 28 30 22 26 29 33 32 32 29 31 29 27 26 25 26 27 44
46 50 50 49 49 48 49 53 53 53 51 47 46 39 40 38 39 38 39 39 39 43 42 41 38 34 35 31 19 24 25 28 28 31 33 32 34 36 32 30 30 37 35 40 42
49 50 50 49 47 49 49 47 42 39 46 40 40 37 39 38 39 36 37 38 39 39 34 39 34 29 29 32 31 31 30 28 30 33 34 33 34 35 33 36 36 38 39 39 43
48 49 47 48 48 51 48 42 42 42 37 43 42 40 39 40 35 36 38 36 36 30 35 35 31 32 34 33 32 30 31 30 31 33 37 35 33 33 33 34 38 39 39 37 44
47 47 47 47 48 48 44 45 49 46 38 41 41 40 38 39 33 35 37 36 33 31 30 29 30 33 33 34 34 34 31 29 29 32 36 35 33 33 34 36 36 39 39 40 41
46 48 46 47 43 45 42 47 48 47 33 34 37 38 38 39 35 37 38 37 32 28 29 29 31 32 32 32 35 31 32 31 35 34 29 36 25 34 36 37 38 38 38 40 43
46 48 47 47 45 43 46 48 49 45 20 36 36 41 39 36 32 34 39 37 31 30 30 26 34 35 33 33 36 32 36 36 35 35 32 32 30 34 37 34 37 38 39 45 51
48 48 47 44 44 46 48 48 43 30 20 33 36 37 34 35 31 36 37 38 36 34 32 30 35 36 35 37 38 37 36 35 35 34 28 34 33 31 33 35 37 40 43 49 51
48 47 45 45 43 47 45 40 28 24 36 30 32 34 33 30 29 31 31 32 29 25 28 31 33 36 38 34 37 37 34 25 26 27 27 35 31 31 35 39 39 45 48 50 52
47 47 45 46 47 44 42 35 24 32 30 34 32 35 32 32 31 28 28 25 31 32 29 23 23 34 38 36 35 34 36 28 21 25 29 34 27 29 37 46 46 47 47 47 47
48 43 43 46 46 44 37 27 29 33 34 30 31 26 27 28 28 28 26 28 32 30 31 30 30 37 38 38 38 35 34 37 31 33 29 30 32 36 38 41 44 45 45 45 46
42 40 41 46 43 41 31 32 34 34 34 35 28 24 23 23 24 27 27 33 34 37 37 35 29 36 36 39 39 36 37 31 32 23 24 28 29 29 34 39 41 42 43 44 45
40 34 41 46 42 35 30 33 35 35 34 35 31 25 21 23 30 32 33 35 36 39 38 37 33 34 37 36 31 34 31 31 27 27 25 23 28 36 38 38 38 38 37 41 44
38 30 44 45 31 36 32 34 37 35 34 34 33 29 23 27 29 33 34 36 40 39 37 38 35 29 30 32 34 32 31 26 24 23 26 25 30 39 39 39 37 38 33 33 34
36 37 42 41 27 28 33 33 35 34 34 34 31 30 30 32 29 32 34 38 39 36 32 33 29 24 25 27 30 31 29 28 31 28 25 21 30 35 32 32 31 31 35 34 34
35 25 34 37 37 30 30 30 32 36 35 35 34 30 30 29 31 30 32 36 37 35 39 36 29 27 21 26 30 28 28 28 28 24 26 28 32 30 31 31 31 32 34 35 35
36 30 32 28 32 32 31 31 32 32 35 34 31 33 31 30 30 30 31 32 35 38 33 32 26 24 26 29 29 27 28 28 27 27 25 29 29 30 30 31 31 32 34 35 35
34 33 36 34 33 29 30 29 32 33 33 32 33 34 33 32 32 31 31 31 30 31 29 32 25 27 25 26 26 25 27 29 28 27 27 27 27 30 31 31 31 32 34 35 35
39 39 33 33 31 30 28 30 33 34 34 35 35 33 33 34 34 34 33 32 32 30 30 29 28 25 21 25 25 23 25 27 29 30 28 26 28 29 30 32 32 34 35 35 36

GFSSW_sfc_dewp_108.txt.gz
Dewpoint
52 51 51 50 51 50 49 49 52 55 60 58 57 54 51 53 54 50 47 47 48 47 40 43 39 37 34 35 37 36 30 30 29 29 30 27 26 26 26 24 24 24 24 38 57
55 55 54 52 51 50 50 49 49 53 57 58 56 54 51 52 51 48 50 52 50 48 44 43 34 35 31 32 35 33 30 29 30 29 28 29 29 28 26 25 24 24 28 34 40
55 54 54 53 53 52 49 50 49 50 54 59 57 54 52 52 44 43 52 54 51 48 41 37 37 36 33 33 32 33 31 29 31 32 32 32 31 28 25 24 23 24 27 34 42
53 53 53 52 52 52 50 49 49 49 53 57 56 53 54 47 31 40 54 52 50 47 40 39 37 34 32 31 33 29 30 32 32 31 31 28 27 25 25 25 26 25 28 34 38
51 52 52 52 52 51 50 49 48 49 52 56 55 53 50 43 41 41 51 51 46 43 40 38 35 35 31 32 33 32 32 33 34 34 34 33 31 28 26 25 26 27 28 31 37
50 52 52 52 52 51 50 50 49 48 53 57 55 55 46 38 42 45 47 43 42 40 38 38 36 36 34 33 32 33 34 34 35 33 33 32 31 33 31 28 27 27 28 29 32
50 50 51 51 51 51 50 50 50 53 52 57 56 51 46 39 44 44 41 41 40 39 38 42 41 36 36 34 36 34 33 33 35 36 34 35 32 31 31 30 27 27 26 29 32
48 48 49 52 51 50 49 50 54 55 54 56 55 50 42 46 42 41 39 39 40 44 43 43 42 39 37 37 33 33 31 27 30 34 35 33 26 29 29 29 28 28 28 28 30
48 47 48 48 49 50 48 49 53 55 56 55 49 46 39 45 40 37 38 38 40 43 42 43 41 37 36 32 27 28 19 25 29 33 33 31 29 31 32 29 28 28 29 29 31
47 49 50 48 49 50 49 50 54 53 52 48 49 43 41 38 38 38 39 40 41 43 42 40 39 34 33 30 15 21 23 27 27 29 31 32 31 33 35 36 31 28 31 36 38
48 48 48 49 49 48 49 44 40 42 45 41 40 38 39 40 40 39 38 38 41 40 32 39 31 28 28 30 29 29 29 29 29 31 32 32 33 34 36 37 33 33 36 37 39
47 48 48 48 51 51 47 43 40 42 37 44 41 38 39 38 34 36 39 35 36 31 35 33 30 31 32 31 31 31 30 28 30 32 34 33 32 34 34 34 34 34 36 37 39
47 47 47 47 48 47 44 45 49 48 37 39 43 40 39 38 35 36 37 36 34 30 29 27 27 32 32 31 32 32 29 29 29 31 35 33 32 33 34 35 34 36 39 39 39
48 47 47 48 44 43 41 47 48 47 33 35 38 41 40 39 34 38 38 36 33 29 30 29 31 30 30 31 31 30 31 33 33 33 28 34 25 32 35 36 37 38 37 39 40
49 48 47 46 44 43 45 48 47 43 18 36 38 41 39 37 34 34 38 36 31 29 31 27 31 34 33 33 35 32 35 34 34 32 32 32 29 29 35 33 35 37 38 39 41
48 47 47 43 45 46 48 48 41 25 14 33 36 37 35 36 33 36 36 37 36 33 33 31 34 34 33 37 37 37 36 35 34 34 26 32 31 31 33 35 35 37 40 40 48
48 48 47 46 42 47 44 40 26 21 35 32 32 34 32 31 31 32 32 31 28 26 26 30 32 35 37 34 36 36 34 23 22 25 24 35 32 32 36 37 37 40 46 49 51
49 47 46 46 46 44 41 29 21 29 30 33 33 34 31 32 32 29 27 25 30 31 27 28 20 33 38 35 35 34 34 27 21 24 26 33 27 31 37 45 46 46 47 48 48
47 42 43 45 44 43 33 25 29 32 34 31 34 27 28 30 28 27 26 26 31 31 30 29 25 37 37 38 37 35 34 37 31 32 28 31 32 34 37 41 44 44 45 46 47
41 38 40 46 45 38 31 31 34 35 35 34 26 24 22 24 23 27 28 34 36 38 38 35 28 35 36 39 39 36 38 32 32 24 22 26 29 28 32 38 40 42 43 45 46
38 33 39 45 40 35 31 33 35 35 35 36 30 22 22 27 30 31 34 36 39 38 39 37 34 32 37 35 32 35 35 34 31 28 25 22 28 35 36 38 36 41 42 42 44
36 27 40 43 31 35 32 33 36 35 35 33 33 27 22 28 32 35 35 36 39 39 36 37 34 28 30 32 34 33 32 29 25 26 26 26 28 39 39 38 35 34 40 38 40
33 33 39 39 25 30 31 32 35 34 34 34 32 31 30 31 30 34 34 37 39 39 34 36 29 25 23 24 30 31 30 28 30 28 25 23 30 37 37 38 37 35 34 34 35
33 25 32 35 34 28 28 29 31 35 35 34 34 31 30 30 31 30 32 35 36 36 40 35 28 25 22 26 29 28 28 28 27 25 27 29 31 30 30 31 33 34 35 35 36
34 30 31 27 31 31 30 31 31 32 35 34 33 34 31 30 29 30 31 31 33 35 33 29 26 23 26 27 28 27 28 28 26 28 23 29 29 30 30 31 33 34 35 35 36
34 32 34 31 32 30 30 29 32 33 32 32 33 34 33 32 31 30 31 31 31 31 30 31 24 26 23 26 26 24 26 28 29 29 30 30 29 31 31 31 33 34 35 36 36
38 38 33 31 29 29 27 30 32 34 34 35 34 32 32 33 33 33 33 32 32 31 30 29 27 24 18 24 24 18 24 26 28 29 29 27 29 30 31 31 33 34 35 36 36

GFSSW_sfc_dewp_111.txt.gz
Dewpoint
55 55 55 55 54 52 51 51 49 50 53 57 59 57 53 52 53 50 47 46 47 49 40 42 37 34 33 35 37 35 30 28 29 31 30 28 27 28 28 25 26 24 25 35 36
54 54 54 54 53 53 54 51 50 50 50 54 58 57 53 53 51 47 50 52 54 49 42 37 33 33 32 32 34 31 28 27 31 29 28 30 30 30 27 26 25 25 26 30 34
53 53 53 53 53 53 52 52 49 49 49 53 58 56 53 51 42 41 53 53 52 47 39 38 37 35 32 32 31 33 29 31 30 31 32 31 29 31 26 25 26 24 25 29 33
50 51 52 53 53 53 52 51 51 48 48 51 58 56 54 46 32 40 52 55 51 44 40 38 36 32 31 28 32 28 31 32 33 32 32 30 29 28 27 26 27 26 28 29 32
53 50 50 52 53 53 52 51 50 48 47 49 57 56 48 42 40 40 55 51 45 43 39 37 35 34 30 31 32 31 32 33 34 35 35 34 32 31 31 31 31 30 29 31 34
51 50 49 50 52 52 51 51 50 50 48 50 56 54 45 38 43 45 45 43 42 40 39 38 35 35 33 32 31 33 34 34 34 35 34 33 32 32 31 32 30 30 30 30 32
48 47 48 48 49 51 50 50 50 50 51 51 55 50 44 41 46 45 43 41 41 39 38 41 39 34 35 32 36 35 32 33 33 34 35 35 32 31 31 31 31 32 31 31 33
48 48 47 47 49 51 48 49 50 53 53 52 54 49 42 49 47 41 39 39 42 43 43 43 41 39 36 36 32 32 30 26 28 34 34 32 26 29 31 31 30 31 31 31 31
48 49 49 49 46 48 50 48 52 54 53 55 49 46 41 49 45 38 39 38 42 42 44 41 39 36 35 31 25 26 19 24 28 33 32 32 28 31 32 30 30 30 30 31 32
48 48 49 49 48 49 49 49 52 51 52 49 49 41 43 39 43 44 40 41 42 42 41 40 38 33 30 30 15 20 22 26 27 28 31 30 29 31 32 34 33 32 31 31 32
49 48 47 48 48 49 44 43 41 40 45 39 40 40 41 40 44 43 39 37 42 40 32 37 29 23 27 29 28 28 29 27 29 31 30 30 30 32 34 36 36 37 34 32 34
48 48 48 49 50 49 47 38 40 41 38 44 41 40 42 40 38 37 39 36 36 31 35 34 27 29 30 30 30 30 29 27 29 31 31 31 31 33 34 35 36 36 34 35 36
48 48 48 48 48 46 46 45 49 48 37 39 42 39 39 38 35 35 37 36 33 30 29 26 26 31 32 31 31 30 30 27 28 31 33 33 30 32 34 36 36 35 35 36 39
49 48 48 48 43 43 42 48 49 47 32 34 38 38 39 40 34 38 38 35 33 29 29 28 29 29 29 29 30 29 29 30 30 33 26 31 23 27 33 35 36 36 37 37 38
49 50 47 47 43 43 46 47 47 42 14 37 38 40 39 36 34 34 38 35 31 29 30 25 29 33 33 32 33 31 35 35 34 33 31 29 29 27 33 33 35 37 36 40 40
50 50 47 43 44 47 48 46 39 21 18 32 36 35 35 35 33 36 35 36 35 32 32 30 33 34 32 35 36 37 36 35 34 33 26 28 30 22 32 36 37 37 38 41 41
49 48 46 46 42 45 43 38 22 17 34 32 32 34 31 31 32 32 32 29 27 20 23 29 31 33 36 33 34 37 34 22 19 21 22 35 32 29 36 36 40 39 41 47 48
49 46 45 44 45 44 39 28 18 29 29 33 33 32 30 31 30 29 27 25 30 30 28 28 18 32 37 34 33 34 33 27 19 18 24 34 27 32 37 43 45 46 46 47 48
46 41 41 43 45 42 34 27 28 30 33 33 33 27 28 30 29 27 26 25 31 31 27 28 26 36 37 37 37 34 33 37 31 31 28 30 32 35 36 40 43 44 45 46 46
40 37 37 43 44 37 33 31 32 35 35 33 26 24 22 24 24 26 27 34 35 37 37 36 28 32 36 38 38 36 38 32 32 24 23 28 29 27 32 35 40 42 43 43 44
36 30 36 43 40 35 30 32 35 35 35 34 30 22 23 28 29 31 34 36 38 38 39 36 33 30 37 34 32 36 35 36 35 29 24 23 27 34 34 36 39 40 42 42 41
34 27 38 40 31 29 29 32 36 34 35 33 33 26 23 31 35 35 35 36 38 38 34 37 34 29 29 32 35 35 34 31 27 26 25 27 28 37 38 38 38 38 39 36 37
32 32 38 37 25 26 30 31 33 34 34 34 32 31 30 30 29 34 35 37 39 38 35 36 28 23 21 24 29 30 31 29 31 29 26 22 29 38 39 37 35 34 35 35 36
32 27 33 35 32 28 29 29 31 34 34 34 33 32 31 30 31 30 31 34 37 38 41 34 28 25 21 26 29 27 27 29 29 24 26 27 29 30 31 32 34 34 35 36 36
33 30 31 26 30 29 29 30 32 32 34 34 32 33 32 29 30 30 31 31 33 34 35 29 25 23 25 26 26 26 27 28 26 28 24 29 28 29 31 33 34 35 35 36 36
34 31 32 30 30 28 29 29 31 33 33 32 32 33 33 30 30 29 31 30 29 31 30 31 25 27 22 24 25 24 26 28 29 30 30 30 28 31 32 33 34 35 36 36 37
37 37 31 29 28 27 28 30 32 34 33 35 34 32 31 32 34 33 33 33 32 29 29 29 26 23 17 24 22 16 25 27 28 29 30 27 29 31 31 32 34 35 36 36 37

GFSSW_sfc_dewp_114.txt.gz
Dewpoint
53 54 53 53 54 54 54 54 50 49 49 53 55 59 56 54 53 51 46 45 47 48 43 39 35 33 34 34 37 35 29 26 27 31 28 29 28 29 30 27 26 25 24 33 33
53 53 53 53 54 54 53 53 52 49 49 49 54 58 55 54 50 46 49 52 50 48 39 34 33 33 32 31 34 30 24 24 30 30 27 30 30 30 29 27 26 26 27 27 31
54 54 52 52 53 53 53 52 52 50 48 47 52 57 54 51 43 42 52 53 54 46 40 37 36 34 31 31 31 33 26 30 30 31 32 30 28 30 28 26 26 26 24 28 30
51 53 52 51 51 52 53 53 52 51 48 45 51 57 56 47 34 39 54 54 50 42 40 37 34 31 29 27 32 27 31 32 32 33 34 32 31 31 28 27 28 28 28 30 30
51 51 51 51 50 51 52 53 52 51 47 46 50 57 48 43 39 43 56 53 43 41 38 36 33 32 28 31 31 30 31 34 34 34 34 34 32 31 31 31 31 32 32 32 33
49 48 48 49 49 50 51 51 52 50 49 47 51 53 47 39 47 47 43 43 41 40 38 36 34 34 33 32 30 33 34 34 34 34 34 33 32 32 31 33 32 32 32 32 33
49 48 47 47 47 50 50 50 49 49 50 49 51 51 46 43 48 46 41 42 41 39 40 40 38 34 34 31 35 34 31 32 32 34 33 35 30 31 31 31 31 31 32 33 35
48 48 48 47 46 50 50 49 50 50 51 51 53 49 43 51 50 43 39 40 44 43 42 41 40 37 35 35 30 30 28 23 26 34 34 31 26 27 29 30 30 31 31 32 34
48 48 50 49 46 45 49 50 52 53 54 52 48 45 41 51 47 45 40 40 42 43 43 40 38 35 33 28 21 25 19 24 27 31 32 31 28 31 32 32 31 31 31 32 33
49 48 49 49 49 50 50 51 51 51 49 48 48 40 44 43 45 41 42 43 42 42 40 38 36 30 30 24 14 20 22 25 26 28 31 30 29 31 32 32 31 32 33 34 34
49 49 49 50 46 47 43 44 41 41 45 39 39 39 42 45 42 41 41 40 42 38 32 35 26 19 25 27 25 27 25 24 27 30 30 30 30 31 33 34 34 35 36 36 36
49 49 49 50 49 49 44 39 41 44 38 44 42 42 44 42 38 38 40 36 37 30 34 30 23 28 29 29 29 29 28 26 27 30 30 30 30 31 33 34 35 35 36 37 36
50 48 49 49 47 47 44 45 49 48 36 39 43 41 41 41 37 36 37 36 33 29 29 24 25 31 31 30 30 29 27 27 27 28 31 31 28 29 32 36 36 37 36 36 35
50 49 49 46 43 43 44 48 49 47 32 34 38 39 39 39 35 38 38 35 33 27 28 27 29 28 29 29 30 27 30 30 28 30 27 31 23 25 32 34 35 36 36 37 38
49 49 48 47 44 44 45 47 46 40 14 36 38 40 40 34 33 33 38 35 30 28 28 23 28 30 31 31 31 30 34 34 33 33 32 29 28 26 33 32 35 37 37 38 39
48 48 47 45 44 44 45 43 36 20 17 30 37 35 33 33 34 36 35 35 35 31 30 28 31 32 30 32 33 34 34 34 33 34 25 27 29 25 33 35 36 38 39 41 44
49 47 45 44 39 44 43 36 21 18 33 28 30 33 30 30 30 31 31 28 25 18 21 28 29 32 34 32 33 35 34 20 16 23 20 34 32 32 36 37 42 43 45 47 48
49 45 44 44 44 43 37 27 19 28 29 33 33 32 28 30 27 28 27 25 28 28 27 24 17 31 37 33 31 34 34 27 16 17 23 33 25 31 38 38 44 45 45 45 46
45 40 39 40 44 40 34 27 26 29 32 31 32 26 27 30 28 27 24 25 28 31 24 26 22 34 36 36 36 34 33 37 31 30 27 29 32 36 35 37 41 42 43 43 43
39 35 34 41 41 37 31 31 31 35 35 32 25 24 21 24 24 24 25 32 34 33 35 33 28 30 36 38 38 36 38 32 32 23 22 28 28 27 31 33 37 40 40 41 42
35 31 35 41 39 35 30 31 33 35 35 34 29 22 23 29 30 30 31 34 37 38 39 36 33 28 36 34 33 36 35 36 35 30 24 23 27 34 32 35 36 39 39 39 40
33 29 38 39 32 28 28 32 35 34 35 33 33 27 24 35 34 34 34 35 38 38 34 36 34 29 28 32 35 36 35 34 27 27 26 27 28 38 37 38 38 37 37 37 37
31 30 37 38 26 24 29 30 33 33 34 33 33 33 30 30 29 33 34 36 38 38 35 35 28 23 20 25 29 29 31 30 30 29 26 23 29 38 39 38 35 34 35 36 37
32 26 33 34 31 27 27 29 31 34 34 34 33 33 31 30 31 30 30 33 37 38 41 36 28 25 21 25 28 27 27 29 30 24 27 27 31 33 33 32 34 35 36 36 37
33 29 31 25 30 27 28 29 31 31 34 34 32 33 32 28 29 29 31 30 33 34 35 29 24 23 25 26 26 27 26 28 25 27 23 27 28 29 31 33 33 35 36 36 36
32 31 30 29 29 26 28 29 31 32 33 32 31 33 32 30 29 29 31 29 28 31 29 30 24 26 22 23 25 24 26 27 29 30 30 29 27 31 31 32 33 35 36 36 36
36 35 30 29 27 26 27 29 32 33 33 35 33 32 30 32 33 33 33 33 32 29 29 28 26 24 17 22 21 17 23 27 28 28 29 27 29 31 31 32 34 35 36 36 36

GFSSW_sfc_dewp_117.txt.gz
Dewpoint
53 56 52 54 53 53 53 54 54 51 49 53 54 57 58 56 55 50 46 44 47 49 46 36 35 34 35 36 38 36 28 25 25 29 25 29 28 29 31 28 27 26 24 30 32
53 55 54 54 54 53 53 54 53 52 48 48 52 57 58 55 49 47 48 51 52 47 38 35 33 33 33 33 36 32 22 23 29 31 28 30 30 29 29 27 27 27 29 29 31
50 52 53 53 53 53 54 54 52 51 48 47 48 57 57 51 40 39 50 53 52 45 40 36 35 34 32 32 32 32 25 29 29 30 32 30 29 29 28 26 27 26 27 28 31
50 50 50 52 52 51 52 54 53 51 48 45 49 57 53 47 37 39 51 56 51 42 39 36 34 31 29 28 32 25 31 32 32 33 34 31 32 31 29 26 27 28 29 31 32
50 49 50 50 50 49 50 51 53 52 48 46 47 56 50 44 42 46 54 50 42 41 37 35 33 31 28 31 30 29 31 33 34 34 33 33 32 30 31 31 31 32 33 33 35
49 49 48 48 48 48 49 49 50 51 49 47 55 53 46 41 50 50 44 41 41 40 38 37 35 34 33 32 29 33 34 33 34 33 34 32 31 32 30 32 32 33 33 34 35
49 49 49 47 47 50 50 51 51 50 49 50 54 51 45 44 51 50 44 41 41 40 40 39 38 35 34 32 35 34 30 31 31 33 32 35 31 32 32 32 31 31 31 33 35
49 49 49 48 47 49 50 50 49 49 48 50 53 49 42 52 52 47 42 42 44 43 42 41 40 38 35 34 29 30 27 21 25 32 33 31 25 28 29 30 30 31 32 33 33
50 50 49 48 47 48 51 53 53 52 52 52 48 45 42 52 46 45 41 40 43 44 43 40 39 35 34 28 23 26 22 26 27 30 32 31 28 30 32 31 31 31 33 33 35
49 50 49 50 49 50 51 50 50 48 46 45 46 41 44 44 45 42 44 44 42 41 40 37 36 31 30 26 14 23 24 25 26 28 30 30 30 31 32 32 31 32 33 34 36
49 50 50 48 47 47 44 43 40 38 43 38 40 40 43 45 44 41 41 41 41 36 33 36 28 23 25 27 24 27 25 25 26 28 29 30 30 31 32 33 33 35 36 36 38
50 50 49 49 49 47 44 41 43 42 35 43 42 43 45 43 36 37 39 37 36 33 34 28 25 28 29 29 29 28 27 26 28 30 30 30 29 31 33 34 35 36 36 37 38
49 50 50 48 47 46 46 46 49 48 35 39 42 40 42 41 36 36 37 36 33 30 30 25 28 30 30 30 29 29 27 27 26 29 30 31 29 28 30 36 36 37 37 38 38
49 49 50 46 44 45 43 48 48 47 31 34 38 39 41 39 34 37 39 35 33 27 28 27 29 28 29 28 30 27 29 29 29 31 27 31 25 27 33 33 35 38 39 40 40
48 48 48 48 43 42 44 46 46 40 14 35 37 40 40 34 33 33 38 35 30 29 27 22 28 30 30 30 31 29 33 33 33 33 32 29 29 27 33 33 36 38 38 41 42
49 48 46 43 42 43 44 42 34 22 18 32 35 34 32 33 35 35 34 35 35 31 31 28 31 32 29 31 33 33 33 33 33 30 27 27 28 27 33 35 36 38 44 46 45
49 47 45 43 36 43 42 34 22 20 32 26 30 33 30 29 30 32 30 27 25 19 22 28 29 32 33 32 34 35 33 21 18 25 21 30 32 32 36 37 39 43 42 44 44
48 44 43 42 43 42 36 28 19 27 27 33 32 32 28 28 26 27 28 25 28 28 25 23 19 30 36 33 30 33 32 24 17 19 22 32 26 31 35 38 39 40 41 42 44
45 38 37 39 43 39 33 26 28 29 31 30 31 25 26 29 27 27 25 25 28 30 24 26 24 33 36 36 35 35 33 35 31 30 27 28 32 36 34 36 38 39 40 40 42
37 34 35 40 40 37 32 31 30 34 34 32 24 23 21 24 23 26 26 29 32 32 34 33 26 29 35 38 37 36 38 32 32 23 20 26 28 28 31 34 36 38 39 39 41
33 31 36 40 38 34 29 32 33 35 35 33 28 22 25 32 31 30 30 32 37 38 38 37 33 28 35 34 35 36 34 35 35 32 25 22 24 35 34 36 37 38 38 39 39
33 29 37 39 31 28 26 31 35 33 35 33 33 28 29 33 32 35 34 34 38 38 34 37 34 30 30 32 36 37 35 34 28 28 28 27 29 38 38 38 38 37 37 37 37
30 30 37 37 27 24 28 30 32 33 34 33 32 33 30 30 28 33 34 36 38 37 35 35 30 25 21 26 29 30 32 32 31 29 27 23 29 38 37 38 37 34 36 36 37
31 26 32 33 30 28 27 29 30 34 33 34 33 33 31 30 31 29 30 33 37 38 40 37 29 26 23 25 28 26 27 28 29 27 26 26 31 35 36 35 34 35 36 36 37
32 29 29 24 29 27 28 29 30 30 33 33 31 32 31 28 27 28 31 30 33 34 36 31 25 24 26 26 26 26 26 28 26 27 24 27 30 31 32 32 34 35 36 36 36
31 30 29 28 28 25 28 28 30 31 31 31 30 32 31 29 30 28 30 29 28 31 29 30 25 26 24 24 24 24 25 28 29 30 29 29 29 30 31 33 33 35 36 36 36
35 33 29 28 27 25 27 29 31 31 32 34 32 31 29 31 33 33 33 32 31 29 29 28 26 25 19 22 22 18 21 27 28 29 29 27 28 31 31 32 33 35 36 36 36